[[{"header":{"parameterUnit":"m.s-1","parameterCategory":1,"la1":31.0,"la2":29.5877,"lo1":-88.7671,"lo2":-86.6584,"dy":0.0162,"dx":0.0185,"nx":115,"ny":88,"refTime":"2024-03-09T06:00:00:Z","depth":0,"parameterNumber":2,"parameterNumberName":"U-component_of_WINDS"},"data":[0.0,0.0,0.0,0.0,0.0,0.0,0.0,0.0,0.0,0.0,0.0,0.0,0.0,0.0,0.0,0.0,0.0,0.0,0.0,0.0,0.0,0.0,0.0,0.0,0.0,0.0,0.0,0.0,0.0,0.0,0.0,0.0,0.0,0.0,0.0,0.0,0.0,0.0,0.0,0.0,0.0,0.0,0.0,0.0,0.0,0.0,0.0,0.0,0.0,0.0,0.0,0.0,0.0,0.0,0.0,0.0,0.0,0.0,0.0,0.0,0.0,0.0,0.0,0.0,0.0,0.0,0.0,0.0,0.0,0.0,0.0,0.0,0.0,0.0,0.0,0.0,0.0,0.0,0.0,0.0,0.0,0.0,0.0,0.0,0.0,0.0,0.0,0.0,0.0,0.0,0.0,0.0,0.0,0.0,0.0,0.0,0.0,0.0,0.0,0.0,0.0,0.0,0.0,0.0,0.0,0.0,0.0,0.0,0.0,0.0,0.0,0.0,0.0,0.0,0.0,0.0,0.0,0.0,0.0,0.0,0.0,0.0,0.0,0.0,0.0,0.0,0.0,0.0,0.0,0.0,0.0,0.0,0.0,0.0,0.0,0.0,0.0,0.0,0.0,0.0,0.0,0.0,0.0,0.0,0.0,0.0,0.0,0.0,0.0,0.0,0.0,0.0,0.0,0.0,0.0,0.0,0.0,0.0,0.0,0.0,0.0,0.0,0.0,0.0,0.0,0.0,0.0,0.0,0.0,0.0,0.0,0.0,0.0,0.0,0.0,0.0,0.0,0.0,0.0,0.0,0.0,0.0,0.0,0.0,0.0,0.0,0.0,0.0,0.0,0.0,0.0,0.0,0.0,0.0,0.0,0.0,0.0,0.0,0.0,0.0,0.0,0.0,0.0,0.0,0.0,0.0,0.0,0.0,0.0,0.0,0.0,0.0,0.0,0.0,0.0,0.0,0.0,0.0,0.0,0.0,0.0,0.0,0.0,0.0,0.0,0.0,0.0,0.0,0.0,0.0,0.0,0.0,0.0,0.0,0.0,0.0,0.0,0.0,0.0,0.0,0.0,0.0,0.0,0.0,0.0,0.0,0.0,0.0,0.0,0.0,0.0,0.0,0.0,0.0,0.0,0.0,0.0,0.0,0.0,0.0,0.0,0.0,0.0,0.0,0.0,0.0,0.0,0.0,0.0,0.0,0.0,0.0,0.0,0.0,0.0,0.0,0.0,0.0,0.0,0.0,0.0,0.0,0.0,0.0,0.0,0.0,0.0,0.0,0.0,0.0,0.0,0.0,0.0,0.0,0.0,0.0,0.0,0.0,0.0,0.0,0.0,0.0,0.0,0.0,0.0,0.0,0.0,0.0,0.0,0.0,0.0,0.0,0.0,0.0,0.0,0.0,0.0,0.0,0.0,0.0,0.0,0.0,0.0,0.0,0.0,0.0,0.0,0.0,0.0,0.0,0.0,0.0,0.0,0.0,0.0,0.0,0.0,0.0,0.0,0.0,0.0,0.0,0.0,0.0,0.0,0.0,0.0,0.0,0.0,0.0,0.0,0.0,0.0,0.0,0.0,0.0,0.0,0.0,0.0,0.0,0.0,0.0,0.0,0.0,0.0,0.0,0.0,0.0,0.0,0.0,0.0,0.0,0.0,0.0,0.0,0.0,0.0,0.0,0.0,0.0,0.0,0.0,0.0,0.0,0.0,0.0,0.0,0.0,0.0,0.0,0.0,0.0,0.0,0.0,0.0,0.0,0.0,0.0,0.0,0.0,0.0,0.0,0.0,0.0,0.0,0.0,0.0,0.0,0.0,0.0,0.0,0.0,0.0,0.0,0.0,0.0,0.0,0.0,0.0,0.0,0.0,0.0,0.0,0.0,0.0,0.0,0.0,0.0,0.0,0.0,0.0,0.0,0.0,0.0,0.0,0.0,0.0,0.0,0.0,0.0,0.0,0.0,0.0,0.0,0.0,0.0,0.0,0.0,0.0,0.0,0.0,0.0,0.0,0.0,0.0,0.0,0.0,0.0,0.0,0.0,0.0,0.0,0.0,0.0,0.0,0.0,0.0,0.0,0.0,0.0,0.0,0.0,0.0,0.0,0.0,0.0,0.0,0.0,0.0,0.0,0.0,0.0,0.0,0.0,0.0,0.0,0.0,0.0,0.0,0.0,0.0,0.0,0.0,0.0,0.0,0.0,0.0,0.0,0.0,0.0,0.0,0.0,0.0,0.0,0.0,0.0,0.0,0.0,0.0,0.0,0.0,0.0,0.0,0.0,0.0,0.0,0.0,0.0,0.0,0.0,0.0,0.0,0.0,0.0,0.0,0.0,0.0,0.0,0.0,0.0,0.0,0.0,0.0,0.0,0.0,0.0,0.0,0.0,0.0,0.0,0.0,0.0,0.0,0.0,0.0,0.0,0.0,0.0,0.0,0.0,0.0,0.0,0.0,0.0,0.0,0.0,0.0,0.0,0.0,0.0,0.0,0.0,0.0,0.0,0.0,0.0,0.0,0.0,0.0,0.0,0.0,0.0,0.0,0.0,0.0,0.0,0.0,0.0,0.0,0.0,0.0,0.0,0.0,0.0,0.0,0.0,0.0,0.0,0.0,0.0,0.0,0.0,0.0,0.0,0.0,0.0,0.0,0.0,0.0,0.0,0.0,0.0,0.0,0.0,0.0,0.0,0.0,0.0,0.0,0.0,0.0,0.0,0.0,0.0,0.0,0.0,0.0,0.0,0.0,0.0,0.0,0.0,0.0,0.0,0.0,0.0,0.0,0.0,0.0,0.0,0.0,0.0,0.0,0.0,0.0,0.0,0.0,0.0,0.0,0.0,0.0,0.0,0.0,0.0,0.0,0.0,0.0,0.0,0.0,0.0,0.0,0.0,0.0,0.0,0.0,0.0,0.0,0.0,0.0,0.0,0.0,0.0,0.0,0.0,0.0,0.0,0.0,0.0,0.0,0.0,0.0,0.0,0.0,0.0,0.0,0.0,0.0,0.0,0.0,0.0,0.0,0.0,0.0,0.0,0.0,0.0,0.0,0.0,0.0,0.0,0.0,0.0,0.0,0.0,0.0,0.0,0.0,0.0,0.0,0.0,0.0,0.0,0.0,0.0,0.0,0.0,0.0,0.0,0.0,0.0,0.0,0.0,0.0,0.0,0.0,0.0,0.0,0.0,0.0,0.0,0.0,0.0,0.0,0.0,0.0,0.0,0.0,0.0,0.0,0.0,0.0,0.0,0.0,0.0,0.0,0.0,0.0,0.0,0.0,0.0,0.0,0.0,0.0,0.0,0.0,0.0,0.0,0.0,0.0,0.0,0.0,0.0,0.0,0.0,0.0,0.0,0.0,0.0,0.0,0.0,0.0,0.0,0.0,0.0,0.0,0.0,0.0,0.0,0.0,0.0,0.0,0.0,0.0,0.0,0.0,0.0,0.0,0.0,0.0,0.0,0.0,0.0,0.0,0.0,0.0,0.0,0.0,0.0,0.0,0.0,0.0,0.0,0.0,0.0,0.0,0.0,0.0,0.0,0.0,0.0,0.0,0.0,0.0,0.0,0.0,0.0,0.0,0.0,0.0,0.0,0.0,0.0,0.0,0.0,0.0,0.0,0.0,0.0,0.0,0.0,0.0,0.0,0.0,0.0,0.0,0.0,0.0,0.0,0.0,0.0,0.0,0.0,0.0,0.0,0.0,0.0,0.0,0.0,0.0,0.0,0.0,0.0,0.0,0.0,0.0,0.0,0.0,0.0,0.0,0.0,0.0,0.0,0.0,0.0,0.0,0.0,0.0,0.0,0.0,0.0,0.0,0.0,0.0,0.0,0.0,0.0,0.0,0.0,0.0,0.0,0.0,0.0,0.0,0.0,0.0,0.0,0.0,0.0,0.0,0.0,0.0,0.0,0.0,0.0,0.0,0.0,0.0,0.0,0.0,0.0,0.0,0.0,0.0,0.0,0.0,0.0,0.0,0.0,0.0,0.0,0.0,0.0,0.0,0.0,0.0,0.0,0.0,0.0,0.0,0.0,0.0,0.0,0.0,0.0,0.0,0.0,0.0,0.0,0.0,0.0,0.0,0.0,0.0,0.0,0.0,0.0,0.0,0.0,0.0,0.0,0.0,0.0,0.0,0.0,0.0,0.0,0.0,0.0,0.0,0.0,0.0,0.0,0.0,0.0,0.0,0.0,0.0,0.0,0.0,0.0,0.0,0.0,0.0,0.0,0.0,0.0,0.0,0.0,0.0,0.0,0.0,0.0,0.0,0.0,0.0,0.0,1.1918,0.0,0.0,0.0,0.0,0.0,0.0,0.0,0.0,0.0,0.0,0.0,0.0,0.0,0.0,0.0,0.0,0.0,0.0,0.0,0.0,0.0,0.0,0.0,0.0,0.0,0.0,0.0,0.0,0.0,0.0,0.0,0.0,0.0,0.0,0.0,0.0,0.0,0.0,0.0,0.0,0.0,0.0,0.0,0.0,0.0,0.0,0.0,0.0,0.0,0.0,0.0,0.0,0.0,0.0,0.0,0.0,0.0,0.0,0.0,0.0,0.0,0.0,0.0,0.0,0.0,0.0,0.0,0.0,0.0,0.0,0.0,0.0,0.0,0.0,0.0,0.0,0.0,0.0,0.0,0.0,0.0,0.0,0.0,0.0,0.0,0.0,0.0,0.0,0.0,0.0,0.0,0.0,0.0,0.0,0.0,0.0,0.0,0.0,0.0,0.0,0.0,0.0,0.0,0.0,0.0,0.0,0.0,0.0,0.0,0.0,1.0924,1.1145,1.1247,1.1397,1.1571,0.0,0.0,0.0,0.0,0.0,0.0,0.0,0.0,0.0,0.0,0.0,0.0,0.0,0.0,0.0,0.0,0.0,0.0,0.0,0.0,0.0,0.0,0.0,0.0,0.0,0.0,0.0,0.0,0.0,0.0,0.0,0.0,0.0,0.0,0.0,0.0,0.0,0.0,0.0,0.0,0.0,0.0,0.0,0.0,0.0,0.0,0.0,0.0,0.0,0.0,0.0,0.0,0.0,0.0,0.0,0.0,0.0,0.0,0.0,0.0,0.0,0.0,0.0,0.0,0.0,0.0,0.0,0.0,0.0,0.0,0.0,0.0,0.0,0.0,0.0,0.0,0.0,0.0,0.0,0.0,0.0,0.0,0.0,0.0,0.0,0.0,0.0,0.0,0.0,0.0,0.0,0.0,0.0,0.0,0.0,0.0,0.0,0.0,0.0,0.0,0.0,0.0,0.0,0.0,0.0,0.0,0.0,0.0,0.0,0.0,0.0,0.0,1.0769,1.1037,1.1282,0.0,0.0,0.0,0.0,0.0,0.0,0.0,0.0,0.0,0.0,0.0,0.0,0.0,0.0,0.0,0.0,0.0,0.0,0.0,0.0,0.0,0.0,0.0,0.0,0.0,0.0,0.0,0.0,0.0,0.0,0.0,0.0,0.0,0.0,0.0,0.0,0.0,0.0,0.0,0.0,0.0,0.0,0.0,0.0,0.0,0.0,0.0,0.0,0.0,0.0,0.0,0.0,0.0,0.0,0.0,0.0,0.0,0.0,0.0,0.0,0.0,0.0,0.0,0.0,0.0,0.0,0.0,0.0,0.0,0.0,0.0,0.0,0.0,0.0,0.0,0.0,0.0,0.0,0.0,0.0,0.0,0.0,0.0,0.0,0.0,0.0,0.0,0.0,0.0,0.0,0.0,0.0,0.0,0.0,0.0,0.0,0.0,0.0,0.0,0.0,0.0,0.0,0.0,0.0,0.0,0.0,0.0,0.0,0.0,0.0,0.986,0.9873,1.0374,0.0,1.1193,0.0,0.0,0.0,0.0,0.0,0.0,0.0,0.0,0.0,0.0,0.0,0.0,0.0,0.0,0.0,0.0,0.0,0.0,0.0,0.0,0.0,0.0,0.0,0.0,0.0,0.0,0.0,0.0,0.0,0.0,0.0,0.0,0.0,0.0,0.0,0.0,0.0,0.0,0.0,0.0,0.0,0.0,0.0,0.0,0.0,0.0,0.0,0.0,0.0,0.0,0.0,0.0,0.0,0.0,0.0,0.0,0.0,0.0,0.0,0.0,0.0,0.0,0.0,0.0,0.0,0.0,0.0,0.0,0.0,0.0,0.0,0.0,0.0,0.0,0.0,0.0,0.0,0.0,0.0,0.0,0.0,0.0,0.0,0.0,0.0,0.0,0.0,0.0,0.0,0.0,0.0,0.0,0.0,0.0,0.0,0.0,0.0,0.0,0.0,0.0,0.0,0.0,0.0,0.0,0.0,0.0,0.0,0.0,0.0,0.0,0.8928,0.9211,0.9924,1.0481,0.0,0.0,0.0,0.0,0.0,0.0,0.0,0.0,0.0,0.0,0.0,0.0,0.0,0.0,0.0,0.0,0.0,0.0,0.0,0.0,0.0,0.0,0.0,0.0,0.0,0.0,0.0,0.0,0.0,0.0,0.0,0.0,0.0,0.0,0.0,0.0,0.0,0.0,0.0,0.0,0.0,0.0,0.0,0.0,0.0,0.0,0.0,0.0,0.0,0.0,0.0,0.0,0.0,0.0,0.0,0.0,0.0,0.0,0.0,0.0,0.0,0.0,0.0,0.0,0.0,0.0,0.0,0.0,0.0,0.0,0.0,0.0,0.0,0.0,0.0,0.0,0.0,0.0,0.0,0.0,0.0,0.0,0.0,0.0,0.0,0.0,0.0,0.0,0.0,0.0,0.0,0.0,0.0,0.0,0.0,0.0,0.0,0.0,0.0,0.0,0.0,0.0,0.0,0.0,0.0,0.0,0.0,0.0,0.0,0.0,0.7589,0.8029,0.8601,0.9323,0.9878,1.0312,0.0,0.0,0.0,0.0,0.0,0.0,0.0,0.0,0.0,0.0,0.0,0.0,0.0,0.0,0.0,0.0,0.0,0.0,0.0,0.0,0.0,0.0,0.0,0.0,0.0,0.0,0.0,0.0,0.0,0.0,0.0,0.0,0.0,0.0,0.0,0.0,0.0,0.0,0.0,0.0,0.0,0.0,0.0,0.0,0.0,0.0,0.0,0.0,0.0,0.0,0.0,0.0,0.0,0.0,0.0,0.0,0.0,0.0,0.0,0.0,0.0,0.0,0.0,0.0,0.0,0.0,0.0,0.0,0.0,0.0,0.0,0.0,0.0,0.0,0.0,0.0,0.0,0.0,0.0,0.0,0.0,0.0,0.0,0.0,0.0,0.0,0.0,0.0,0.0,0.0,0.0,0.0,0.0,0.0,0.0,0.0,0.0,0.0,0.0,0.0,0.0,0.0,0.0,0.0,0.0,0.0,0.0,0.0,0.6154,0.669,0.7306,0.807,0.8461,0.8976,0.0,0.0,0.0,0.0,0.0,0.0,0.0,0.0,0.0,0.0,0.0,0.0,0.0,0.0,0.0,0.0,0.0,0.0,0.0,0.0,0.0,0.0,0.0,0.0,0.0,0.0,0.0,0.0,0.0,0.0,0.0,0.0,0.0,0.0,0.0,0.0,0.0,0.0,0.0,0.0,0.0,0.0,0.0,0.0,0.0,0.0,0.0,0.0,0.0,0.0,0.0,0.0,0.0,0.0,0.0,0.0,0.0,0.0,0.0,0.0,0.0,0.0,0.0,0.0,0.0,0.0,0.0,0.0,0.0,0.0,0.0,0.0,0.0,0.0,0.0,0.0,0.0,0.0,0.0,0.0,0.0,0.0,0.0,0.0,0.0,0.0,0.0,0.0,0.0,0.0,0.0,0.0,0.0,0.0,0.0,0.0,0.0,0.0,0.0,0.0,0.0,0.0,0.0,0.0,0.0,0.0,0.0,0.0,0.0,0.4965,0.5424,0.601,0.6674,0.7263,0.8014,0.0,0.0,0.0,0.0,0.0,0.0,0.0,0.0,0.0,0.0,0.0,0.0,0.0,0.0,0.0,0.0,0.0,0.0,0.0,0.0,0.0,0.0,0.0,0.0,0.0,0.0,0.0,0.0,0.0,0.0,0.0,0.0,0.0,0.0,0.0,0.0,0.0,0.0,0.0,0.0,0.0,0.0,0.0,0.0,0.0,0.0,0.0,0.0,0.0,0.0,0.0,0.0,0.0,0.0,0.0,0.0,0.0,0.0,0.0,0.0,0.0,0.0,0.0,0.0,0.0,0.0,0.0,0.0,0.0,0.0,0.0,0.0,0.0,0.0,0.0,0.0,0.0,0.0,0.0,0.0,0.0,0.0,0.0,0.0,0.0,0.0,0.0,0.0,0.0,0.0,0.0,0.0,0.0,0.0,0.0,0.0,0.0,0.0,0.0,0.0,0.0,0.0,0.0,0.0,0.0,0.0,0.0,0.0,0.0,0.347,0.0,0.4426,0.4981,0.5834,0.6859,0.0,0.0,0.0,0.0,0.0,0.0,0.0,0.0,0.0,0.0,0.0,0.0,0.0,0.0,0.0,0.0,0.0,0.0,0.0,0.0,0.0,0.0,0.0,0.0,0.0,0.0,0.0,0.0,0.0,0.0,0.0,0.0,0.0,0.0,0.0,0.0,0.0,0.0,0.0,0.0,0.0,0.0,0.0,0.0,0.0,0.0,0.0,0.0,0.0,0.0,0.0,0.0,0.0,0.0,0.0,0.0,0.0,0.0,0.0,0.0,0.0,0.0,0.0,0.0,0.0,0.0,0.0,0.0,0.0,0.0,0.0,0.0,0.0,0.0,0.0,0.0,0.0,0.0,0.0,0.0,0.0,0.0,0.0,0.0,0.0,0.0,0.0,0.0,0.0,0.0,0.0,0.0,0.0,0.0,0.0,0.0,0.0,0.0,0.0,0.0,0.0,0.0,0.0,0.0,0.0,0.0,0.0,0.0,0.2177,0.1723,0.2113,0.258,0.3099,0.4189,0.5581,0.0,0.0,0.0,0.0,0.0,0.0,0.0,0.0,0.0,0.0,0.0,0.0,0.0,0.0,0.0,0.0,0.0,0.0,0.0,0.0,0.0,0.0,0.0,0.0,0.0,0.0,0.0,0.0,0.0,0.0,0.0,0.0,0.0,0.0,0.0,0.0,0.0,0.0,0.0,0.0,0.0,0.0,0.0,0.0,0.0,0.0,0.0,0.0,0.0,0.0,0.0,0.0,0.0,0.0,0.0,0.0,0.0,0.0,0.0,0.0,0.0,0.0,0.0,0.0,0.0,0.0,0.0,0.0,0.0,0.0,0.0,0.0,0.0,0.0,0.0,0.0,0.0,0.0,0.0,0.0,0.0,0.0,0.0,0.0,0.0,0.0,0.0,0.0,0.0,0.0,0.0,0.0,0.0,0.0,0.0,0.0,0.0,0.0,0.0,0.0,0.0,0.0,0.0,0.0,0.0,0.0,0.0,0.0,0.0,-0.0125,0.0,0.0431,0.1222,0.2479,0.4111,0.0,0.0,0.0,0.0,0.0,0.0,0.0,0.0,0.0,0.0,0.0,0.0,0.0,0.0,0.0,0.0,0.0,0.0,0.0,0.0,0.0,0.0,0.0,0.0,0.0,0.0,0.0,0.0,0.0,0.0,0.0,0.0,0.0,0.0,0.0,0.0,0.0,0.0,0.0,0.0,0.0,0.0,0.0,0.0,0.0,0.0,0.0,0.0,0.0,0.0,0.0,0.0,0.0,0.0,0.0,0.0,0.0,0.0,0.0,0.0,0.0,0.0,0.0,0.0,0.0,0.0,0.0,0.0,0.0,0.0,0.0,0.0,0.0,0.0,0.0,0.0,0.0,0.0,0.0,0.0,0.0,0.0,0.0,0.0,0.0,0.0,0.0,0.0,0.0,0.0,0.0,0.0,0.0,0.0,0.0,0.0,0.0,0.0,0.0,0.0,0.0,0.0,0.0,0.0,0.0,0.0,0.0,0.0,0.0,-0.3064,-0.2552,-0.1843,-0.0912,0.0591,0.2531,0.4911,0.0,0.0,0.0,0.0,0.0,0.0,0.0,0.0,0.0,0.0,0.0,0.0,0.0,0.0,0.0,0.0,0.0,0.0,0.0,0.0,0.0,0.0,0.0,0.0,0.0,0.0,0.0,0.0,0.0,0.0,0.0,0.0,0.0,0.0,0.0,0.0,0.0,0.0,0.0,0.0,0.0,0.0,0.0,0.0,0.0,0.0,0.0,0.0,0.0,0.0,0.0,0.0,0.0,0.0,0.0,0.0,0.0,0.0,0.0,0.0,0.0,0.0,0.0,0.0,0.0,0.0,0.0,0.0,0.0,0.0,0.0,0.0,0.0,0.0,0.0,0.0,0.0,0.0,0.0,0.0,0.0,0.0,0.0,0.0,0.0,0.0,0.0,0.0,0.0,0.0,0.0,0.0,0.0,0.0,0.0,0.0,0.0,0.0,0.0,0.0,0.0,0.0,0.0,0.0,0.0,0.0,0.0,0.0,-0.6802,-0.5438,-0.4276,-0.3254,-0.1411,0.0858,0.0,0.0,0.0,0.0,0.0,0.0,0.0,0.0,0.0,0.0,0.0,0.0,0.0,0.0,0.0,0.0,0.0,0.0,0.0,0.0,0.0,0.0,0.0,0.0,0.0,0.0,0.0,0.0,0.0,0.0,0.0,0.0,0.0,0.0,0.0,0.0,0.0,0.0,0.0,0.0,0.0,0.0,0.0,0.0,0.0,0.0,0.0,0.0,0.0,0.0,0.0,0.0,0.0,0.0,0.0,0.0,0.0,0.0,0.0,0.0,0.0,0.0,0.0,0.0,0.0,0.0,0.0,0.0,0.0,0.0,0.0,0.0,0.0,0.0,0.0,0.0,0.0,0.0,0.0,0.0,0.0,0.0,0.0,0.0,0.0,0.0,0.0,0.0,0.0,0.0,0.0,0.0,0.0,0.0,0.0,0.0,0.0,0.0,0.0,0.0,0.0,0.0,0.0,0.0,0.0,0.0,0.0,0.0,0.0,-0.8407,-0.8615,-0.755,-0.5236,-0.3168,-0.0783,0.0,0.0,0.0,0.0,0.0,0.0,0.0,0.0,0.0,0.0,0.0,0.0,0.0,0.0,0.0,0.0,0.0,0.0,0.0,0.0,0.0,0.0,0.0,0.0,0.0,0.0,0.0,0.0,0.0,0.0,0.0,0.0,0.0,0.0,0.0,0.0,0.0,0.0,0.0,0.0,0.0,0.0,0.0,0.0,0.0,0.0,0.0,0.0,0.0,0.0,0.0,0.0,0.0,0.0,0.0,0.0,0.0,0.0,0.0,0.0,0.0,0.0,0.0,0.0,0.0,0.0,0.0,0.0,0.0,0.0,0.0,0.0,0.0,0.0,0.0,0.0,0.0,0.0,0.0,0.0,0.0,0.0,0.0,0.0,0.0,0.0,0.0,0.0,0.0,0.0,0.0,0.0,0.0,0.0,0.0,0.0,0.0,0.0,0.0,0.0,0.0,0.0,0.0,0.0,0.0,0.0,0.0,0.0,-0.8721,-1.0122,-1.0748,-1.0199,-0.8404,-0.5467,-0.2607,0.0,0.0,0.0,0.0,0.0,0.0,0.0,0.0,0.0,0.0,0.0,0.0,0.0,0.0,0.0,0.0,0.0,0.0,0.0,0.0,0.0,0.0,0.0,0.0,0.0,0.0,0.0,0.0,0.0,0.0,0.0,0.0,0.0,0.0,0.0,0.0,0.0,0.0,0.0,0.0,0.0,0.0,0.0,0.0,0.0,0.0,0.0,0.0,0.0,0.0,0.0,0.0,0.0,0.0,0.0,0.0,0.0,0.0,0.0,0.0,0.0,0.0,0.0,0.0,0.0,0.0,0.0,0.0,0.0,0.0,0.0,0.0,0.0,0.0,0.0,0.0,0.0,0.0,0.0,0.0,0.0,0.0,0.0,0.0,0.0,0.0,0.0,0.0,0.0,0.0,0.0,0.0,0.0,0.0,0.0,0.0,0.0,0.0,0.0,0.0,0.0,0.0,0.0,0.0,0.0,0.0,0.0,0.0,-1.003,-1.1713,-1.2184,-1.2297,-1.1938,-0.8056,-0.4602,0.0,0.0,0.0,0.0,0.0,0.0,0.0,0.0,0.0,0.0,0.0,0.0,0.0,0.0,0.0,0.0,0.0,0.0,0.0,0.0,0.0,0.0,0.0,0.0,0.0,0.0,0.0,0.0,0.0,0.0,0.0,0.0,0.0,0.0,0.0,0.0,0.0,0.0,0.0,0.0,0.0,0.0,0.0,0.0,0.0,0.0,0.0,0.0,0.0,0.0,0.0,0.0,0.0,0.0,0.0,0.0,0.0,0.0,0.0,0.0,0.0,0.0,0.0,0.0,0.0,0.0,0.0,0.0,0.0,0.0,0.0,0.0,0.0,0.0,0.0,0.0,0.0,0.0,0.0,0.0,0.0,0.0,0.0,0.0,0.0,0.0,0.0,0.0,0.0,0.0,0.0,0.0,0.0,0.0,0.0,0.0,0.0,0.0,0.0,0.0,0.0,0.0,0.0,0.0,0.0,0.0,0.0,0.0,-1.1099,-1.2802,-1.3392,-1.3666,-1.3588,-0.9939,-0.6672,0.0,0.0,0.0,0.0,0.0,0.0,0.0,0.0,0.0,0.0,0.0,0.0,0.0,0.0,0.0,0.0,0.0,0.0,0.0,0.0,0.0,0.0,0.0,0.0,0.0,0.0,0.0,0.0,0.0,0.0,0.0,0.0,0.0,0.0,0.0,0.0,0.0,0.0,0.0,0.0,0.0,0.0,0.0,0.0,0.0,0.0,0.0,0.0,1.2512,0.0,0.0,0.0,0.0,0.0,0.0,0.0,0.0,0.0,0.0,0.0,0.0,0.0,0.0,0.0,0.0,0.0,0.0,0.0,0.0,0.0,0.0,0.0,0.0,0.0,0.0,0.0,0.0,0.0,0.0,0.0,0.0,0.0,0.0,0.0,0.0,0.0,0.0,0.0,0.0,0.0,0.0,0.0,0.0,0.0,0.0,0.0,0.0,0.0,0.0,0.0,0.0,0.0,0.0,0.0,0.0,0.0,0.0,0.0,-1.2061,-1.3952,-1.4538,-1.4892,-1.5027,-1.2794,-0.987,0.0,0.0,0.0,0.0,0.0,0.0,0.0,0.0,0.0,0.0,0.0,0.0,0.0,0.0,0.0,0.0,0.0,0.0,0.0,0.0,0.0,0.0,0.0,0.0,0.0,0.0,0.0,0.0,0.0,0.0,0.0,0.0,0.0,0.0,0.0,0.0,0.0,0.0,0.0,0.0,0.0,0.0,0.0,0.0,0.0,0.0,0.0,0.0,0.0,0.0,0.0,0.0,0.0,0.0,0.0,0.0,0.0,0.0,0.0,0.0,0.0,0.0,0.0,0.0,0.0,0.0,0.0,0.0,0.0,0.0,0.0,0.0,0.0,0.0,0.0,0.0,0.0,0.0,0.0,0.0,0.0,0.0,0.0,0.0,0.0,0.0,0.0,0.0,0.0,0.0,0.0,0.0,0.0,0.0,0.0,0.0,0.0,0.0,0.0,0.0,0.0,0.0,0.0,0.0,0.0,0.0,0.0,-1.1364,-1.288,-1.4914,-1.5521,-1.6015,-1.6476,-1.5709,-1.33,-0.9161,0.0,0.0,0.0,0.0,0.0,0.0,0.0,0.0,0.0,0.0,0.0,0.0,0.0,0.0,0.0,0.0,0.0,0.0,0.0,0.0,0.0,0.0,0.0,0.0,0.0,0.0,0.0,0.0,0.0,0.0,0.0,0.0,0.0,0.0,0.0,0.0,0.0,0.0,1.0551,1.0332,0.0,0.0,0.0,0.0,0.0,0.0,0.0,0.0,0.7063,0.0,0.0,0.0,0.0,0.0,0.0,0.0,0.0,0.0,0.0,0.0,0.0,0.0,0.0,0.0,0.0,0.0,0.0,0.0,0.0,0.0,0.0,0.0,0.0,0.0,0.0,0.0,0.0,0.0,0.0,0.0,0.0,0.0,0.0,0.0,0.0,0.0,0.0,0.0,0.0,0.0,0.0,0.0,0.0,0.0,0.0,0.0,0.0,0.0,0.0,0.0,0.0,0.0,0.0,0.0,0.0,-1.0864,-1.1979,-1.3496,-1.5441,-1.6201,-1.6854,-1.7347,-1.7014,-1.5772,-1.3513,0.0,0.0,0.0,0.0,0.0,0.0,0.0,0.0,0.0,0.0,0.0,0.0,0.0,0.0,0.0,0.0,0.0,0.0,0.0,0.0,0.0,0.0,0.0,0.0,0.0,0.0,0.0,0.0,0.0,0.0,0.0,0.0,0.0,0.0,0.0,0.0,0.0,0.0,0.0,0.8073,0.7469,0.0,0.0,0.0,0.0,0.0,0.0,0.0,0.0,0.3635,0.0,0.0,0.0,0.0,0.0,0.0,0.0,0.0,0.0,0.0,0.0,0.0,0.0,0.0,0.0,0.0,0.0,0.0,0.0,0.0,0.0,0.0,0.0,0.0,0.0,0.0,0.0,0.0,0.0,0.0,0.0,0.0,0.0,0.0,0.0,0.0,0.0,0.0,0.0,0.0,0.0,0.0,0.0,0.0,0.0,0.0,0.0,0.0,0.0,0.0,0.0,0.0,0.0,0.0,0.0,-1.1448,-1.27,-1.4238,-1.6055,-1.6904,-1.7585,-1.8212,-1.821,-1.7429,0.0,0.0,0.0,0.0,0.0,0.0,0.0,0.0,0.0,0.0,0.0,0.0,0.0,0.0,0.0,0.0,0.0,0.0,0.0,0.0,0.0,0.0,0.0,0.0,0.0,0.0,0.0,0.0,0.0,0.0,0.0,0.0,0.0,0.0,0.0,0.0,0.0,0.0,0.0,0.0,0.5286,0.4128,0.2881,0.0,0.0,0.0,0.0,0.0,0.0,-0.1255,-0.0713,0.0,0.0,0.0,0.0,0.0,0.0,0.0,0.0,0.0,0.0,0.0,0.0,0.0,0.0,0.0,0.0,0.0,0.0,0.0,0.0,0.0,0.0,0.0,0.0,0.0,0.0,0.0,0.0,0.0,0.0,0.0,0.0,0.0,0.0,0.0,0.0,0.0,0.0,0.0,0.0,0.0,0.0,0.0,0.0,0.0,0.0,0.0,0.0,0.0,0.0,0.0,0.0,0.0,0.0,0.0,-1.1933,-1.3303,-1.4838,-1.657,-1.7429,-1.8198,-1.8879,-1.9157,-1.8646,0.0,0.0,0.0,0.0,0.0,0.0,0.0,0.0,0.0,0.0,0.0,0.0,0.0,0.0,0.0,0.0,0.0,0.0,0.0,0.0,0.0,0.0,0.0,0.0,0.0,0.0,0.0,0.0,0.0,0.0,0.0,0.0,0.0,0.0,0.0,0.0,0.0,0.0,0.0,0.0,0.0,0.068,-0.0832,-0.2268,0.0,0.0,0.0,0.0,-0.5981,-0.5798,0.0,0.0,0.0,0.0,0.0,0.0,0.0,0.0,0.0,0.0,0.0,0.0,0.0,0.0,0.0,0.0,0.0,0.0,0.0,0.0,0.0,0.0,0.0,0.0,0.0,0.0,0.0,0.0,0.0,0.0,0.0,0.0,0.0,0.0,0.0,0.0,0.0,0.0,0.0,0.0,0.0,0.0,0.0,0.0,0.0,0.0,0.0,0.0,0.0,0.0,0.0,0.0,0.0,0.0,0.0,0.0,-1.2138,-1.3594,-1.5126,-1.6726,-1.7612,-1.8433,-1.9213,-1.9669,-1.9355,0.0,0.0,0.0,0.0,0.0,0.0,0.0,0.0,0.0,0.0,0.0,0.0,0.0,0.0,0.0,0.0,0.0,0.0,0.0,0.0,0.0,0.0,0.0,0.0,0.0,0.0,0.0,0.0,0.0,0.0,0.0,0.0,0.0,0.0,0.0,0.0,0.0,0.0,0.0,0.0,0.0,-0.264,-0.4279,-0.6214,-0.8001,0.0,0.0,-1.0917,-1.1459,-1.0664,0.0,0.0,0.0,0.0,0.0,0.0,0.0,0.0,0.0,0.0,0.0,0.0,0.0,0.0,0.0,0.0,0.0,0.0,0.0,0.0,0.0,0.0,0.0,0.0,0.0,0.0,0.0,0.0,0.0,0.0,0.0,0.0,0.0,0.0,0.0,0.0,0.0,0.0,0.0,0.0,0.0,0.0,0.0,0.0,0.0,0.0,0.0,0.0,0.0,0.0,0.0,0.0,0.0,0.0,0.0,-1.1369,-1.2478,-1.4111,-1.561,-1.6928,-1.7834,-1.8635,-1.9284,-1.9469,-1.924,0.0,0.0,0.0,0.0,0.0,0.0,0.0,0.0,0.0,0.0,0.0,0.0,0.0,0.0,0.0,0.0,0.0,0.0,0.0,0.0,0.0,0.0,0.0,0.0,0.0,0.0,0.0,0.0,0.0,0.0,0.0,0.0,0.0,0.0,0.0,0.0,0.0,0.0,0.0,0.0,0.0,0.0,-0.7459,-0.9418,0.0,0.0,0.0,-1.4818,-1.5231,0.0,0.0,0.0,0.0,0.0,0.0,0.0,0.0,0.0,0.0,0.0,0.0,0.0,0.0,0.0,0.0,0.0,0.0,0.0,0.0,0.0,0.0,0.0,0.0,0.0,0.0,0.0,0.0,0.0,0.0,0.0,0.0,0.0,0.0,0.0,0.0,0.0,0.0,0.0,0.0,0.0,0.0,0.0,0.0,0.0,0.0,0.0,0.0,0.0,0.0,0.0,0.0,0.0,0.0,0.0,0.0,0.0,-1.2785,-1.4535,-1.5971,-1.7045,-1.7961,-1.8707,-1.9232,-1.9351,0.0,0.0,0.0,0.0,0.0,0.0,0.0,0.0,0.0,0.0,0.0,0.0,0.0,0.0,0.0,0.0,0.0,0.0,0.0,0.0,0.0,0.0,0.0,0.0,0.0,0.0,0.0,0.0,0.0,0.0,0.0,0.0,0.0,0.0,0.0,0.0,0.0,0.0,0.0,0.0,0.0,0.0,-0.8187,-1.022,-1.2172,-1.3984,0.0,0.0,-1.8194,-1.8609,-1.8592,-1.7883,0.0,0.0,0.0,0.0,0.0,0.0,0.0,0.0,0.0,0.0,0.0,0.0,0.0,0.0,0.0,0.0,0.0,0.0,0.0,0.0,0.0,0.0,0.0,0.0,0.0,0.0,0.0,0.0,0.0,0.0,0.0,0.0,0.0,0.0,0.0,0.0,0.0,0.0,0.0,0.0,0.0,0.0,0.0,0.0,0.0,0.0,0.0,0.0,0.0,0.0,0.0,0.0,0.0,0.0,0.0,-1.2984,-1.4698,-1.6037,-1.7013,-1.7854,-1.8558,-1.9101,-1.9702,-1.9613,0.0,0.0,0.0,0.0,0.0,0.0,0.0,0.0,0.0,0.0,0.0,0.0,0.0,0.0,0.0,0.0,0.0,0.0,0.0,0.0,0.0,0.0,0.0,0.0,0.0,0.0,0.0,0.0,0.0,0.0,0.0,0.0,0.0,0.0,0.0,0.0,0.0,0.0,0.0,0.0,0.0,-1.008,-1.2373,-1.4474,-1.6577,0.0,0.0,-2.0963,-2.1906,-2.1493,-2.0398,-1.8351,0.0,0.0,0.0,0.0,0.0,0.0,0.0,0.0,0.0,0.0,0.0,0.0,0.0,0.0,0.0,0.0,0.0,0.0,0.0,0.0,0.0,0.0,0.0,0.0,0.0,0.0,0.0,0.0,0.0,0.0,0.0,0.0,0.0,0.0,0.0,0.0,0.0,0.0,0.0,0.0,0.0,0.0,0.0,0.0,0.0,0.0,0.0,0.0,0.0,0.0,0.0,0.0,0.0,-1.2393,-1.313,-1.4753,-1.6061,-1.6972,-1.7733,-1.8397,-1.8969,-1.9179,-1.9077,0.0,0.0,0.0,0.0,0.0,0.0,0.0,0.0,0.0,0.0,0.0,0.0,0.0,0.0,0.0,0.0,0.0,0.0,0.0,0.0,0.0,0.0,0.0,0.0,0.0,0.0,0.0,0.0,-0.345,-0.3234,-0.2973,0.0,0.0,0.0,0.0,0.0,0.0,0.0,0.0,0.0,0.0,-1.1108,-1.3041,-1.509,0.0,0.0,-2.0521,-2.187,-2.2919,-2.258,-2.167,-2.0197,-1.7716,0.0,0.0,0.0,0.0,0.0,0.0,0.0,0.0,0.0,0.0,0.0,0.0,0.0,0.0,0.0,0.0,0.0,0.0,0.0,0.0,0.0,0.0,0.0,0.0,0.0,0.0,0.0,0.0,0.0,0.0,0.0,0.0,0.0,0.0,0.0,0.0,0.0,0.0,0.0,0.0,0.0,0.0,0.0,0.0,0.0,0.0,0.0,0.0,0.0,0.0,0.0,0.0,-1.2478,-1.3119,-1.4677,-1.5932,-1.6761,-1.7482,-1.8127,-1.8693,-1.8833,-1.8789,0.0,0.0,0.0,0.0,0.0,0.0,0.0,0.0,0.0,0.0,0.0,0.0,0.0,0.0,0.0,0.0,0.0,0.0,0.0,0.0,0.0,0.0,0.0,0.0,0.0,0.0,0.0,0.0,-0.4839,-0.4604,-0.4456,0.0,0.0,0.0,0.0,0.0,0.0,0.0,0.0,0.0,0.0,-1.183,-1.3549,-1.5444,-1.7285,-1.9001,-2.0765,-2.2285,-2.3262,-2.2978,-2.2207,-2.089,0.0,0.0,0.0,0.0,0.0,0.0,0.0,0.0,0.0,0.0,0.0,0.0,0.0,0.0,0.0,0.0,0.0,0.0,0.0,0.0,0.0,0.0,0.0,0.0,0.0,0.0,0.0,0.0,0.0,0.0,0.0,0.0,0.0,0.0,0.0,0.0,0.0,0.0,0.0,0.0,0.0,0.0,0.0,0.0,0.0,0.0,0.0,0.0,0.0,0.0,0.0,0.0,0.0,-1.2361,-1.2921,-1.4481,-1.5611,-1.6312,-1.711,-1.7747,-1.8305,-1.8793,-1.8954,-1.8693,0.0,0.0,0.0,0.0,0.0,0.0,0.0,0.0,0.0,0.0,0.0,0.0,0.0,0.0,0.0,0.0,0.0,0.0,0.0,0.0,0.0,0.0,0.0,0.0,0.0,0.0,-0.6289,-0.5953,-0.5734,0.0,0.0,0.0,0.0,0.0,0.0,0.0,0.0,0.0,0.0,-1.0919,-1.2241,-1.4007,-1.572,-1.7449,-1.9449,-2.1008,-2.2264,-2.3015,-2.2767,-2.194,0.0,0.0,0.0,0.0,0.0,0.0,0.0,0.0,0.0,0.0,0.0,0.0,0.0,0.0,0.0,0.0,0.0,0.0,0.0,0.0,0.0,0.0,0.0,0.0,0.0,0.0,0.0,-1.326,-1.2903,0.0,0.0,0.0,0.0,0.0,0.0,0.0,0.0,0.0,0.0,0.0,-0.9985,-0.961,0.0,0.0,0.0,0.0,0.0,0.0,0.0,0.0,0.0,0.0,0.0,0.0,-1.2147,-1.2669,-1.4038,-1.5153,-1.5964,-1.6539,-1.7173,-1.7888,-1.8338,-1.8526,-1.8413,0.0,0.0,0.0,0.0,0.0,0.0,0.0,0.0,0.0,0.0,0.0,0.0,0.0,0.0,0.0,0.0,0.0,0.0,0.0,0.0,0.0,0.0,0.0,0.0,0.0,-0.7447,0.0,0.0,0.0,0.0,0.0,0.0,0.0,0.0,0.0,0.0,0.0,-0.9087,-1.0347,-1.1259,-1.2353,-1.396,-1.5384,-1.6789,0.0,0.0,0.0,0.0,0.0,0.0,0.0,0.0,0.0,0.0,0.0,0.0,0.0,0.0,-0.4928,-0.2521,-0.1192,-0.0288,0.034,0.0,0.0,0.0,0.0,0.0,0.0,0.0,0.0,0.0,0.0,0.0,0.0,0.0,0.0,0.0,0.0,-1.2792,0.0,0.0,0.0,0.0,0.0,0.0,0.0,0.0,-1.0306,-1.0188,-1.0019,-0.9716,-0.9665,0.0,-0.9602,-0.9509,0.0,0.0,0.0,0.0,0.0,0.0,0.0,0.0,-1.1872,-1.2351,-1.3584,-1.4605,-1.5332,-1.5854,-1.6484,-1.7276,-1.7821,-1.8173,-1.8302,-1.7838,-1.7299,0.0,0.0,0.0,0.0,0.0,0.0,0.0,0.0,0.0,0.0,0.0,0.0,0.0,0.0,0.0,0.0,0.0,0.0,0.0,0.0,0.0,0.0,0.0,-0.8171,0.0,0.0,0.0,0.0,0.0,0.0,0.0,0.0,0.0,-0.8351,-0.9026,-0.9876,-1.0801,-1.1482,-1.2416,-1.3702,0.0,0.0,0.0,0.0,0.0,0.0,0.0,-1.9747,-1.9091,-1.779,-1.6408,-1.5015,-1.3178,-1.1335,-0.9632,0.0,0.0,-0.4178,-0.2808,-0.1799,-0.1115,-0.0307,0.0446,0.118,0.1735,0.2287,0.0,0.0,0.0,0.0,0.0,0.0,0.0,0.0,-1.5235,-1.4694,0.0,-1.3118,0.0,0.0,0.0,0.0,0.0,0.0,0.0,0.0,-1.0551,-1.0593,-1.0446,-1.0382,-1.0305,-1.0097,-1.0156,-0.9892,-0.9341,-0.9557,0.0,0.0,0.0,0.0,0.0,0.0,-1.1496,-1.196,-1.3138,-1.3978,-1.4446,-1.5039,-1.571,-1.6471,-1.7286,-1.7887,-1.8198,-1.7734,-1.7381,-1.7129,-1.5842,0.0,0.0,0.0,0.0,0.0,0.0,0.0,0.0,0.0,0.0,0.0,0.0,0.0,0.0,0.0,0.0,0.0,0.0,0.0,0.0,-0.9185,0.0,0.0,0.0,0.0,0.0,0.0,0.0,0.0,0.0,0.0,-0.9335,-0.9878,-1.0546,-1.1232,0.0,0.0,0.0,0.0,-1.5544,-1.66,-1.7726,-1.8633,-1.9135,-1.8792,-1.8286,-1.7823,0.0,0.0,-1.3607,-1.2416,-1.1365,-1.0184,-0.8799,-0.7275,-0.5498,-0.4272,-0.3331,-0.2407,-0.16,-0.0765,0.0145,0.0852,0.1503,-1.8158,0.0,0.0,0.0,0.0,-1.6521,-1.6449,-1.6453,-1.5554,-1.4945,-1.4582,-1.3671,0.0,0.0,0.0,0.0,0.0,0.0,-1.0507,-1.0444,-0.9993,-0.9669,-0.9431,-0.9342,-0.9301,-0.9325,-0.9351,-0.9358,-0.9361,-0.9438,-0.9431,-0.937,0.0,0.0,0.0,0.0,-1.0951,-1.1199,-1.2224,-1.3001,-1.3437,-1.4073,-1.4801,-1.57,-1.6275,-1.6735,-1.7008,-1.7018,-1.6709,-1.6079,-1.5547,0.0,0.0,0.0,0.0,0.0,0.0,0.0,0.0,0.0,0.0,0.0,0.0,0.0,0.0,0.0,0.0,0.0,0.0,0.0,-0.9405,-0.9463,-0.9279,0.0,0.0,0.0,0.0,0.0,0.0,0.0,0.0,0.0,-1.0055,-1.0373,-1.088,0.0,0.0,-1.2372,-1.3382,-1.4086,-1.4841,-1.5626,0.0,0.0,0.0,-1.7484,-1.7331,-1.6816,-1.5653,-1.4377,-1.3199,-1.2408,-1.1469,-1.0144,-0.8992,-0.7846,-0.6635,-0.5302,-0.4173,-0.3387,-0.2654,-0.1743,-0.0771,0.0036,0.0788,-1.7619,-1.7522,-1.7316,-1.7101,-1.6921,-1.6704,-1.667,-1.6683,-1.592,-1.5381,-1.4897,-1.4033,-1.3344,-1.2856,-1.243,0.0,0.0,0.0,-1.0355,-1.026,-0.9787,-0.9424,-0.9166,-0.9153,-0.9146,-0.9086,-0.9079,-0.9071,-0.9073,-0.9073,-0.9066,-0.9058,0.0,0.0,-0.9494,-1.0035,-1.0424,-1.0679,-1.1494,-1.2104,-1.2438,-1.327,-1.4027,-1.4744,-1.5276,-1.5676,-1.5918,-1.6136,-1.5988,-1.5426,-1.5028,-1.4364,0.0,0.0,0.0,0.0,0.0,0.0,0.0,0.0,0.0,0.0,0.0,-0.9439,0.0,0.0,0.0,0.0,-0.9815,-0.9716,-0.9707,-0.9795,0.0,0.0,0.0,0.0,0.0,0.0,0.0,-0.8784,-0.9097,-0.9558,-1.0198,-1.041,-1.082,-1.165,-1.1781,-1.204,-1.2783,0.0,-1.3865,-1.4498,-1.5198,-1.5747,-1.5833,-1.5939,-1.5808,-1.5269,-1.4322,-1.3397,-1.2562,-1.1818,-1.0883,-0.9718,-0.8571,-0.7568,-0.6682,-0.5469,-0.445,-0.3933,-0.3111,-0.2223,-0.1208,-0.0434,0.0393,-1.6952,-1.6755,-1.7177,-1.7314,-1.7222,-1.7095,-1.6989,-1.686,-1.629,-1.5728,-1.5145,-1.4105,-1.3258,-1.2543,-1.1522,0.0,0.0,-1.0544,-1.0214,-0.9881,-0.9839,-0.9628,-0.9356,-0.9507,-0.9444,-0.9116,-0.9122,-0.8922,-0.8553,-0.8547,-0.8521,-0.8508,-0.895,-0.919,-0.9232,-0.9504,-0.9855,-1.0285,-1.0821,-1.1208,-1.1541,-1.2536,-1.3256,-1.3627,-1.4236,-1.4641,-1.4915,-1.5107,-1.5141,-1.4926,-1.4328,-1.3828,-1.3453,0.0,0.0,0.0,0.0,0.0,0.0,0.0,0.0,0.0,0.0,0.0,0.0,0.0,0.0,0.0,-1.0099,0.0,-1.018,-1.0134,0.0,0.0,0.0,-0.9057,-0.828,-0.8199,-0.8222,-0.8172,0.0,0.0,0.0,0.0,-1.0378,-1.1143,-1.1298,-1.1484,-1.1898,-1.2298,-1.2739,-1.3332,-1.3644,-1.4006,-1.4347,-1.4263,-1.3903,-1.3419,-1.2828,-1.2215,-1.1612,-1.073,-0.9792,-0.8831,-0.7703,-0.671,-0.5971,-0.4981,-0.4235,-0.3883,-0.318,-0.2295,-0.1341,-0.0535,0.0281,-1.6097,-1.6044,-1.6145,-1.6404,-1.6689,-1.6656,-1.6746,-1.6816,-1.5965,-1.5244,-1.4649,-1.3618,-1.2672,-1.1752,-1.0889,-1.0611,-1.0783,-1.0021,-0.9639,-0.9573,-0.9208,-0.8896,-0.8637,-0.8675,-0.8675,-0.8584,-0.8476,-0.8304,-0.8064,-0.7957,-0.7857,-0.7777,-0.7876,-0.8214,-0.8762,-0.9022,-0.916,-0.9164,-0.9806,-1.0397,-1.0973,-1.1576,-1.2015,-1.2273,-1.2817,-1.3178,-1.3331,-1.3592,-1.365,-1.3508,-1.3229,-1.2896,-1.2411,-1.1721,0.0,0.0,0.0,0.0,0.0,0.0,0.0,0.0,0.0,-0.9406,-0.9328,0.0,-0.9561,0.0,-1.0112,-1.0162,-0.9994,-0.9918,0.0,0.0,-0.9205,-0.8817,-0.8207,-0.7854,-0.7754,-0.788,-0.7889,-0.819,-0.8932,-0.9175,-0.9411,-0.9761,-1.0432,-1.1074,-1.1484,-1.1632,-1.1848,-1.2248,-1.2395,-1.2549,-1.2748,-1.2542,-1.2154,-1.1737,-1.1297,-1.0797,-1.0222,-0.9589,-0.8816,-0.7838,-0.6969,-0.6089,-0.5156,-0.4364,-0.3681,-0.31,-0.2666,-0.217,-0.1172,-0.0387,0.0418,-1.5267,-1.5267,-1.5161,-1.5283,-1.5541,-1.5902,-1.6138,-1.6184,-1.5419,-1.471,-1.4086,-1.2785,-1.171,-1.0825,-1.0319,-1.0145,-1.0199,-0.9679,-0.9329,-0.912,-0.8819,-0.8484,-0.8082,-0.8096,-0.8096,-0.8076,-0.7889,-0.7723,-0.753,-0.7268,-0.7052,-0.6918,-0.6918,-0.7101,-0.745,-0.8017,-0.8309,-0.8302,-0.8935,-0.9536,-1.0087,-1.0464,-1.0812,-1.1091,-1.1566,-1.1888,-1.2086,-1.234,-1.2463,-1.238,-1.2233,-1.2076,-1.1833,-1.1319,-1.0908,0.0,0.0,0.0,0.0,0.0,0.0,0.0,0.0,0.0,0.0,0.0,-0.9503,0.0,0.0,0.0,-0.9778,-0.9751,-0.96,-0.9303,-0.9058,-0.8648,-0.7985,-0.7524,-0.7248,-0.7308,-0.7193,-0.7342,-0.7992,-0.8182,-0.8288,-0.8433,-0.892,-0.9585,-1.0306,-1.0464,-1.0542,-1.077,-1.082,-1.0809,-1.0888,-1.0677,-1.043,-1.0019,-0.9702,-0.9287,-0.8703,-0.8222,-0.7588,-0.6635,-0.5948,-0.5182,-0.4222,-0.3541,-0.2884,-0.2237,-0.1772,-0.1361,-0.0828,-0.0172,0.0615,-1.4457,-1.4382,-1.4201,-1.4122,-1.4165,-1.4848,-1.5177,-1.524,-1.4689,-1.4057,-1.3396,-1.1773,-1.0621,-0.9944,-0.9753,-0.9568,-0.9428,-0.939,-0.9103,-0.8587,-0.8433,-0.8103,-0.7614,-0.758,-0.7563,-0.7557,-0.7283,-0.7079,-0.6923,-0.6463,-0.6191,-0.6046,-0.6046,-0.5968,-0.5891,-0.6756,-0.7321,-0.7616,-0.817,-0.8626,-0.8995,-0.9309,-0.9614,-0.9961,-1.0389,-1.0695,-1.0948,-1.1216,-1.1341,-1.1341,-1.1233,-1.1225,-1.1342,-1.0842,-1.0622,0.0,-1.0256,0.0,0.0,0.0,0.0,0.0,0.0,0.0,0.0,-0.9363,-0.9358,-0.9637,-0.9584,-0.954,-0.9496,-0.9519,-0.9377,-0.9032,-0.8796,-0.8382,-0.7666,-0.711,-0.6709,-0.6589,-0.6408,-0.651,-0.6954,-0.7053,-0.7089,-0.7126,-0.7179,-0.7568,-0.8514,-0.8886,-0.9003,-0.9025,-0.9005,-0.9011,-0.8928,-0.8871,-0.87,-0.8372,-0.8096,-0.7756,-0.7288,-0.68,-0.6222,-0.5413,-0.4792,-0.4106,-0.324,-0.2658,-0.2083,-0.1381,-0.0843,-0.0472,-0.0303,0.0202,0.0974,-1.3644,-1.3455,-1.3258,-1.3149,-1.3149,-1.3149,-1.3506,-1.4086,-1.3659,-1.2826,-1.1711,-1.064,-0.9971,-0.9645,-0.9185,-0.8964,-0.8926,-0.877,-0.8419,-0.7978,-0.7851,-0.7523,-0.7061,-0.6892,-0.6804,-0.6777,-0.6534,-0.629,-0.6046,-0.5691,-0.5391,-0.5144,-0.5144,-0.5117,0.0,0.0,0.0,0.0,-0.7423,-0.7691,-0.7984,-0.8421,-0.8653,-0.8732,-0.9223,0.0,-0.9588,-0.984,-0.9969,-0.9994,-0.9961,0.0,0.0,0.0,0.0,0.0,0.0,0.0,0.0,0.0,0.0,0.0,-0.8462,-0.855,-0.8859,-0.8911,-0.8911,-0.8909,-0.9121,-0.9168,-0.8968,-0.9045,-0.8911,-0.8425,-0.8086,-0.7634,-0.697,-0.6412,-0.6002,-0.5822,-0.5529,-0.5457,-0.5734,-0.5762,-0.5772,-0.5762,-0.5764,-0.5856,-0.6121,-0.6937,-0.7497,-0.753,-0.7481,-0.7508,-0.7477,-0.7314,-0.7186,-0.707,-0.6666,-0.6279,-0.5987,-0.545,-0.4907,-0.433,-0.3758,-0.3113,-0.2491,-0.2052,-0.1512,-0.0773,-0.0336,-0.0034,0.0269,0.0873,0.1613,-1.2917,0.0,-1.2321,-1.2157,0.0,-1.1855,-1.1885,-1.2174,-1.2365,-1.181,-1.0695,-1.0124,-0.9581,-0.9091,-0.8619,-0.8344,-0.8247,-0.8084,-0.7765,-0.7296,-0.7159,-0.6793,-0.6239,-0.6164,-0.6032,-0.5832,-0.566,-0.5445,-0.523,-0.4928,-0.4653,-0.446,-0.446,-0.446,-0.446,-0.4577,-0.5207,-0.6354,-0.648,-0.6691,-0.6966,-0.7268,-0.7536,-0.7756,0.0,0.0,0.0,0.0,0.0,0.0,0.0,0.0,0.0,0.0,0.0,-0.8901,-0.8737,-0.8611,-0.8536,-0.833,-0.8189,-0.8159,-0.7945,-0.7971,-0.8423,-0.839,-0.8348,-0.8311,-0.8398,-0.8449,-0.8371,-0.8361,-0.8209,-0.7879,-0.7526,-0.704,-0.6478,-0.5951,-0.5557,-0.5223,-0.4824,-0.4621,-0.4682,-0.4657,-0.4509,-0.4359,-0.43,-0.4268,-0.4239,-0.5245,-0.6058,-0.5874,-0.5783,-0.571,-0.571,-0.5638,-0.5545,-0.5418,-0.5164,-0.4854,-0.4515,-0.4162,-0.3725,-0.3186,-0.2721,-0.2285,-0.1647,-0.121,-0.0773,-0.0134,0.0336,0.0806,0.1244,0.1648,0.2118,-1.217,-1.2024,-1.1413,-1.1154,-1.1074,-1.0732,-1.0438,-1.0288,0.0,0.0,0.0,-0.9723,-0.924,-0.8507,-0.8044,-0.7761,-0.7568,-0.7363,-0.7071,-0.6628,-0.6467,-0.6108,-0.55,-0.544,-0.5264,-0.5022,-0.4821,-0.4668,-0.4501,-0.4206,-0.3996,-0.3858,-0.3855,-0.3855,-0.3885,-0.3999,-0.4439,-0.5234,-0.5477,-0.5719,-0.5964,-0.6077,-0.6381,-0.6783,-0.6939,-0.7235,-0.7578,-0.7732,-0.7898,-0.8129,-0.8135,-0.8209,-0.8335,-0.8335,-0.8382,-0.8461,-0.8461,-0.8408,-0.8249,-0.7972,-0.7759,-0.7599,-0.7262,-0.7321,-0.7928,-0.7803,-0.772,-0.7695,-0.7592,-0.7586,-0.7659,-0.7567,-0.7396,-0.7232,-0.6872,-0.6412,-0.5914,-0.5455,-0.4997,-0.4628,-0.4161,-0.3825,-0.3763,-0.3596,-0.3391,-0.3058,-0.2971,-0.2788,-0.27,-0.3723,-0.4564,-0.4343,-0.4199,-0.4064,-0.4023,-0.3997,-0.3887,-0.3832,-0.3689,-0.3449,-0.3088,-0.2889,-0.2586,-0.208,-0.1747,-0.1311,-0.0739,-0.0302,0.0101,0.0605,0.1109,0.1681,0.222,0.2488,0.2822,-1.1358,-1.0756,-1.0495,-1.0176,-0.9846,-0.9809,-0.9533,-0.9268,-0.9873,-0.99,-0.9412,-0.9217,-0.8775,-0.8128,-0.758,-0.7196,-0.6983,-0.6679,-0.6367,0.0,-0.583,-0.5518,-0.5158,-0.4877,-0.4716,-0.4627,-0.4247,-0.3961,-0.3831,-0.3632,-0.3411,-0.3244,-0.3241,-0.3327,-0.3469,-0.3497,-0.3635,-0.3885,-0.4522,-0.4932,-0.5089,-0.523,-0.5371,-0.5555,-0.585,-0.6127,-0.6426,-0.6588,-0.6788,-0.7095,-0.7095,-0.7171,-0.7295,-0.7321,-0.7273,-0.7171,-0.7171,-0.7085,-0.6912,-0.6831,-0.6691,-0.6453,-0.6295,-0.644,-0.7009,-0.7063,-0.6995,-0.6966,-0.691,-0.6887,-0.6849,-0.6681,-0.647,-0.6148,-0.5822,-0.5462,-0.5027,-0.4525,-0.4125,-0.3959,-0.346,-0.3056,-0.2887,-0.2582,-0.2316,-0.2084,-0.1916,-0.1681,-0.158,-0.2297,-0.2948,-0.2973,-0.2928,-0.2921,-0.2885,-0.2751,-0.2649,-0.2649,-0.2379,-0.2213,-0.2047,-0.1746,-0.1411,-0.1243,-0.0706,-0.0235,0.0134,0.0571,0.1008,0.1412,0.1882,0.2418,0.2991,0.3556,0.402,-1.0481,-1.0141,-0.9706,-0.9389,-0.9097,-0.8751,-0.847,-0.8203,-0.836,-0.8518,-0.8613,-0.8338,-0.7974,-0.7581,-0.6902,-0.6559,-0.6449,-0.6062,-0.5657,-0.5322,-0.5222,-0.4887,-0.4432,-0.4244,-0.4027,-0.3781,-0.358,-0.3403,-0.3271,-0.315,-0.3016,-0.2952,-0.291,-0.2912,-0.3026,-0.3026,-0.3051,-0.3137,-0.3749,-0.4162,-0.4319,-0.4436,-0.4601,-0.4846,-0.5093,-0.5363,-0.5714,-0.5773,-0.5968,-0.6268,-0.6295,-0.6349,-0.6404,-0.6376,-0.6376,-0.6327,-0.63,-0.6268,-0.6154,-0.5987,-0.5769,-0.5523,-0.5445,-0.5449,-0.5586,-0.5859,-0.6005,-0.5989,-0.5906,-0.5844,-0.5747,-0.5696,-0.5547,-0.5256,-0.4957,-0.4658,-0.4292,-0.3758,-0.3391,-0.3188,-0.2619,-0.2218,-0.2116,-0.1679,-0.1344,-0.1143,-0.084,-0.0504,-0.0336,-0.0671,-0.1108,-0.1411,-0.1511,-0.1511,-0.151,-0.1443,-0.1376,-0.1377,-0.1242,-0.1074,-0.094,-0.0605,-0.0403,-0.0101,0.0336,0.0672,0.0941,0.1444,0.1915,0.2318,0.2787,0.3322,0.3892,0.4722,0.5385,-0.9592,-0.948,-0.8968,-0.8542,-0.8199,-0.7665,-0.7361,-0.7211,-0.6945,-0.7099,-0.7464,-0.7338,-0.7145,-0.6859,-0.6207,-0.5883,-0.5796,-0.539,-0.496,-0.4631,-0.4597,-0.4276,-0.3776,-0.3669,-0.3434,-0.308,-0.2997,-0.2863,-0.2756,-0.2653,-0.26,-0.258,-0.2522,-0.2484,-0.2521,-0.2493,-0.2493,-0.2521,-0.2968,-0.333,-0.3549,-0.3688,-0.3879,-0.4156,-0.4325,-0.457,-0.4952,-0.5003,-0.5171,-0.5473,-0.5532,-0.5559,-0.5609,-0.5609,-0.5582,-0.5559,-0.5527,-0.5473,-0.5391,-0.5171,-0.4924,-0.4677,-0.4622,-0.4515,-0.4328,-0.4574,-0.4862,-0.5007,-0.4961,-0.486,-0.4742,-0.4742,-0.4688,-0.4359,-0.4087,-0.3823,-0.3558,-0.3056,-0.2619,-0.2385,-0.1781,-0.1344,-0.1244,-0.084,-0.0403,-0.0067,0.0269,0.0538,0.0638,0.0773,0.0571,0.0235,-0.0101,-0.0302,-0.0269,-0.0202,-0.0168,-0.0134,-0.0067,0.0101,0.0302,0.0403,0.0571,0.0974,0.1276,0.1612,0.1915,0.2383,0.2818,0.3222,0.3723,0.4289,0.5024,0.5881,0.6581,-0.8729,-0.8335,-0.8108,-0.7533,-0.6893,-0.65,-0.6363,-0.6279,-0.5931,-0.5777,-0.5928,-0.6426,-0.6457,-0.6094,-0.5603,-0.5284,-0.5055,-0.4613,-0.4295,-0.4061,-0.3961,-0.3754,-0.3478,-0.3211,-0.3074,-0.2951,-0.2565,-0.2376,-0.2308,-0.2087,-0.1966,-0.1886,-0.1875,-0.1904,-0.1883,-0.1905,-0.1875,-0.1875,-0.1959,-0.2238,-0.2775,-0.2935,-0.3072,-0.3213,-0.3441,-0.3635,-0.3959,-0.4073,-0.427,-0.4601,-0.4739,-0.4849,-0.4956,-0.4979,-0.4928,-0.4798,-0.4684,-0.4491,-0.4215,-0.4132,-0.4049,-0.3907,-0.3793,-0.3658,-0.3504,-0.3332,-0.3529,-0.4054,-0.4252,-0.4201,-0.4088,-0.3984,-0.382,-0.3587,-0.3153,-0.282,-0.272,-0.215,-0.1715,-0.1715,-0.1075,-0.0605,-0.0538,-0.0034,0.0571,0.1008,0.1176,0.1344,0.1647,0.1748,0.1816,0.1681,0.1143,0.0538,0.0504,0.0739,0.0907,0.0974,0.121,0.1344,0.1445,0.1579,0.1782,0.1946,0.2316,0.2653,0.2989,0.3391,0.3754,0.4154,0.4652,0.5286,0.6243,0.6966,0.7358,-0.7716,-0.7516,-0.7211,-0.6659,-0.5996,-0.5686,-0.5538,-0.547,-0.5201,-0.5007,-0.4888,-0.5049,-0.5214,-0.5381,-0.4995,-0.4689,-0.443,-0.407,-0.3712,-0.3395,-0.3224,-0.3056,-0.2825,-0.2622,-0.2455,-0.2353,-0.216,-0.195,-0.171,-0.1476,-0.134,-0.1276,-0.1271,-0.1281,-0.1273,-0.127,-0.1258,-0.1261,-0.1288,-0.1428,-0.1766,-0.2238,-0.2573,-0.2742,-0.2884,-0.3077,-0.3269,-0.3325,-0.3461,-0.3658,-0.3858,-0.3968,-0.4021,-0.4021,-0.3993,-0.3938,-0.3769,-0.3574,-0.3378,-0.3352,-0.3241,-0.3049,-0.2993,-0.2873,-0.2646,-0.2537,-0.2561,-0.2714,-0.3103,-0.3305,-0.3127,-0.3039,-0.2885,-0.2586,-0.2251,-0.2016,-0.1882,-0.1311,-0.0941,-0.0907,-0.0336,0.0101,0.0202,0.0706,0.1344,0.1848,0.2048,0.2217,0.252,0.2621,0.2757,0.2854,0.2551,0.2112,0.1745,0.1847,0.2014,0.2082,0.2149,0.2251,0.2452,0.2554,0.2721,0.2883,0.332,0.362,0.3787,0.4256,0.4688,0.5084,0.5716,0.6412,0.7162,0.7712,0.8134,-0.6697,-0.6631,-0.6242,-0.5698,-0.5117,-0.489,-0.4738,-0.4663,-0.4438,-0.4231,-0.4031,-0.3841,-0.3958,-0.4249,-0.4199,-0.4038,-0.378,-0.3445,-0.3115,-0.2788,-0.2563,-0.2388,-0.2188,-0.2018,-0.1849,-0.1681,-0.1647,-0.1412,-0.104,-0.089,-0.0772,-0.0659,-0.0657,-0.0647,-0.0628,-0.0651,-0.067,-0.0712,-0.0705,-0.0813,-0.1038,-0.1513,-0.1933,-0.2214,-0.2382,-0.2491,-0.2571,-0.2625,-0.2683,-0.2796,-0.2965,-0.3049,-0.3077,-0.3079,-0.3049,-0.3021,-0.288,-0.274,-0.2597,-0.2599,-0.249,-0.2298,-0.2201,-0.2066,-0.1877,-0.1822,-0.1691,-0.153,-0.1879,-0.2117,-0.2189,-0.2124,-0.1946,-0.1648,-0.1412,-0.121,-0.1041,-0.0538,-0.0235,-0.0168,0.037,0.0907,0.1142,0.1578,0.2116,0.2684,0.2919,0.3088,0.3322,0.3456,0.3556,0.3787,0.3823,0.3522,0.2954,0.2921,0.3054,0.3088,0.3088,0.322,0.3389,0.3525,0.3692,0.3951,0.4353,0.4655,0.4818,0.5186,0.5679,0.6137,0.6736,0.7363,0.7972,0.8452,0.8973,-0.5764,-0.5656,-0.5111,-0.4631,-0.4177,-0.4016,-0.394,-0.3917,-0.3604,-0.337,-0.3173,-0.2981,-0.2785,-0.2701,-0.3142,-0.3215,-0.3037,-0.273,-0.2454,-0.223,-0.2011,-0.1817,-0.1614,-0.1412,-0.1277,-0.1143,-0.0974,-0.0706,-0.0371,-0.0336,-0.0232,-0.0065,-0.0064,-0.0032,0.0,-0.003,-0.0088,-0.0205,-0.0228,-0.0393,-0.0645,-0.0757,-0.1066,-0.1542,-0.1764,-0.1846,-0.1874,-0.1986,-0.2043,-0.2043,-0.2184,-0.2266,-0.2268,-0.2268,-0.2211,-0.2071,-0.2043,-0.1986,-0.1874,-0.1846,-0.1792,-0.1631,-0.1442,-0.1295,-0.1131,-0.1085,-0.0958,-0.0741,-0.0693,-0.0869,-0.1204,-0.1273,-0.1176,-0.0873,-0.0672,-0.047,-0.0336,0.0168,0.0403,0.0571,0.1109,0.1781,0.245,0.2619,0.2987,0.3489,0.3723,0.3856,0.4123,0.422,0.432,0.4489,0.4595,0.4495,0.3925,0.3859,0.3925,0.3959,0.409,0.4253,0.4422,0.4556,0.4722,0.4924,0.5223,0.5521,0.5785,0.621,0.6728,0.7186,0.7582,0.8172,0.8748,0.9166,0.9652,-0.4699,-0.4516,-0.4174,-0.3824,-0.3466,-0.3244,-0.3133,-0.3049,-0.2939,-0.2742,-0.2512,-0.2314,-0.2119,-0.1923,-0.1985,-0.2151,-0.2381,-0.2151,-0.1919,-0.1687,-0.1352,-0.1163,-0.1076,-0.0808,-0.064,-0.0572,-0.0403,-0.0168,0.0067,0.0169,0.0235,0.03,0.0332,0.0327,0.0351,0.0314,0.0279,0.0243,0.0265,0.0145,-0.0058,-0.0085,-0.028,-0.0589,-0.098,-0.1233,-0.1233,-0.1261,-0.1289,-0.1289,-0.1429,-0.1485,-0.1513,-0.1485,-0.1429,-0.1317,-0.1289,-0.1261,-0.1205,-0.1148,-0.1018,-0.0867,-0.0701,-0.0541,-0.0404,-0.0351,-0.0227,0.0,0.01,0.0101,0.0168,-0.0067,-0.0202,0.0,0.0202,0.0437,0.0706,0.1008,0.1244,0.1445,0.1949,0.2586,0.3155,0.3389,0.3656,0.4189,0.4395,0.4558,0.4755,0.4924,0.5057,0.5219,0.5388,0.5458,0.5418,0.5024,0.4894,0.4894,0.4957,0.5054,0.519,0.5355,0.5521,0.5745,0.6017,0.6383,0.6675,0.7097,0.7614,0.8107,0.8538,0.8888,0.9498,0.9843,1.0288,-0.3673,-0.3449,-0.3274,-0.3024,-0.2677,-0.2441,-0.2309,-0.22,-0.2169,-0.2055,-0.1786,-0.1615,-0.1491,-0.1257,-0.1061,-0.1168,-0.1492,-0.1482,-0.1338,-0.1043,-0.0777,-0.059,-0.0409,-0.0203,-0.0067,0.0067,0.0269,0.0437,0.0606,0.0707,0.0809,0.0841,0.0876,0.0868,0.0852,0.0843,0.0829,0.0781,0.0759,0.0685,0.053,0.049,0.0396,0.0253,-0.0112,-0.0421,-0.0589,-0.0617,-0.0589,-0.0617,-0.0701,-0.0757,-0.0757,-0.0757,-0.0701,-0.0617,-0.0624,-0.0598,-0.06,-0.0518,-0.0351,-0.009,0.0,0.0124,0.0321,0.0358,0.0528,0.077,0.0873,0.1041,0.1277,0.1176,0.0941,0.0907,0.1041,0.1277,0.1612,0.1814,0.2118,0.2485,0.282,0.3355,0.3923,0.4095,0.4392,0.4858,0.506,0.5226,0.5422,0.562,0.5789,0.5914,0.605,0.6247,0.6309,0.6115,0.5822,0.5785,0.5686,0.5785,0.5951,0.6119,0.6317,0.6572,0.6868,0.7237,0.7596,0.7982,0.8436,0.8926,0.9215,0.953,1.0009,1.0453,1.0895,-0.2735,-0.2513,-0.2469,-0.2242,-0.1829,-0.1757,-0.1564,-0.1332,-0.1331,-0.1185,-0.097,-0.0874,-0.0787,-0.0589,-0.0393,-0.0314,-0.039,-0.0652,-0.0644,-0.0374,-0.0288,-0.007,0.0244,0.0308,0.0506,0.0807,0.1008,0.1176,0.1277,0.1312,0.1412,0.1547,0.1547,0.1545,0.1578,0.154,0.1485,0.1345,0.1316,0.122,0.1037,0.1034,0.1018,0.0936,0.0876,0.0622,0.0085,0.0028,0.0,0.0,0.0,0.0,0.0,0.0,0.0,0.0028,0.0,0.0,0.003,0.0091,0.0306,0.0557,0.0634,0.0769,0.1037,0.1091,0.124,0.1511,0.1613,0.1782,0.2119,0.2253,0.2119,0.1748,0.1782,0.2051,0.235,0.2584,0.2987,0.3556,0.3792,0.409,0.4595,0.4831,0.5027,0.5455,0.5719,0.5921,0.6115,0.6284,0.6445,0.6609,0.6712,0.6843,0.704,0.7138,0.6843,0.6613,0.6482,0.6478,0.6675,0.6876,0.7036,0.7293,0.7652,0.8019,0.8398,0.8786,0.9075,0.9498,0.9792,1.0142,1.0618,1.1059,1.1466,-0.1973,-0.175,-0.1615,-0.1436,-0.13,-0.1113,-0.0882,-0.0652,-0.06,-0.0503,-0.0286,-0.0081,0.0,0.0079,0.0236,0.0393,0.051,0.0389,0.0269,0.0189,0.0261,0.0471,0.0668,0.0834,0.1096,0.1483,0.1614,0.1748,0.1884,0.1918,0.1951,0.1985,0.2018,0.2018,0.2017,0.2,0.1958,0.1919,0.1872,0.1805,0.1754,0.1751,0.1754,0.174,0.1737,0.1558,0.1255,0.0861,0.0653,0.0666,0.0667,0.0704,0.0746,0.075,0.075,0.0751,0.0756,0.0761,0.0762,0.0861,0.103,0.1236,0.1381,0.1563,0.1821,0.1839,0.2017,0.2284,0.2351,0.252,0.2824,0.306,0.2924,0.2418,0.2554,0.279,0.3123,0.3391,0.3859,0.4361,0.4495,0.4758,0.519,0.5458,0.569,0.5984,0.6276,0.6511,0.6679,0.6843,0.7036,0.7228,0.7297,0.74,0.7563,0.7754,0.7652,0.7428,0.7297,0.7199,0.74,0.7563,0.7754,0.8042,0.8404,0.8791,0.9172,0.9492,0.9754,1.0136,1.046,1.087,1.1286,1.163,1.1996,-0.1256,-0.0987,-0.0897,-0.0718,-0.0538,-0.0359,-0.0134,0.0044,0.0175,0.03,0.046,0.0661,0.0732,0.0719,0.0915,0.1069,0.118,0.1258,0.1169,0.0997,0.0911,0.104,0.1225,0.1447,0.1704,0.2084,0.2162,0.2285,0.2488,0.249,0.2522,0.2555,0.2557,0.2557,0.2557,0.2555,0.2557,0.2582,0.2512,0.2507,0.2476,0.2435,0.2368,0.2345,0.228,0.2188,0.2029,0.1689,0.1409,0.1224,0.1199,0.1241,0.1355,0.1356,0.1388,0.1452,0.1465,0.1474,0.1477,0.1589,0.1702,0.1894,0.2063,0.2242,0.2447,0.2522,0.269,0.2922,0.3056,0.3224,0.346,0.3658,0.3658,0.3522,0.3389,0.356,0.3897,0.4228,0.4592,0.499,0.5156,0.5425,0.5785,0.6119,0.635,0.6544,0.6839,0.7073,0.7237,0.7433,0.7624,0.7782,0.7889,0.7987,0.8117,0.8279,0.8431,0.8269,0.8079,0.8047,0.8084,0.8214,0.8339,0.8721,0.9081,0.937,0.9754,1.0009,1.0269,1.0681,1.1066,1.1404,1.1716,1.2027,1.2398,-0.0538,-0.0359,-0.0314,0.0,0.0359,0.0448,0.0582,0.0759,0.1011,0.113,0.1208,0.1358,0.1456,0.1432,0.1629,0.1772,0.17,0.1896,0.2047,0.2026,0.1882,0.1778,0.187,0.2124,0.2397,0.2622,0.2734,0.287,0.3044,0.3064,0.3092,0.3192,0.3192,0.3226,0.3192,0.3226,0.3192,0.319,0.3186,0.3177,0.3111,0.3003,0.2935,0.2896,0.2742,0.2622,0.2592,0.2487,0.2196,0.1668,0.1611,0.1712,0.1831,0.1857,0.1931,0.2126,0.2136,0.2158,0.2144,0.2238,0.2339,0.2476,0.2643,0.282,0.3021,0.3159,0.3326,0.356,0.3727,0.3892,0.4059,0.4225,0.4456,0.4728,0.4395,0.4361,0.4761,0.5024,0.5289,0.5617,0.5851,0.6057,0.6416,0.6716,0.6975,0.7204,0.7498,0.7661,0.7824,0.8019,0.8177,0.8306,0.8409,0.8474,0.8538,0.8727,0.8882,0.8882,0.8753,0.8759,0.8732,0.8797,0.8958,0.9338,0.9658,0.9983,1.0238,1.0491,1.0744,1.1066,1.1435,1.1809,1.2143,1.2428,1.2767,0.0224,0.0404,0.0628,0.0807,0.0942,0.1076,0.1256,0.148,0.1561,0.1718,0.1872,0.2117,0.2171,0.213,0.2376,0.2553,0.2591,0.2701,0.2751,0.2868,0.2963,0.2728,0.2605,0.2825,0.3101,0.3263,0.3332,0.3494,0.3662,0.3599,0.3598,0.3625,0.3663,0.3625,0.3625,0.3658,0.3625,0.3625,0.3627,0.3649,0.3623,0.3581,0.3574,0.3551,0.3475,0.3344,0.3222,0.3091,0.2797,0.2367,0.2376,0.2397,0.2456,0.2455,0.2549,0.272,0.2772,0.2825,0.2895,0.2911,0.3025,0.3194,0.3261,0.3426,0.3694,0.3761,0.3961,0.4195,0.4359,0.4492,0.4725,0.4855,0.512,0.5458,0.5259,0.5193,0.5491,0.569,0.5888,0.6313,0.6544,0.6745,0.6975,0.7265,0.7563,0.7754,0.7949,0.8172,0.8344,0.8538,0.8662,0.8753,0.8823,0.8856,0.8952,0.9172,0.9326,0.9358,0.9396,0.9472,0.9408,0.9382,0.9574,0.9824,1.0149,1.0434,1.0688,1.0902,1.1192,1.1474,1.1879,1.2305,1.2552,1.2828,1.3155,0.0897,0.1166,0.1301,0.148,0.157,0.1795,0.1974,0.2109,0.2331,0.2451,0.2603,0.2819,0.2917,0.2902,0.3154,0.3285,0.3347,0.3421,0.3539,0.3625,0.3777,0.3655,0.3408,0.3523,0.3663,0.3834,0.3855,0.3952,0.4069,0.4082,0.4102,0.4191,0.4216,0.4225,0.4228,0.4225,0.4228,0.4228,0.4228,0.4225,0.4225,0.4095,0.3995,0.3961,0.3894,0.3727,0.3627,0.3491,0.3263,0.2938,0.2898,0.2956,0.3025,0.3025,0.3125,0.3324,0.3324,0.3355,0.3426,0.3493,0.3594,0.373,0.3828,0.4028,0.4228,0.4359,0.4592,0.4755,0.4921,0.512,0.5286,0.5488,0.5822,0.6152,0.6185,0.6185,0.6251,0.6288,0.6486,0.6843,0.7106,0.7302,0.7531,0.7824,0.809,0.8317,0.8463,0.863,0.8791,0.899,0.9119,0.9177,0.9306,0.937,0.9402,0.9594,0.9684,0.9748,0.9881,0.9983,0.9951,0.9894,1.0053,1.0308,1.06,1.0884,1.1097,1.131,1.163,1.1972,1.2375,1.2713,1.295,1.3194,1.3519,0.148,0.1885,0.1929,0.2063,0.2333,0.2512,0.2647,0.2736,0.3048,0.327,0.3355,0.3583,0.3675,0.3617,0.3875,0.3961,0.3922,0.4086,0.4235,0.4311,0.4428,0.4369,0.4279,0.4067,0.414,0.431,0.4254,0.4354,0.4532,0.458,0.4633,0.4709,0.4789,0.4797,0.473,0.4746,0.4794,0.4728,0.4661,0.4661,0.4628,0.4464,0.4364,0.4298,0.4128,0.4025,0.3961,0.3925,0.3787,0.3391,0.3328,0.3362,0.3496,0.3531,0.3663,0.3828,0.3889,0.3892,0.3925,0.4025,0.4095,0.4161,0.4425,0.4658,0.4728,0.4924,0.512,0.5286,0.5514,0.565,0.5815,0.6185,0.6515,0.6773,0.704,0.7068,0.6937,0.6942,0.7077,0.7265,0.7596,0.7824,0.8084,0.8349,0.8614,0.8732,0.8888,0.9049,0.921,0.937,0.9466,0.953,0.9722,0.9919,0.9951,0.9983,1.0047,1.0136,1.0238,1.0333,1.0364,1.0364,1.0523,1.0751,1.0979,1.1199,1.1404,1.1685,1.2034,1.2344,1.2683,1.3011,1.3338,1.3558,1.383,0.2244,0.2379,0.2735,0.2914,0.3004,0.3274,0.3451,0.3583,0.3715,0.3896,0.4076,0.4346,0.4423,0.4402,0.4612,0.4704,0.466,0.473,0.481,0.4909,0.5001,0.5114,0.505,0.476,0.4668,0.4824,0.4884,0.5018,0.5169,0.5116,0.5149,0.5131,0.5091,0.5049,0.5043,0.4922,0.4794,0.4794,0.4797,0.4827,0.4827,0.4728,0.4664,0.4628,0.4561,0.4561,0.4597,0.4595,0.4531,0.4361,0.3992,0.3794,0.3897,0.3897,0.4061,0.4292,0.4392,0.4425,0.4561,0.4595,0.4628,0.4661,0.4858,0.5057,0.5226,0.5388,0.565,0.5881,0.6046,0.621,0.6474,0.6806,0.7068,0.7293,0.7493,0.7699,0.7787,0.7657,0.7661,0.7917,0.8144,0.8382,0.8571,0.8759,0.899,0.9145,0.9323,0.944,0.9624,0.9809,0.9898,0.9968,1.0065,1.0232,1.0174,1.0251,1.041,1.0546,1.0687,1.0914,1.0939,1.083,1.0946,1.1115,1.1269,1.1512,1.1755,1.2081,1.239,1.2674,1.295,1.3277,1.358,1.386,1.41,0.296,0.3093,0.3419,0.3537,0.3583,0.3944,0.4168,0.43,0.4387,0.4476,0.461,0.479,0.4837,0.4837,0.5099,0.5198,0.5323,0.5486,0.5606,0.5645,0.5664,0.5685,0.572,0.5526,0.5374,0.5299,0.5295,0.5416,0.5494,0.551,0.5469,0.5493,0.5435,0.5444,0.5418,0.5264,0.5209,0.5184,0.5092,0.5063,0.5063,0.496,0.4861,0.4794,0.4794,0.4794,0.4761,0.4794,0.4794,0.4731,0.4495,0.4292,0.4364,0.4395,0.4495,0.4628,0.4691,0.4758,0.4894,0.5027,0.5126,0.516,0.5355,0.5554,0.5752,0.5918,0.6115,0.6375,0.6576,0.6806,0.7138,0.7302,0.7563,0.7814,0.7959,0.8229,0.8488,0.832,0.8187,0.8436,0.8603,0.8829,0.8985,0.9209,0.9347,0.9558,0.9923,1.0066,1.0161,1.0345,1.0398,1.0463,1.049,1.0516,1.041,1.0493,1.075,1.0928,1.112,1.1486,1.1763,1.1585,1.1393,1.1502,1.1626,1.1902,1.2166,1.249,1.275,1.3064,1.3338,1.358,1.3851,1.413,1.4339,0.3716,0.3898,0.4051,0.4105,0.4181,0.4548,0.4764,0.4837,0.5013,0.5144,0.5188,0.5186,0.5322,0.5277,0.5458,0.5633,0.5824,0.6075,0.6186,0.6165,0.6171,0.6158,0.6139,0.6131,0.6034,0.5789,0.5716,0.5704,0.5755,0.5755,0.5839,0.5809,0.5798,0.5771,0.577,0.5701,0.5585,0.5537,0.5456,0.544,0.542,0.5265,0.5098,0.496,0.493,0.4964,0.4964,0.496,0.496,0.4927,0.4964,0.4964,0.496,0.4897,0.4927,0.4927,0.4994,0.5123,0.5289,0.5422,0.5591,0.5716,0.5918,0.6083,0.6247,0.6412,0.6646,0.6889,0.7133,0.7503,0.778,0.8006,0.8162,0.841,0.8602,0.8882,0.9159,0.9003,0.8986,0.9035,0.9268,0.9489,0.9613,0.9751,0.9841,0.9985,1.0337,1.0649,1.0747,1.0819,1.0901,1.0908,1.0916,1.0989,1.0935,1.1045,1.1242,1.1486,1.1657,1.2049,1.245,1.2446,1.2208,1.1924,1.2023,1.2297,1.2522,1.275,1.3078,1.342,1.37,1.3911,1.4151,1.4428,1.4597,0.4549,0.478,0.5047,0.5088,0.5014,0.5098,0.5229,0.5292,0.5505,0.5725,0.5902,0.6074,0.6118,0.6166,0.6207,0.6254,0.6287,0.6389,0.6427,0.6449,0.6476,0.6501,0.6528,0.6544,0.6523,0.6447,0.628,0.6132,0.6149,0.6192,0.614,0.6148,0.603,0.5993,0.5952,0.585,0.5769,0.5762,0.5708,0.5684,0.5664,0.5561,0.5464,0.5353,0.5349,0.5339,0.5352,0.5402,0.5484,0.5488,0.5624,0.5701,0.5656,0.5459,0.5416,0.5422,0.5554,0.5657,0.5752,0.5951,0.605,0.6178,0.6375,0.6544,0.6675,0.6922,0.7188,0.7518,0.7836,0.8226,0.8438,0.8722,0.9095,0.9318,0.9462,0.9668,0.9892,0.9978,0.9942,0.996,1.0063,1.0134,1.0196,1.0288,1.0415,1.0562,1.0837,1.1043,1.1123,1.1252,1.132,1.1328,1.1295,1.1417,1.1526,1.1701,1.187,1.2126,1.2325,1.2557,1.295,1.3202,1.3107,1.2856,1.264,1.2726,1.2925,1.3155,1.3414,1.3804,1.4017,1.4216,1.4398,1.4597,1.4813,0.517,0.5261,0.5493,0.5628,0.5665,0.5747,0.5874,0.604,0.6061,0.6121,0.6254,0.634,0.6428,0.6428,0.6428,0.6473,0.6612,0.6745,0.6741,0.6804,0.6802,0.6857,0.6857,0.6863,0.6842,0.6778,0.6652,0.6504,0.6488,0.6407,0.6416,0.6375,0.622,0.6152,0.6115,0.5996,0.5932,0.5911,0.5854,0.5806,0.5842,0.5799,0.5863,0.5922,0.5893,0.5938,0.5935,0.5966,0.6035,0.6042,0.6111,0.6176,0.6169,0.6188,0.6094,0.5903,0.5966,0.6127,0.6189,0.6346,0.6478,0.6576,0.6815,0.7003,0.7166,0.7456,0.7894,0.8349,0.8683,0.9039,0.9227,0.9447,0.9689,0.995,1.0107,1.0318,1.0607,1.0779,1.0841,1.0801,1.0728,1.0673,1.0657,1.0788,1.0964,1.1179,1.1375,1.1449,1.1552,1.1633,1.173,1.172,1.1714,1.1895,1.2047,1.2268,1.251,1.2726,1.2996,1.324,1.3512,1.3824,1.3956,1.3854,1.3656,1.3555,1.3715,1.4056,1.413,1.4219,1.4496,1.4717,1.4678,1.4775,1.5085,0.5762,0.5853,0.5954,0.614,0.6295,0.6397,0.655,0.6667,0.6571,0.6507,0.6476,0.652,0.6564,0.6564,0.6561,0.6697,0.6881,0.701,0.7051,0.7048,0.7041,0.7088,0.7092,0.7085,0.7024,0.6937,0.6913,0.6832,0.6675,0.6569,0.6529,0.6478,0.6416,0.6344,0.631,0.6149,0.6098,0.6112,0.604,0.5961,0.6002,0.6104,0.6226,0.638,0.6412,0.6362,0.6304,0.6442,0.6481,0.6517,0.66,0.6647,0.6694,0.6952,0.6853,0.6447,0.6425,0.6526,0.6668,0.6911,0.7118,0.7194,0.7407,0.7598,0.7864,0.8248,0.8687,0.9278,0.9593,0.9774,0.9932,1.006,1.0266,1.0561,1.0727,1.0822,1.1162,1.1395,1.1488,1.1431,1.1298,1.1246,1.1253,1.1391,1.1598,1.1611,1.1803,1.1859,1.1935,1.2035,1.2107,1.2123,1.217,1.2347,1.2549,1.2851,1.3099,1.3371,1.364,1.3882,1.4183,1.4495,1.46,1.4719,1.4849,1.4779,1.4888,1.4858,1.4862,1.4921,1.5146,1.5321,1.5416,1.5493,1.5643,0.6567,0.7015,0.6994,0.7024,0.6967,0.6985,0.6894,0.6749,0.6907,0.6863,0.6783,0.6938,0.6989,0.6996,0.6989,0.7023,0.7068,0.7115,0.7125,0.7125,0.7105,0.7095,0.7095,0.7095,0.7085,0.7041,0.7051,0.6906,0.679,0.6705,0.6675,0.6641,0.6532,0.6487,0.6513,0.6407,0.6349,0.6493,0.6503,0.65,0.6507,0.6522,0.6526,0.6516,0.6518,0.6569,0.6656,0.6841,0.6973,0.6993,0.7298,0.7428,0.7491,0.7491,0.7624,0.7575,0.7566,0.746,0.7491,0.7664,0.7864,0.7963,0.823,0.8563,0.8837,0.9114,0.9475,0.9666,1.0006,1.0312,1.0611,1.0833,1.1114,1.1291,1.1417,1.1449,1.1654,1.1767,1.1881,1.1924,1.1772,1.1794,1.184,1.2025,1.2211,1.2218,1.2218,1.2218,1.2261,1.2308,1.2482,1.2508,1.2662,1.2821,1.3061,1.336,1.3618,1.3912,1.4185,1.4458,1.4778,1.507,1.5429,1.5556,1.5713,1.5667,1.5423,1.5362,1.547,1.5615,1.5803,1.6049,1.6316,1.6333,1.621,0.7138,0.7185,0.7185,0.7257,0.7392,0.7317,0.7311,0.7341,0.7346,0.733,0.7273,0.7358,0.7355,0.7383,0.74,0.7404,0.738,0.7309,0.7272,0.7241,0.72,0.7105,0.7095,0.7095,0.7095,0.7105,0.7092,0.7055,0.6946,0.6865,0.6788,0.6803,0.6726,0.6726,0.6797,0.6778,0.6817,0.6856,0.6839,0.6835,0.6935,0.7064,0.7108,0.7186,0.729,0.7319,0.7393,0.7476,0.7629,0.7666,0.7925,0.8037,0.8111,0.8259,0.8439,0.8508,0.855,0.8398,0.8163,0.8356,0.8467,0.8659,0.8921,0.9184,0.9611,0.9916,1.0241,1.0526,1.073,1.101,1.123,1.1378,1.157,1.1787,1.1918,1.1961,1.2035,1.2077,1.2174,1.2224,1.2251,1.228,1.2282,1.233,1.2358,1.2265,1.2258,1.2258,1.2338,1.2432,1.2673,1.2945,1.3135,1.3339,1.3598,1.385,1.4055,1.4327,1.4542,1.4851,1.5267,1.5611,1.5903,1.6105,1.6192,1.6091,1.5877,1.601,1.6218,1.6331,1.6431,1.6621,1.6748,1.665,1.6556,0.759,0.7388,0.7385,0.754,0.7686,0.7576,0.7654,0.7794,0.7695,0.7631,0.7604,0.7587,0.7587,0.7597,0.758,0.7563,0.758,0.7525,0.7484,0.7383,0.7326,0.7233,0.723,0.7206,0.7207,0.7149,0.7109,0.7126,0.7146,0.7131,0.707,0.7016,0.6957,0.7017,0.7159,0.7184,0.7145,0.7258,0.7355,0.7419,0.756,0.7708,0.7865,0.8,0.8168,0.8245,0.8245,0.8322,0.8347,0.8338,0.8519,0.8647,0.8699,0.8906,0.9133,0.9203,0.9321,0.9331,0.9098,0.9088,0.9108,0.9317,0.9573,0.9946,1.0308,1.0609,1.0827,1.115,1.1286,1.1533,1.1706,1.1781,1.1855,1.2042,1.2199,1.2287,1.2401,1.2494,1.2581,1.2661,1.2674,1.2645,1.2621,1.2567,1.2505,1.2345,1.2305,1.2355,1.2479,1.2647,1.2884,1.3185,1.3419,1.3637,1.3884,1.4173,1.4425,1.4713,1.49,1.5185,1.5549,1.5903,1.6202,1.6412,1.6577,1.6713,1.6649,1.6837,1.6989,1.7013,1.7059,1.7044,1.7093,1.6996,1.6999,0.7942,0.7939,0.7939,0.7942,0.7939,0.7978,0.7894,0.7834,0.7807,0.7733,0.7651,0.7614,0.7638,0.7624,0.7651,0.7645,0.7614,0.7594,0.7587,0.758,0.7567,0.7519,0.7478,0.7407,0.7398,0.7378,0.7316,0.7337,0.7425,0.7487,0.7452,0.7423,0.7325,0.7396,0.7504,0.7552,0.765,0.7786,0.7975,0.8171,0.8297,0.8423,0.8585,0.864,0.8653,0.8668,0.8698,0.8889,0.9014,0.9014,0.9221,0.9341,0.9448,0.9625,0.9811,0.9931,1.0078,1.0165,1.0153,0.991,0.9905,1.0151,1.0427,1.0666,1.0966,1.1218,1.1446,1.1652,1.1802,1.1902,1.1969,1.2022,1.2221,1.2368,1.2563,1.2661,1.2786,1.2933,1.3026,1.3113,1.3073,1.2953,1.2926,1.2879,1.2779,1.2632,1.2678,1.2729,1.2858,1.3,1.3145,1.3367,1.363,1.3863,1.4093,1.4346,1.4641,1.4971,1.5256,1.547,1.5761,1.6105,1.6447,1.6726,1.6899,1.7176,1.7348,1.7285,1.7345,1.756,1.7634,1.7538,1.7566,1.7555,1.7637,0.7988,0.7988,0.7988,0.7988,0.7988,0.7988,0.7958,0.796,0.7901,0.7877,0.7813,0.7823,0.7868,0.7865,0.7823,0.7823,0.7806,0.776,0.7743,0.7695,0.7658,0.7611,0.7567,0.7607,0.7602,0.7727,0.7668,0.7784,0.8024,0.7967,0.8012,0.8001,0.7889,0.7821,0.7919,0.8063,0.8241,0.8401,0.8545,0.8649,0.8846,0.901,0.9169,0.9308,0.9492,0.9496,0.9561,0.9771,0.985,0.9948,1.014,1.0208,1.0276,1.0433,1.0589,1.0707,1.0818,1.098,1.0989,1.068,1.0406,1.0738,1.0993,1.1248,1.1484,1.1721,1.1967,1.2145,1.2312,1.2466,1.2692,1.275,1.2828,1.2861,1.2933,1.3038,1.3139,1.3247,1.3313,1.336,1.3267,1.314,1.3153,1.3166,1.3053,1.2939,1.2995,1.3088,1.3227,1.3414,1.359,1.3748,1.3985,1.4225,1.4457,1.4692,1.4924,1.5279,1.566,1.5961,1.6226,1.6316,1.6621,1.6934,1.7241,1.748,1.7618,1.7548,1.7613,1.7725,1.7828,1.7891,1.7944,1.8008,1.8008,0.7988,0.7988,0.7988,0.7988,0.7988,0.7988,0.7988,0.7988,0.7985,0.7988,0.7988,0.7988,0.7988,0.7988,0.7982,0.7978,0.7941,0.7877,0.7889,0.7848,0.7797,0.7784,0.7811,0.7882,0.7949,0.8128,0.8121,0.8232,0.8439,0.8406,0.8555,0.8687,0.8599,0.8605,0.8428,0.8659,0.8918,0.9092,0.919,0.9229,0.9447,0.9702,0.991,1.0098,1.0223,1.0336,1.0376,1.0552,1.0613,1.0694,1.0871,1.102,1.1152,1.1284,1.141,1.1491,1.1571,1.1692,1.1659,1.148,1.1206,1.1578,1.1681,1.1897,1.2062,1.228,1.246,1.268,1.289,1.3061,1.3227,1.31,1.3074,1.308,1.3207,1.3333,1.34,1.3507,1.3547,1.3581,1.3514,1.3534,1.3547,1.3561,1.3347,1.3279,1.3326,1.3448,1.355,1.3796,1.4097,1.4252,1.4449,1.4678,1.4864,1.5246,1.5622,1.6043,1.6381,1.6603,1.6821,1.6892,1.7176,1.7707,1.7939,1.7919,1.8053,1.8309,1.8112,1.7823,1.7944,1.8022,1.7974,1.8008,1.8008,0.7988,0.7988,0.7988,0.7988,0.7988,0.7988,0.7988,0.7988,0.7988,0.7988,0.7988,0.7988,0.7988,0.7988,0.7988,0.7988,0.7988,0.7971,0.7958,0.7934,0.8009,0.8135,0.8245,0.8272,0.8345,0.8501,0.8589,0.8666,0.8804,0.9011,0.9232,0.9444,0.951,0.9459,0.8989,0.917,0.9379,0.9589,0.9856,1.0,1.0239,1.0487,1.0648,1.0905,1.0974,1.1024,1.1164,1.1254,1.1315,1.1432,1.1456,1.1578,1.1607,1.1717,1.1873,1.2069,1.2206,1.2388,1.255,1.2359,1.2328,1.2353,1.2355,1.2511,1.2759,1.287,1.2923,1.3134,1.3267,1.326,1.326,1.326,1.3307,1.3387,1.352,1.3606,1.3701,1.3741,1.3781,1.3794,1.3941,1.4048,1.4041,1.3968,1.3735,1.3642,1.3663,1.3773,1.3961,1.418,1.4496,1.4679,1.4866,1.5139,1.5386,1.5902,1.6333,1.6757,1.7018,1.7155,1.744,1.7661,1.8054,1.8486,1.8564,1.849,1.8834,1.9209,1.8767,1.8352,1.8115,1.8081,1.8057,1.8008,1.8008,0.7988,0.7988,0.7988,0.7988,0.7988,0.7988,0.7988,0.7988,0.7988,0.7988,0.7988,0.7988,0.7988,0.7988,0.7988,0.7988,0.7988,0.7988,0.7988,0.8038,0.8187,0.828,0.8407,0.8579,0.8739,0.8984,0.9069,0.9268,0.9599,0.9714,0.9789,0.9957,1.0226,1.0154,0.9879,0.9883,0.9907,1.0255,1.0463,1.0636,1.0944,1.1079,1.13,1.1602,1.1631,1.1671,1.1793,1.1908,1.2087,1.2171,1.2248,1.2426,1.2516,1.264,1.2748,1.2885,1.3016,1.3118,1.3284,1.3211,1.3044,1.2945,1.2862,1.2955,1.3061,1.3293,1.3386,1.35,1.3641,1.3694,1.3808,1.3801,1.3828,1.3834,1.3935,1.3935,1.3968,1.3988,1.4015,1.4001,1.4082,1.4148,1.4168,1.4305,1.4159,1.4219,1.4303,1.4451,1.4609,1.464,1.4859,1.5072,1.5295,1.5575,1.5906,1.6329,1.6778,1.7225,1.7386,1.7432,1.7813,1.8322,1.8499,1.8778,1.8905,1.9041,1.9323,1.9492,1.9238,1.8936,1.8666,1.8354,1.8242,1.8135,1.8018,0.7988,0.7988,0.7988,0.7988,0.7988,0.7988,0.7988,0.7988,0.7988,0.7988,0.7988,0.7988,0.7988,0.7988,0.7988,0.7988,0.7988,0.8088,0.8134,0.8184,0.8382,0.8581,0.873,0.8882,0.916,0.943,0.9628,0.9858,1.0075,1.0369,1.061,1.0843,1.0877,1.1027,1.0878,1.0825,1.0736,1.1057,1.129,1.1404,1.1608,1.1772,1.1814,1.206,1.2192,1.2283,1.2412,1.2589,1.2802,1.2979,1.3113,1.3283,1.3362,1.3404,1.344,1.3476,1.3603,1.3682,1.3789,1.3782,1.3579,1.3416,1.3318,1.3392,1.3487,1.3673,1.3733,1.382,1.4021,1.4062,1.4108,1.4122,1.4162,1.4162,1.4235,1.4235,1.4362,1.4439,1.4439,1.4405,1.4385,1.4398,1.4392,1.4509,1.4579,1.4754,1.497,1.5078,1.5168,1.5231,1.5294,1.5521,1.5774,1.6071,1.6395,1.6743,1.7198,1.763,1.7799,1.789,1.8406,1.8943,1.8985,1.9108,1.9477,1.9723,1.9777,1.9736,1.9658,1.9512,1.9307,1.8955,1.8525,1.8389,1.833,0.7988,0.7988,0.7988,0.7988,0.7988,0.7988,0.7988,0.7988,0.7988,0.7988,0.7988,0.7988,0.8038,0.8038,0.8038,0.8088,0.8137,0.8333,0.8382,0.8478,0.8676,0.8928,0.9133,0.9232,0.9529,0.9875,1.0068,1.0265,1.0458,1.0956,1.1439,1.1818,1.1748,1.1936,1.1968,1.1915,1.1752,1.1946,1.1988,1.2137,1.2315,1.2414,1.251,1.2685,1.2793,1.296,1.3133,1.3336,1.3439,1.3463,1.3487,1.3498,1.3472,1.3459,1.358,1.3763,1.4001,1.4117,1.4186,1.4213,1.4179,1.4079,1.4115,1.4115,1.4075,1.4075,1.4128,1.4182,1.4289,1.4229,1.4195,1.4269,1.4329,1.4409,1.4522,1.4636,1.4861,1.4908,1.4901,1.4888,1.4867,1.4861,1.4821,1.4898,1.4933,1.52,1.535,1.5425,1.5562,1.5786,1.5875,1.5971,1.6296,1.665,1.6928,1.7129,1.7559,1.8048,1.832,1.8508,1.9046,1.9399,1.9474,1.9668,2.0178,2.0391,2.0234,2.0243,2.0282,2.0078,1.9834,1.9453,1.9014,1.8984,1.8971,0.7988,0.7988,0.7988,0.7988,0.7988,0.7988,0.7988,0.7988,0.7988,0.7988,0.7988,0.7988,0.8137,0.8287,0.8287,0.8382,0.8531,0.8627,0.8676,0.8775,0.8977,0.9229,0.948,0.9677,0.9969,1.0265,1.0462,1.0708,1.1047,1.1487,1.2073,1.2484,1.2475,1.2742,1.2907,1.2964,1.2819,1.2681,1.267,1.278,1.2989,1.3134,1.327,1.3381,1.3598,1.3774,1.3869,1.3963,1.4058,1.4216,1.4242,1.4234,1.418,1.4173,1.4266,1.4286,1.4512,1.4716,1.476,1.4747,1.4713,1.4687,1.47,1.4563,1.4482,1.4429,1.4489,1.4529,1.4626,1.4599,1.4593,1.464,1.4656,1.475,1.4836,1.493,1.5129,1.5169,1.5169,1.5176,1.5169,1.5169,1.5149,1.5109,1.5183,1.5514,1.5732,1.5839,1.5973,1.6168,1.6327,1.6434,1.6676,1.698,1.7195,1.7383,1.7902,1.8416,1.8717,1.8972,1.935,1.9631,1.9822,2.0154,2.0614,2.0683,2.0566,2.0586,2.0596,2.0556,2.0283,1.993,1.9617,1.9531,1.9463,0.7988,0.7988,0.7988,0.8091,0.8137,0.8137,0.8237,0.8283,0.8237,0.8137,0.8187,0.8283,0.8382,0.8531,0.8577,0.8627,0.8779,0.8928,0.9027,0.9225,0.9377,0.9673,0.992,1.0068,1.0364,1.0659,1.0904,1.1149,1.1536,1.2024,1.2565,1.3055,1.305,1.3298,1.3522,1.3663,1.3701,1.3573,1.3508,1.353,1.3661,1.3848,1.4033,1.4101,1.4353,1.4398,1.4437,1.4527,1.4656,1.4739,1.4777,1.4756,1.4703,1.4689,1.4689,1.4716,1.4803,1.4941,1.4948,1.4968,1.5001,1.5022,1.5035,1.4988,1.487,1.481,1.483,1.4894,1.4948,1.4988,1.4995,1.5015,1.5089,1.5162,1.5196,1.519,1.5257,1.5317,1.5331,1.5337,1.5344,1.5357,1.5337,1.5297,1.5494,1.5929,1.6232,1.6387,1.6451,1.6581,1.668,1.6797,1.7017,1.7285,1.7493,1.7805,1.8336,1.8818,1.9171,1.946,1.9697,2.0111,2.0529,2.0771,2.1012,2.1015,2.0928,2.0859,2.0859,2.0771,2.0713,2.04,2.0145,2.0077,1.9999,0.8038,0.8038,0.8041,0.8233,0.8435,0.8428,0.8531,0.8775,0.8581,0.8435,0.8482,0.8676,0.8775,0.8829,0.8829,0.8928,0.9076,0.9229,0.9476,0.9673,0.9871,1.0117,1.0359,1.0507,1.0806,1.1096,1.134,1.1585,1.2078,1.2565,1.3055,1.3497,1.3588,1.3732,1.4027,1.4256,1.4381,1.4434,1.4378,1.4383,1.44,1.4558,1.4654,1.452,1.4624,1.476,1.4792,1.4908,1.5075,1.5044,1.5057,1.5077,1.5003,1.5042,1.5042,1.5089,1.5104,1.5157,1.5184,1.519,1.5196,1.5162,1.5089,1.5204,1.5244,1.511,1.5129,1.5197,1.5264,1.5271,1.5277,1.5284,1.5337,1.5398,1.5444,1.5491,1.5551,1.5591,1.5591,1.5598,1.5598,1.5605,1.5605,1.5571,1.5731,1.6268,1.6537,1.6703,1.6899,1.692,1.7004,1.7096,1.7329,1.7589,1.7991,1.8328,1.882,1.9246,1.9553,1.9829,1.9974,2.0573,2.131,2.1342,2.1331,2.1393,2.1396,2.1318,2.1201,2.1055,2.0987,2.082,2.0703,2.0664,2.0458,0.8137,0.8336,0.8531,0.8627,0.873,0.8676,0.873,0.8829,0.8981,0.8882,0.8775,0.8775,0.8928,0.9133,0.9183,0.9327,0.9624,0.9673,0.9969,1.0117,1.0314,1.0659,1.0949,1.1047,1.1345,1.1639,1.1883,1.2122,1.2613,1.3104,1.3491,1.3781,1.3973,1.4214,1.4454,1.4736,1.4927,1.5029,1.5105,1.4991,1.4956,1.5145,1.5241,1.5264,1.5344,1.5405,1.5458,1.5531,1.5598,1.5625,1.5625,1.5518,1.5317,1.5304,1.5291,1.5324,1.5458,1.5511,1.5531,1.5518,1.5518,1.5565,1.5585,1.5645,1.5611,1.5411,1.5371,1.5511,1.5591,1.5578,1.5578,1.5585,1.5598,1.5651,1.5705,1.5765,1.5825,1.5825,1.5825,1.5825,1.5825,1.5825,1.5825,1.592,1.6109,1.6339,1.652,1.6695,1.7055,1.7198,1.731,1.7439,1.7648,1.7935,1.8373,1.8769,1.9157,1.9488,1.9789,2.0036,2.034,2.094,2.1602,2.162,2.1632,2.1763,2.1855,2.1768,2.1631,2.1426,2.1398,2.131,2.1398,2.1407,2.1065,0.8432,0.8577,0.8726,0.8878,0.8981,0.8981,0.9076,0.9324,0.9476,0.9525,0.9468,0.9422,0.9426,0.9579,0.9677,0.9826,1.0167,1.0162,1.0413,1.0659,1.0806,1.1145,1.134,1.159,1.1932,1.2224,1.2613,1.2905,1.3249,1.3491,1.3829,1.4214,1.4448,1.464,1.4879,1.5124,1.5261,1.5267,1.5499,1.5499,1.5363,1.5547,1.5642,1.5683,1.573,1.5825,1.5825,1.5825,1.5825,1.5771,1.5792,1.5752,1.5611,1.5585,1.5585,1.5618,1.5712,1.5825,1.5825,1.5825,1.5825,1.5825,1.5825,1.5772,1.5778,1.5605,1.5598,1.5671,1.5725,1.5718,1.5718,1.5725,1.5725,1.5765,1.5772,1.5805,1.5825,1.5825,1.5825,1.5825,1.5825,1.5825,1.5825,1.5825,1.6062,1.6447,1.6588,1.6777,1.7099,1.7333,1.7487,1.7674,1.7857,1.8267,1.8799,1.91,1.9376,1.9718,2.0018,2.0612,2.1076,2.1463,2.1802,2.1949,2.2123,2.2269,2.2334,2.2207,2.1982,2.1738,2.1758,2.1838,2.1914,2.1992,2.167,0.8825,0.8829,0.8874,0.9076,0.9282,0.9282,0.9579,0.9969,1.0072,1.0167,1.0314,1.0167,1.0167,1.0167,1.0314,1.0413,1.056,1.0659,1.0953,1.1198,1.1296,1.1634,1.1927,1.2127,1.2467,1.2861,1.3249,1.3539,1.3877,1.407,1.4262,1.464,1.4831,1.4927,1.5172,1.5356,1.5547,1.5547,1.5689,1.5778,1.5778,1.5825,1.5784,1.5784,1.5825,1.5825,1.5825,1.5825,1.5825,1.5825,1.5825,1.5805,1.5792,1.5758,1.5772,1.5785,1.5785,1.5825,1.5825,1.5825,1.5825,1.5825,1.5825,1.5825,1.5825,1.5825,1.5771,1.5771,1.5825,1.5825,1.5825,1.5825,1.5825,1.5825,1.5825,1.5825,1.5825,1.5825,1.5825,1.5825,1.5825,1.5825,1.5825,1.5825,1.6021,1.64,1.6683,1.6911,1.7099,1.7286,1.7461,1.771,1.7911,1.8441,1.9069,1.934,1.9537,1.9898,2.0287,2.1105,2.173,2.182,2.207,2.249,2.2635,2.2664,2.2672,2.2617,2.2363,2.2139,2.2266,2.2373,2.2334,2.2363,2.2227,0.8931,0.9133,0.9381,0.9575,0.9821,0.9826,1.0019,1.0314,1.0314,1.0364,1.0556,1.0801,1.0752,1.0359,1.0609,1.0855,1.1096,1.1247,1.1541,1.1785,1.1883,1.2219,1.2516,1.271,1.2958,1.3346,1.3732,1.3973,1.4262,1.4454,1.47,1.4987,1.5261,1.5356,1.5404,1.5594,1.5737,1.5737,1.5737,1.5825,1.5825,1.5825,1.5825,1.5825,1.5825,1.5825,1.5825,1.5825,1.5825,1.5825,1.5825,1.5825,1.5825,1.5825,1.5825,1.5825,1.5825,1.5825,1.5825,1.5825,1.5825,1.5825,1.5825,1.5825,1.5825,1.5825,1.5825,1.5825,1.5825,1.5825,1.5825,1.5825,1.5825,1.5825,1.5825,1.5825,1.5825,1.5825,1.5825,1.5825,1.5825,1.5825,1.5825,1.5825,1.5927,1.6258,1.6541,1.6777,1.7026,1.7246,1.7456,1.7729,1.7977,1.8496,1.9034,1.9309,1.9588,2.0002,2.0473,2.106,2.1562,2.1874,2.2185,2.2485,2.275,2.2829,2.2858,2.2891,2.2847,2.2691,2.2881,2.2949,2.2852,2.2754,2.2627]},{"header":{"parameterUnit":"m.s-1","parameterCategory":1,"la1":31.0,"la2":29.5877,"lo1":-88.7671,"lo2":-86.6584,"dy":0.0162,"dx":0.0185,"nx":115,"ny":88,"refTime":"2024-03-09T06:00:00:Z","depth":0,"parameterNumber":3,"parameterNumberName":"V-component_of_WINDS"},"data":[0.0,0.0,0.0,0.0,0.0,0.0,0.0,0.0,0.0,0.0,0.0,0.0,0.0,0.0,0.0,0.0,0.0,0.0,0.0,0.0,0.0,0.0,0.0,0.0,0.0,0.0,0.0,0.0,0.0,0.0,0.0,0.0,0.0,0.0,0.0,0.0,0.0,0.0,0.0,0.0,0.0,0.0,0.0,0.0,0.0,0.0,0.0,0.0,0.0,0.0,0.0,0.0,0.0,0.0,0.0,0.0,0.0,0.0,0.0,0.0,0.0,0.0,0.0,0.0,0.0,0.0,0.0,0.0,0.0,0.0,0.0,0.0,0.0,0.0,0.0,0.0,0.0,0.0,0.0,0.0,0.0,0.0,0.0,0.0,0.0,0.0,0.0,0.0,0.0,0.0,0.0,0.0,0.0,0.0,0.0,0.0,0.0,0.0,0.0,0.0,0.0,0.0,0.0,0.0,0.0,0.0,0.0,0.0,0.0,0.0,0.0,0.0,0.0,0.0,0.0,0.0,0.0,0.0,0.0,0.0,0.0,0.0,0.0,0.0,0.0,0.0,0.0,0.0,0.0,0.0,0.0,0.0,0.0,0.0,0.0,0.0,0.0,0.0,0.0,0.0,0.0,0.0,0.0,0.0,0.0,0.0,0.0,0.0,0.0,0.0,0.0,0.0,0.0,0.0,0.0,0.0,0.0,0.0,0.0,0.0,0.0,0.0,0.0,0.0,0.0,0.0,0.0,0.0,0.0,0.0,0.0,0.0,0.0,0.0,0.0,0.0,0.0,0.0,0.0,0.0,0.0,0.0,0.0,0.0,0.0,0.0,0.0,0.0,0.0,0.0,0.0,0.0,0.0,0.0,0.0,0.0,0.0,0.0,0.0,0.0,0.0,0.0,0.0,0.0,0.0,0.0,0.0,0.0,0.0,0.0,0.0,0.0,0.0,0.0,0.0,0.0,0.0,0.0,0.0,0.0,0.0,0.0,0.0,0.0,0.0,0.0,0.0,0.0,0.0,0.0,0.0,0.0,0.0,0.0,0.0,0.0,0.0,0.0,0.0,0.0,0.0,0.0,0.0,0.0,0.0,0.0,0.0,0.0,0.0,0.0,0.0,0.0,0.0,0.0,0.0,0.0,0.0,0.0,0.0,0.0,0.0,0.0,0.0,0.0,0.0,0.0,0.0,0.0,0.0,0.0,0.0,0.0,0.0,0.0,0.0,0.0,0.0,0.0,0.0,0.0,0.0,0.0,0.0,0.0,0.0,0.0,0.0,0.0,0.0,0.0,0.0,0.0,0.0,0.0,0.0,0.0,0.0,0.0,0.0,0.0,0.0,0.0,0.0,0.0,0.0,0.0,0.0,0.0,0.0,0.0,0.0,0.0,0.0,0.0,0.0,0.0,0.0,0.0,0.0,0.0,0.0,0.0,0.0,0.0,0.0,0.0,0.0,0.0,0.0,0.0,0.0,0.0,0.0,0.0,0.0,0.0,0.0,0.0,0.0,0.0,0.0,0.0,0.0,0.0,0.0,0.0,0.0,0.0,0.0,0.0,0.0,0.0,0.0,0.0,0.0,0.0,0.0,0.0,0.0,0.0,0.0,0.0,0.0,0.0,0.0,0.0,0.0,0.0,0.0,0.0,0.0,0.0,0.0,0.0,0.0,0.0,0.0,0.0,0.0,0.0,0.0,0.0,0.0,0.0,0.0,0.0,0.0,0.0,0.0,0.0,0.0,0.0,0.0,0.0,0.0,0.0,0.0,0.0,0.0,0.0,0.0,0.0,0.0,0.0,0.0,0.0,0.0,0.0,0.0,0.0,0.0,0.0,0.0,0.0,0.0,0.0,0.0,0.0,0.0,0.0,0.0,0.0,0.0,0.0,0.0,0.0,0.0,0.0,0.0,0.0,0.0,0.0,0.0,0.0,0.0,0.0,0.0,0.0,0.0,0.0,0.0,0.0,0.0,0.0,0.0,0.0,0.0,0.0,0.0,0.0,0.0,0.0,0.0,0.0,0.0,0.0,0.0,0.0,0.0,0.0,0.0,0.0,0.0,0.0,0.0,0.0,0.0,0.0,0.0,0.0,0.0,0.0,0.0,0.0,0.0,0.0,0.0,0.0,0.0,0.0,0.0,0.0,0.0,0.0,0.0,0.0,0.0,0.0,0.0,0.0,0.0,0.0,0.0,0.0,0.0,0.0,0.0,0.0,0.0,0.0,0.0,0.0,0.0,0.0,0.0,0.0,0.0,0.0,0.0,0.0,0.0,0.0,0.0,0.0,0.0,0.0,0.0,0.0,0.0,0.0,0.0,0.0,0.0,0.0,0.0,0.0,0.0,0.0,0.0,0.0,0.0,0.0,0.0,0.0,0.0,0.0,0.0,0.0,0.0,0.0,0.0,0.0,0.0,0.0,0.0,0.0,0.0,0.0,0.0,0.0,0.0,0.0,0.0,0.0,0.0,0.0,0.0,0.0,0.0,0.0,0.0,0.0,0.0,0.0,0.0,0.0,0.0,0.0,0.0,0.0,0.0,0.0,0.0,0.0,0.0,0.0,0.0,0.0,0.0,0.0,0.0,0.0,0.0,0.0,0.0,0.0,0.0,0.0,0.0,0.0,0.0,0.0,0.0,0.0,0.0,0.0,0.0,0.0,0.0,0.0,0.0,0.0,0.0,0.0,0.0,0.0,0.0,0.0,0.0,0.0,0.0,0.0,0.0,0.0,0.0,0.0,0.0,0.0,0.0,0.0,0.0,0.0,0.0,0.0,0.0,0.0,0.0,0.0,0.0,0.0,0.0,0.0,0.0,0.0,0.0,0.0,0.0,0.0,0.0,0.0,0.0,0.0,0.0,0.0,0.0,0.0,0.0,0.0,0.0,0.0,0.0,0.0,0.0,0.0,0.0,0.0,0.0,0.0,0.0,0.0,0.0,0.0,0.0,0.0,0.0,0.0,0.0,0.0,0.0,0.0,0.0,0.0,0.0,0.0,0.0,0.0,0.0,0.0,0.0,0.0,0.0,0.0,0.0,0.0,0.0,0.0,0.0,0.0,0.0,0.0,0.0,0.0,0.0,0.0,0.0,0.0,0.0,0.0,0.0,0.0,0.0,0.0,0.0,0.0,0.0,0.0,0.0,0.0,0.0,0.0,0.0,0.0,0.0,0.0,0.0,0.0,0.0,0.0,0.0,0.0,0.0,0.0,0.0,0.0,0.0,0.0,0.0,0.0,0.0,0.0,0.0,0.0,0.0,0.0,0.0,0.0,0.0,0.0,0.0,0.0,0.0,0.0,0.0,0.0,0.0,0.0,0.0,0.0,0.0,0.0,0.0,0.0,0.0,0.0,0.0,0.0,0.0,0.0,0.0,0.0,0.0,0.0,0.0,0.0,0.0,0.0,0.0,0.0,0.0,0.0,0.0,0.0,0.0,0.0,0.0,0.0,0.0,0.0,0.0,0.0,0.0,0.0,0.0,0.0,0.0,0.0,0.0,0.0,0.0,0.0,0.0,0.0,0.0,0.0,0.0,0.0,0.0,0.0,0.0,0.0,0.0,0.0,0.0,0.0,0.0,0.0,0.0,0.0,0.0,0.0,0.0,0.0,0.0,0.0,0.0,0.0,0.0,0.0,0.0,0.0,0.0,0.0,0.0,0.0,0.0,0.0,0.0,0.0,0.0,0.0,0.0,0.0,0.0,0.0,0.0,0.0,0.0,0.0,0.0,0.0,0.0,0.0,0.0,0.0,0.0,0.0,0.0,0.0,0.0,0.0,0.0,0.0,0.0,0.0,0.0,0.0,0.0,0.0,0.0,0.0,0.0,0.0,0.0,0.0,0.0,0.0,0.0,0.0,0.0,0.0,0.0,0.0,0.0,0.0,0.0,0.0,0.0,0.0,0.0,0.0,0.0,0.0,0.0,0.0,0.0,0.0,0.0,0.0,0.0,0.0,0.0,0.0,0.0,0.0,0.0,0.0,0.0,0.0,0.0,0.0,0.0,0.0,0.0,0.0,0.0,0.0,0.0,0.0,0.0,0.0,0.0,0.0,0.0,0.0,0.0,0.0,0.0,0.0,0.0,0.0,0.0,0.0,0.0,0.0,0.0,0.0,0.0,0.0,0.0,0.0,0.0,0.0,0.0,0.0,0.0,0.0,0.0,0.0,0.0,0.0,0.0,0.0,0.0,0.0,0.0,0.0,0.0,0.0,0.0,0.0,0.0,0.0,0.0,0.0,0.0,0.0,0.0,0.0,0.0,0.0,0.0,0.0,0.0,0.0,0.0,0.0,1.6785,0.0,0.0,0.0,0.0,0.0,0.0,0.0,0.0,0.0,0.0,0.0,0.0,0.0,0.0,0.0,0.0,0.0,0.0,0.0,0.0,0.0,0.0,0.0,0.0,0.0,0.0,0.0,0.0,0.0,0.0,0.0,0.0,0.0,0.0,0.0,0.0,0.0,0.0,0.0,0.0,0.0,0.0,0.0,0.0,0.0,0.0,0.0,0.0,0.0,0.0,0.0,0.0,0.0,0.0,0.0,0.0,0.0,0.0,0.0,0.0,0.0,0.0,0.0,0.0,0.0,0.0,0.0,0.0,0.0,0.0,0.0,0.0,0.0,0.0,0.0,0.0,0.0,0.0,0.0,0.0,0.0,0.0,0.0,0.0,0.0,0.0,0.0,0.0,0.0,0.0,0.0,0.0,0.0,0.0,0.0,0.0,0.0,0.0,0.0,0.0,0.0,0.0,0.0,0.0,0.0,0.0,0.0,0.0,0.0,0.0,1.7356,1.7285,1.7195,1.7097,1.6955,0.0,0.0,0.0,0.0,0.0,0.0,0.0,0.0,0.0,0.0,0.0,0.0,0.0,0.0,0.0,0.0,0.0,0.0,0.0,0.0,0.0,0.0,0.0,0.0,0.0,0.0,0.0,0.0,0.0,0.0,0.0,0.0,0.0,0.0,0.0,0.0,0.0,0.0,0.0,0.0,0.0,0.0,0.0,0.0,0.0,0.0,0.0,0.0,0.0,0.0,0.0,0.0,0.0,0.0,0.0,0.0,0.0,0.0,0.0,0.0,0.0,0.0,0.0,0.0,0.0,0.0,0.0,0.0,0.0,0.0,0.0,0.0,0.0,0.0,0.0,0.0,0.0,0.0,0.0,0.0,0.0,0.0,0.0,0.0,0.0,0.0,0.0,0.0,0.0,0.0,0.0,0.0,0.0,0.0,0.0,0.0,0.0,0.0,0.0,0.0,0.0,0.0,0.0,0.0,0.0,0.0,0.0,0.0,0.0,0.0,0.0,0.0,1.7659,1.7493,1.7126,0.0,0.0,0.0,0.0,0.0,0.0,0.0,0.0,0.0,0.0,0.0,0.0,0.0,0.0,0.0,0.0,0.0,0.0,0.0,0.0,0.0,0.0,0.0,0.0,0.0,0.0,0.0,0.0,0.0,0.0,0.0,0.0,0.0,0.0,0.0,0.0,0.0,0.0,0.0,0.0,0.0,0.0,0.0,0.0,0.0,0.0,0.0,0.0,0.0,0.0,0.0,0.0,0.0,0.0,0.0,0.0,0.0,0.0,0.0,0.0,0.0,0.0,0.0,0.0,0.0,0.0,0.0,0.0,0.0,0.0,0.0,0.0,0.0,0.0,0.0,0.0,0.0,0.0,0.0,0.0,0.0,0.0,0.0,0.0,0.0,0.0,0.0,0.0,0.0,0.0,0.0,0.0,0.0,0.0,0.0,0.0,0.0,0.0,0.0,0.0,0.0,0.0,0.0,0.0,0.0,0.0,0.0,0.0,0.0,0.0,1.889,1.7997,1.8523,0.0,1.7277,0.0,0.0,0.0,0.0,0.0,0.0,0.0,0.0,0.0,0.0,0.0,0.0,0.0,0.0,0.0,0.0,0.0,0.0,0.0,0.0,0.0,0.0,0.0,0.0,0.0,0.0,0.0,0.0,0.0,0.0,0.0,0.0,0.0,0.0,0.0,0.0,0.0,0.0,0.0,0.0,0.0,0.0,0.0,0.0,0.0,0.0,0.0,0.0,0.0,0.0,0.0,0.0,0.0,0.0,0.0,0.0,0.0,0.0,0.0,0.0,0.0,0.0,0.0,0.0,0.0,0.0,0.0,0.0,0.0,0.0,0.0,0.0,0.0,0.0,0.0,0.0,0.0,0.0,0.0,0.0,0.0,0.0,0.0,0.0,0.0,0.0,0.0,0.0,0.0,0.0,0.0,0.0,0.0,0.0,0.0,0.0,0.0,0.0,0.0,0.0,0.0,0.0,0.0,0.0,0.0,0.0,0.0,0.0,0.0,0.0,1.9649,1.915,1.9165,1.862,0.0,0.0,0.0,0.0,0.0,0.0,0.0,0.0,0.0,0.0,0.0,0.0,0.0,0.0,0.0,0.0,0.0,0.0,0.0,0.0,0.0,0.0,0.0,0.0,0.0,0.0,0.0,0.0,0.0,0.0,0.0,0.0,0.0,0.0,0.0,0.0,0.0,0.0,0.0,0.0,0.0,0.0,0.0,0.0,0.0,0.0,0.0,0.0,0.0,0.0,0.0,0.0,0.0,0.0,0.0,0.0,0.0,0.0,0.0,0.0,0.0,0.0,0.0,0.0,0.0,0.0,0.0,0.0,0.0,0.0,0.0,0.0,0.0,0.0,0.0,0.0,0.0,0.0,0.0,0.0,0.0,0.0,0.0,0.0,0.0,0.0,0.0,0.0,0.0,0.0,0.0,0.0,0.0,0.0,0.0,0.0,0.0,0.0,0.0,0.0,0.0,0.0,0.0,0.0,0.0,0.0,0.0,0.0,0.0,0.0,2.0433,2.0579,2.0325,1.9767,1.8925,1.7772,0.0,0.0,0.0,0.0,0.0,0.0,0.0,0.0,0.0,0.0,0.0,0.0,0.0,0.0,0.0,0.0,0.0,0.0,0.0,0.0,0.0,0.0,0.0,0.0,0.0,0.0,0.0,0.0,0.0,0.0,0.0,0.0,0.0,0.0,0.0,0.0,0.0,0.0,0.0,0.0,0.0,0.0,0.0,0.0,0.0,0.0,0.0,0.0,0.0,0.0,0.0,0.0,0.0,0.0,0.0,0.0,0.0,0.0,0.0,0.0,0.0,0.0,0.0,0.0,0.0,0.0,0.0,0.0,0.0,0.0,0.0,0.0,0.0,0.0,0.0,0.0,0.0,0.0,0.0,0.0,0.0,0.0,0.0,0.0,0.0,0.0,0.0,0.0,0.0,0.0,0.0,0.0,0.0,0.0,0.0,0.0,0.0,0.0,0.0,0.0,0.0,0.0,0.0,0.0,0.0,0.0,0.0,0.0,2.219,2.2054,2.1755,2.1442,2.0426,1.9304,0.0,0.0,0.0,0.0,0.0,0.0,0.0,0.0,0.0,0.0,0.0,0.0,0.0,0.0,0.0,0.0,0.0,0.0,0.0,0.0,0.0,0.0,0.0,0.0,0.0,0.0,0.0,0.0,0.0,0.0,0.0,0.0,0.0,0.0,0.0,0.0,0.0,0.0,0.0,0.0,0.0,0.0,0.0,0.0,0.0,0.0,0.0,0.0,0.0,0.0,0.0,0.0,0.0,0.0,0.0,0.0,0.0,0.0,0.0,0.0,0.0,0.0,0.0,0.0,0.0,0.0,0.0,0.0,0.0,0.0,0.0,0.0,0.0,0.0,0.0,0.0,0.0,0.0,0.0,0.0,0.0,0.0,0.0,0.0,0.0,0.0,0.0,0.0,0.0,0.0,0.0,0.0,0.0,0.0,0.0,0.0,0.0,0.0,0.0,0.0,0.0,0.0,0.0,0.0,0.0,0.0,0.0,0.0,0.0,2.1083,2.1856,2.2431,2.2712,2.1708,2.0543,0.0,0.0,0.0,0.0,0.0,0.0,0.0,0.0,0.0,0.0,0.0,0.0,0.0,0.0,0.0,0.0,0.0,0.0,0.0,0.0,0.0,0.0,0.0,0.0,0.0,0.0,0.0,0.0,0.0,0.0,0.0,0.0,0.0,0.0,0.0,0.0,0.0,0.0,0.0,0.0,0.0,0.0,0.0,0.0,0.0,0.0,0.0,0.0,0.0,0.0,0.0,0.0,0.0,0.0,0.0,0.0,0.0,0.0,0.0,0.0,0.0,0.0,0.0,0.0,0.0,0.0,0.0,0.0,0.0,0.0,0.0,0.0,0.0,0.0,0.0,0.0,0.0,0.0,0.0,0.0,0.0,0.0,0.0,0.0,0.0,0.0,0.0,0.0,0.0,0.0,0.0,0.0,0.0,0.0,0.0,0.0,0.0,0.0,0.0,0.0,0.0,0.0,0.0,0.0,0.0,0.0,0.0,0.0,0.0,2.1163,0.0,2.3453,2.3561,2.2559,2.1347,0.0,0.0,0.0,0.0,0.0,0.0,0.0,0.0,0.0,0.0,0.0,0.0,0.0,0.0,0.0,0.0,0.0,0.0,0.0,0.0,0.0,0.0,0.0,0.0,0.0,0.0,0.0,0.0,0.0,0.0,0.0,0.0,0.0,0.0,0.0,0.0,0.0,0.0,0.0,0.0,0.0,0.0,0.0,0.0,0.0,0.0,0.0,0.0,0.0,0.0,0.0,0.0,0.0,0.0,0.0,0.0,0.0,0.0,0.0,0.0,0.0,0.0,0.0,0.0,0.0,0.0,0.0,0.0,0.0,0.0,0.0,0.0,0.0,0.0,0.0,0.0,0.0,0.0,0.0,0.0,0.0,0.0,0.0,0.0,0.0,0.0,0.0,0.0,0.0,0.0,0.0,0.0,0.0,0.0,0.0,0.0,0.0,0.0,0.0,0.0,0.0,0.0,0.0,0.0,0.0,0.0,0.0,0.0,2.1158,2.2845,2.446,2.4808,2.3941,2.2881,2.1676,0.0,0.0,0.0,0.0,0.0,0.0,0.0,0.0,0.0,0.0,0.0,0.0,0.0,0.0,0.0,0.0,0.0,0.0,0.0,0.0,0.0,0.0,0.0,0.0,0.0,0.0,0.0,0.0,0.0,0.0,0.0,0.0,0.0,0.0,0.0,0.0,0.0,0.0,0.0,0.0,0.0,0.0,0.0,0.0,0.0,0.0,0.0,0.0,0.0,0.0,0.0,0.0,0.0,0.0,0.0,0.0,0.0,0.0,0.0,0.0,0.0,0.0,0.0,0.0,0.0,0.0,0.0,0.0,0.0,0.0,0.0,0.0,0.0,0.0,0.0,0.0,0.0,0.0,0.0,0.0,0.0,0.0,0.0,0.0,0.0,0.0,0.0,0.0,0.0,0.0,0.0,0.0,0.0,0.0,0.0,0.0,0.0,0.0,0.0,0.0,0.0,0.0,0.0,0.0,0.0,0.0,0.0,0.0,0.0,2.291,2.3984,2.4703,2.4872,2.3345,2.2181,0.0,0.0,0.0,0.0,0.0,0.0,0.0,0.0,0.0,0.0,0.0,0.0,0.0,0.0,0.0,0.0,0.0,0.0,0.0,0.0,0.0,0.0,0.0,0.0,0.0,0.0,0.0,0.0,0.0,0.0,0.0,0.0,0.0,0.0,0.0,0.0,0.0,0.0,0.0,0.0,0.0,0.0,0.0,0.0,0.0,0.0,0.0,0.0,0.0,0.0,0.0,0.0,0.0,0.0,0.0,0.0,0.0,0.0,0.0,0.0,0.0,0.0,0.0,0.0,0.0,0.0,0.0,0.0,0.0,0.0,0.0,0.0,0.0,0.0,0.0,0.0,0.0,0.0,0.0,0.0,0.0,0.0,0.0,0.0,0.0,0.0,0.0,0.0,0.0,0.0,0.0,0.0,0.0,0.0,0.0,0.0,0.0,0.0,0.0,0.0,0.0,0.0,0.0,0.0,0.0,0.0,0.0,0.0,0.0,2.3079,2.4025,2.4795,2.5316,2.3547,2.2436,2.2038,0.0,0.0,0.0,0.0,0.0,0.0,0.0,0.0,0.0,0.0,0.0,0.0,0.0,0.0,0.0,0.0,0.0,0.0,0.0,0.0,0.0,0.0,0.0,0.0,0.0,0.0,0.0,0.0,0.0,0.0,0.0,0.0,0.0,0.0,0.0,0.0,0.0,0.0,0.0,0.0,0.0,0.0,0.0,0.0,0.0,0.0,0.0,0.0,0.0,0.0,0.0,0.0,0.0,0.0,0.0,0.0,0.0,0.0,0.0,0.0,0.0,0.0,0.0,0.0,0.0,0.0,0.0,0.0,0.0,0.0,0.0,0.0,0.0,0.0,0.0,0.0,0.0,0.0,0.0,0.0,0.0,0.0,0.0,0.0,0.0,0.0,0.0,0.0,0.0,0.0,0.0,0.0,0.0,0.0,0.0,0.0,0.0,0.0,0.0,0.0,0.0,0.0,0.0,0.0,0.0,0.0,0.0,0.0,2.3244,2.4401,2.5048,2.5142,2.3493,2.2464,0.0,0.0,0.0,0.0,0.0,0.0,0.0,0.0,0.0,0.0,0.0,0.0,0.0,0.0,0.0,0.0,0.0,0.0,0.0,0.0,0.0,0.0,0.0,0.0,0.0,0.0,0.0,0.0,0.0,0.0,0.0,0.0,0.0,0.0,0.0,0.0,0.0,0.0,0.0,0.0,0.0,0.0,0.0,0.0,0.0,0.0,0.0,0.0,0.0,0.0,0.0,0.0,0.0,0.0,0.0,0.0,0.0,0.0,0.0,0.0,0.0,0.0,0.0,0.0,0.0,0.0,0.0,0.0,0.0,0.0,0.0,0.0,0.0,0.0,0.0,0.0,0.0,0.0,0.0,0.0,0.0,0.0,0.0,0.0,0.0,0.0,0.0,0.0,0.0,0.0,0.0,0.0,0.0,0.0,0.0,0.0,0.0,0.0,0.0,0.0,0.0,0.0,0.0,0.0,0.0,0.0,0.0,0.0,0.0,2.2713,2.351,2.4222,2.4765,2.3281,2.2408,0.0,0.0,0.0,0.0,0.0,0.0,0.0,0.0,0.0,0.0,0.0,0.0,0.0,0.0,0.0,0.0,0.0,0.0,0.0,0.0,0.0,0.0,0.0,0.0,0.0,0.0,0.0,0.0,0.0,0.0,0.0,0.0,0.0,0.0,0.0,0.0,0.0,0.0,0.0,0.0,0.0,0.0,0.0,0.0,0.0,0.0,0.0,0.0,0.0,0.0,0.0,0.0,0.0,0.0,0.0,0.0,0.0,0.0,0.0,0.0,0.0,0.0,0.0,0.0,0.0,0.0,0.0,0.0,0.0,0.0,0.0,0.0,0.0,0.0,0.0,0.0,0.0,0.0,0.0,0.0,0.0,0.0,0.0,0.0,0.0,0.0,0.0,0.0,0.0,0.0,0.0,0.0,0.0,0.0,0.0,0.0,0.0,0.0,0.0,0.0,0.0,0.0,0.0,0.0,0.0,0.0,0.0,0.0,2.186,2.2602,2.2917,2.3316,2.3815,2.2771,2.223,0.0,0.0,0.0,0.0,0.0,0.0,0.0,0.0,0.0,0.0,0.0,0.0,0.0,0.0,0.0,0.0,0.0,0.0,0.0,0.0,0.0,0.0,0.0,0.0,0.0,0.0,0.0,0.0,0.0,0.0,0.0,0.0,0.0,0.0,0.0,0.0,0.0,0.0,0.0,0.0,0.0,0.0,0.0,0.0,0.0,0.0,0.0,0.0,0.0,0.0,0.0,0.0,0.0,0.0,0.0,0.0,0.0,0.0,0.0,0.0,0.0,0.0,0.0,0.0,0.0,0.0,0.0,0.0,0.0,0.0,0.0,0.0,0.0,0.0,0.0,0.0,0.0,0.0,0.0,0.0,0.0,0.0,0.0,0.0,0.0,0.0,0.0,0.0,0.0,0.0,0.0,0.0,0.0,0.0,0.0,0.0,0.0,0.0,0.0,0.0,0.0,0.0,0.0,0.0,0.0,0.0,0.0,0.0,2.1571,2.2681,2.2499,2.2415,2.2453,2.2134,2.2004,0.0,0.0,0.0,0.0,0.0,0.0,0.0,0.0,0.0,0.0,0.0,0.0,0.0,0.0,0.0,0.0,0.0,0.0,0.0,0.0,0.0,0.0,0.0,0.0,0.0,0.0,0.0,0.0,0.0,0.0,0.0,0.0,0.0,0.0,0.0,0.0,0.0,0.0,0.0,0.0,0.0,0.0,0.0,0.0,0.0,0.0,0.0,0.0,0.0,0.0,0.0,0.0,0.0,0.0,0.0,0.0,0.0,0.0,0.0,0.0,0.0,0.0,0.0,0.0,0.0,0.0,0.0,0.0,0.0,0.0,0.0,0.0,0.0,0.0,0.0,0.0,0.0,0.0,0.0,0.0,0.0,0.0,0.0,0.0,0.0,0.0,0.0,0.0,0.0,0.0,0.0,0.0,0.0,0.0,0.0,0.0,0.0,0.0,0.0,0.0,0.0,0.0,0.0,0.0,0.0,0.0,0.0,0.0,2.1041,2.2062,2.1801,2.1607,2.1587,2.2,2.208,0.0,0.0,0.0,0.0,0.0,0.0,0.0,0.0,0.0,0.0,0.0,0.0,0.0,0.0,0.0,0.0,0.0,0.0,0.0,0.0,0.0,0.0,0.0,0.0,0.0,0.0,0.0,0.0,0.0,0.0,0.0,0.0,0.0,0.0,0.0,0.0,0.0,0.0,0.0,0.0,0.0,0.0,0.0,0.0,0.0,0.0,0.0,0.0,2.0072,0.0,0.0,0.0,0.0,0.0,0.0,0.0,0.0,0.0,0.0,0.0,0.0,0.0,0.0,0.0,0.0,0.0,0.0,0.0,0.0,0.0,0.0,0.0,0.0,0.0,0.0,0.0,0.0,0.0,0.0,0.0,0.0,0.0,0.0,0.0,0.0,0.0,0.0,0.0,0.0,0.0,0.0,0.0,0.0,0.0,0.0,0.0,0.0,0.0,0.0,0.0,0.0,0.0,0.0,0.0,0.0,0.0,0.0,0.0,2.0527,2.1331,2.1054,2.0782,2.0588,2.1136,2.1409,0.0,0.0,0.0,0.0,0.0,0.0,0.0,0.0,0.0,0.0,0.0,0.0,0.0,0.0,0.0,0.0,0.0,0.0,0.0,0.0,0.0,0.0,0.0,0.0,0.0,0.0,0.0,0.0,0.0,0.0,0.0,0.0,0.0,0.0,0.0,0.0,0.0,0.0,0.0,0.0,0.0,0.0,0.0,0.0,0.0,0.0,0.0,0.0,0.0,0.0,0.0,0.0,0.0,0.0,0.0,0.0,0.0,0.0,0.0,0.0,0.0,0.0,0.0,0.0,0.0,0.0,0.0,0.0,0.0,0.0,0.0,0.0,0.0,0.0,0.0,0.0,0.0,0.0,0.0,0.0,0.0,0.0,0.0,0.0,0.0,0.0,0.0,0.0,0.0,0.0,0.0,0.0,0.0,0.0,0.0,0.0,0.0,0.0,0.0,0.0,0.0,0.0,0.0,0.0,0.0,0.0,0.0,1.9983,2.0024,2.0669,2.0365,1.9954,1.9549,1.9972,2.0286,2.0337,0.0,0.0,0.0,0.0,0.0,0.0,0.0,0.0,0.0,0.0,0.0,0.0,0.0,0.0,0.0,0.0,0.0,0.0,0.0,0.0,0.0,0.0,0.0,0.0,0.0,0.0,0.0,0.0,0.0,0.0,0.0,0.0,0.0,0.0,0.0,0.0,0.0,0.0,1.9585,2.1969,0.0,0.0,0.0,0.0,0.0,0.0,0.0,0.0,2.4632,0.0,0.0,0.0,0.0,0.0,0.0,0.0,0.0,0.0,0.0,0.0,0.0,0.0,0.0,0.0,0.0,0.0,0.0,0.0,0.0,0.0,0.0,0.0,0.0,0.0,0.0,0.0,0.0,0.0,0.0,0.0,0.0,0.0,0.0,0.0,0.0,0.0,0.0,0.0,0.0,0.0,0.0,0.0,0.0,0.0,0.0,0.0,0.0,0.0,0.0,0.0,0.0,0.0,0.0,0.0,0.0,2.0325,1.9644,1.9637,2.0352,1.9829,1.9303,1.8807,1.8979,1.8713,1.8014,0.0,0.0,0.0,0.0,0.0,0.0,0.0,0.0,0.0,0.0,0.0,0.0,0.0,0.0,0.0,0.0,0.0,0.0,0.0,0.0,0.0,0.0,0.0,0.0,0.0,0.0,0.0,0.0,0.0,0.0,0.0,0.0,0.0,0.0,0.0,0.0,0.0,0.0,0.0,2.59,2.7277,0.0,0.0,0.0,0.0,0.0,0.0,0.0,0.0,2.5662,0.0,0.0,0.0,0.0,0.0,0.0,0.0,0.0,0.0,0.0,0.0,0.0,0.0,0.0,0.0,0.0,0.0,0.0,0.0,0.0,0.0,0.0,0.0,0.0,0.0,0.0,0.0,0.0,0.0,0.0,0.0,0.0,0.0,0.0,0.0,0.0,0.0,0.0,0.0,0.0,0.0,0.0,0.0,0.0,0.0,0.0,0.0,0.0,0.0,0.0,0.0,0.0,0.0,0.0,0.0,1.998,1.9745,1.9688,1.9871,1.9233,1.8612,1.8054,1.7973,1.7429,0.0,0.0,0.0,0.0,0.0,0.0,0.0,0.0,0.0,0.0,0.0,0.0,0.0,0.0,0.0,0.0,0.0,0.0,0.0,0.0,0.0,0.0,0.0,0.0,0.0,0.0,0.0,0.0,0.0,0.0,0.0,0.0,0.0,0.0,0.0,0.0,0.0,0.0,0.0,0.0,2.7842,2.8689,2.9253,0.0,0.0,0.0,0.0,0.0,0.0,2.7374,2.7237,0.0,0.0,0.0,0.0,0.0,0.0,0.0,0.0,0.0,0.0,0.0,0.0,0.0,0.0,0.0,0.0,0.0,0.0,0.0,0.0,0.0,0.0,0.0,0.0,0.0,0.0,0.0,0.0,0.0,0.0,0.0,0.0,0.0,0.0,0.0,0.0,0.0,0.0,0.0,0.0,0.0,0.0,0.0,0.0,0.0,0.0,0.0,0.0,0.0,0.0,0.0,0.0,0.0,0.0,0.0,1.9762,1.9863,1.978,1.9444,1.8731,1.804,1.7413,1.7136,1.6388,0.0,0.0,0.0,0.0,0.0,0.0,0.0,0.0,0.0,0.0,0.0,0.0,0.0,0.0,0.0,0.0,0.0,0.0,0.0,0.0,0.0,0.0,0.0,0.0,0.0,0.0,0.0,0.0,0.0,0.0,0.0,0.0,0.0,0.0,0.0,0.0,0.0,0.0,0.0,0.0,0.0,2.9699,3.0496,3.0521,0.0,0.0,0.0,0.0,2.86,2.8498,0.0,0.0,0.0,0.0,0.0,0.0,0.0,0.0,0.0,0.0,0.0,0.0,0.0,0.0,0.0,0.0,0.0,0.0,0.0,0.0,0.0,0.0,0.0,0.0,0.0,0.0,0.0,0.0,0.0,0.0,0.0,0.0,0.0,0.0,0.0,0.0,0.0,0.0,0.0,0.0,0.0,0.0,0.0,0.0,0.0,0.0,0.0,0.0,0.0,0.0,0.0,0.0,0.0,0.0,0.0,0.0,1.9615,1.9641,1.9536,1.9284,1.8559,1.7801,1.7073,1.6577,1.5638,0.0,0.0,0.0,0.0,0.0,0.0,0.0,0.0,0.0,0.0,0.0,0.0,0.0,0.0,0.0,0.0,0.0,0.0,0.0,0.0,0.0,0.0,0.0,0.0,0.0,0.0,0.0,0.0,0.0,0.0,0.0,0.0,0.0,0.0,0.0,0.0,0.0,0.0,0.0,0.0,0.0,3.1354,3.1961,3.1781,3.1076,0.0,0.0,2.9198,2.8905,2.8521,0.0,0.0,0.0,0.0,0.0,0.0,0.0,0.0,0.0,0.0,0.0,0.0,0.0,0.0,0.0,0.0,0.0,0.0,0.0,0.0,0.0,0.0,0.0,0.0,0.0,0.0,0.0,0.0,0.0,0.0,0.0,0.0,0.0,0.0,0.0,0.0,0.0,0.0,0.0,0.0,0.0,0.0,0.0,0.0,0.0,0.0,0.0,0.0,0.0,0.0,0.0,0.0,0.0,0.0,0.0,1.9642,1.9446,1.9875,1.9802,1.9133,1.8347,1.7646,1.7023,1.6085,1.4965,0.0,0.0,0.0,0.0,0.0,0.0,0.0,0.0,0.0,0.0,0.0,0.0,0.0,0.0,0.0,0.0,0.0,0.0,0.0,0.0,0.0,0.0,0.0,0.0,0.0,0.0,0.0,0.0,0.0,0.0,0.0,0.0,0.0,0.0,0.0,0.0,0.0,0.0,0.0,0.0,0.0,0.0,3.1833,3.1921,0.0,0.0,0.0,3.0214,2.9415,0.0,0.0,0.0,0.0,0.0,0.0,0.0,0.0,0.0,0.0,0.0,0.0,0.0,0.0,0.0,0.0,0.0,0.0,0.0,0.0,0.0,0.0,0.0,0.0,0.0,0.0,0.0,0.0,0.0,0.0,0.0,0.0,0.0,0.0,0.0,0.0,0.0,0.0,0.0,0.0,0.0,0.0,0.0,0.0,0.0,0.0,0.0,0.0,0.0,0.0,0.0,0.0,0.0,0.0,0.0,0.0,0.0,1.927,2.0052,1.9989,1.9055,1.8277,1.7598,1.7052,1.5952,0.0,0.0,0.0,0.0,0.0,0.0,0.0,0.0,0.0,0.0,0.0,0.0,0.0,0.0,0.0,0.0,0.0,0.0,0.0,0.0,0.0,0.0,0.0,0.0,0.0,0.0,0.0,0.0,0.0,0.0,0.0,0.0,0.0,0.0,0.0,0.0,0.0,0.0,0.0,0.0,0.0,0.0,3.0158,3.1571,3.1918,3.1594,0.0,0.0,3.081,2.9781,3.0045,2.9836,0.0,0.0,0.0,0.0,0.0,0.0,0.0,0.0,0.0,0.0,0.0,0.0,0.0,0.0,0.0,0.0,0.0,0.0,0.0,0.0,0.0,0.0,0.0,0.0,0.0,0.0,0.0,0.0,0.0,0.0,0.0,0.0,0.0,0.0,0.0,0.0,0.0,0.0,0.0,0.0,0.0,0.0,0.0,0.0,0.0,0.0,0.0,0.0,0.0,0.0,0.0,0.0,0.0,0.0,0.0,1.9159,1.9908,1.9937,1.9188,1.8408,1.7727,1.7199,1.6386,1.5186,0.0,0.0,0.0,0.0,0.0,0.0,0.0,0.0,0.0,0.0,0.0,0.0,0.0,0.0,0.0,0.0,0.0,0.0,0.0,0.0,0.0,0.0,0.0,0.0,0.0,0.0,0.0,0.0,0.0,0.0,0.0,0.0,0.0,0.0,0.0,0.0,0.0,0.0,0.0,0.0,0.0,2.9909,3.1715,3.2038,3.193,0.0,0.0,3.0573,2.9808,2.9312,2.8729,2.7858,0.0,0.0,0.0,0.0,0.0,0.0,0.0,0.0,0.0,0.0,0.0,0.0,0.0,0.0,0.0,0.0,0.0,0.0,0.0,0.0,0.0,0.0,0.0,0.0,0.0,0.0,0.0,0.0,0.0,0.0,0.0,0.0,0.0,0.0,0.0,0.0,0.0,0.0,0.0,0.0,0.0,0.0,0.0,0.0,0.0,0.0,0.0,0.0,0.0,0.0,0.0,0.0,0.0,1.9547,1.906,1.9892,1.9967,1.9225,1.8525,1.7922,1.7344,1.6309,1.5141,0.0,0.0,0.0,0.0,0.0,0.0,0.0,0.0,0.0,0.0,0.0,0.0,0.0,0.0,0.0,0.0,0.0,0.0,0.0,0.0,0.0,0.0,0.0,0.0,0.0,0.0,0.0,0.0,2.0077,2.0133,2.0192,0.0,0.0,0.0,0.0,0.0,0.0,0.0,0.0,0.0,0.0,3.0314,3.1679,3.1904,0.0,0.0,3.0567,3.0101,2.9335,2.8707,2.8178,2.7671,2.6451,0.0,0.0,0.0,0.0,0.0,0.0,0.0,0.0,0.0,0.0,0.0,0.0,0.0,0.0,0.0,0.0,0.0,0.0,0.0,0.0,0.0,0.0,0.0,0.0,0.0,0.0,0.0,0.0,0.0,0.0,0.0,0.0,0.0,0.0,0.0,0.0,0.0,0.0,0.0,0.0,0.0,0.0,0.0,0.0,0.0,0.0,0.0,0.0,0.0,0.0,0.0,0.0,1.9493,1.9044,1.9972,2.012,1.9409,1.8789,1.8167,1.7585,1.6589,1.5558,0.0,0.0,0.0,0.0,0.0,0.0,0.0,0.0,0.0,0.0,0.0,0.0,0.0,0.0,0.0,0.0,0.0,0.0,0.0,0.0,0.0,0.0,0.0,0.0,0.0,0.0,0.0,0.0,1.9868,1.9944,1.9998,0.0,0.0,0.0,0.0,0.0,0.0,0.0,0.0,0.0,0.0,3.0919,3.2017,3.193,3.1507,3.078,3.0354,2.9844,2.9114,2.8439,2.7856,2.7348,0.0,0.0,0.0,0.0,0.0,0.0,0.0,0.0,0.0,0.0,0.0,0.0,0.0,0.0,0.0,0.0,0.0,0.0,0.0,0.0,0.0,0.0,0.0,0.0,0.0,0.0,0.0,0.0,0.0,0.0,0.0,0.0,0.0,0.0,0.0,0.0,0.0,0.0,0.0,0.0,0.0,0.0,0.0,0.0,0.0,0.0,0.0,0.0,0.0,0.0,0.0,0.0,0.0,1.9544,1.9202,2.0115,2.0345,1.9788,1.9128,1.8539,1.7988,1.7449,1.6659,1.5582,0.0,0.0,0.0,0.0,0.0,0.0,0.0,0.0,0.0,0.0,0.0,0.0,0.0,0.0,0.0,0.0,0.0,0.0,0.0,0.0,0.0,0.0,0.0,0.0,0.0,0.0,1.9499,1.9625,1.9751,0.0,0.0,0.0,0.0,0.0,0.0,0.0,0.0,0.0,0.0,3.0942,3.1682,3.2798,3.223,3.1641,3.1352,3.0638,2.9883,2.926,2.8559,2.7769,0.0,0.0,0.0,0.0,0.0,0.0,0.0,0.0,0.0,0.0,0.0,0.0,0.0,0.0,0.0,0.0,0.0,0.0,0.0,0.0,0.0,0.0,0.0,0.0,0.0,0.0,0.0,1.8419,1.8599,0.0,0.0,0.0,0.0,0.0,0.0,0.0,0.0,0.0,0.0,0.0,2.1721,2.1334,0.0,0.0,0.0,0.0,0.0,0.0,0.0,0.0,0.0,0.0,0.0,0.0,1.9678,1.9416,2.0426,2.0713,2.007,1.9624,1.9072,1.8403,1.7982,1.7163,1.5971,0.0,0.0,0.0,0.0,0.0,0.0,0.0,0.0,0.0,0.0,0.0,0.0,0.0,0.0,0.0,0.0,0.0,0.0,0.0,0.0,0.0,0.0,0.0,0.0,0.0,1.915,0.0,0.0,0.0,0.0,0.0,0.0,0.0,0.0,0.0,0.0,0.0,2.9041,3.1035,3.1796,3.2392,3.2988,3.2435,3.1576,0.0,0.0,0.0,0.0,0.0,0.0,0.0,0.0,0.0,0.0,0.0,0.0,0.0,0.0,3.0898,2.9561,2.9507,2.9354,2.8338,0.0,0.0,0.0,0.0,0.0,0.0,0.0,0.0,0.0,0.0,0.0,0.0,0.0,0.0,0.0,0.0,2.008,0.0,0.0,0.0,0.0,0.0,0.0,0.0,0.0,2.1852,2.2551,2.3181,2.3098,2.312,0.0,2.2828,2.1934,0.0,0.0,0.0,0.0,0.0,0.0,0.0,0.0,2.0004,2.0057,2.0918,2.1103,2.0532,2.0156,1.9645,1.8978,1.8414,1.7704,1.6771,1.6062,1.561,0.0,0.0,0.0,0.0,0.0,0.0,0.0,0.0,0.0,0.0,0.0,0.0,0.0,0.0,0.0,0.0,0.0,0.0,0.0,0.0,0.0,0.0,0.0,1.9849,0.0,0.0,0.0,0.0,0.0,0.0,0.0,0.0,0.0,2.7102,2.8958,3.0737,3.1934,3.2649,3.3099,3.3181,0.0,0.0,0.0,0.0,0.0,0.0,0.0,2.8399,2.8844,2.8818,2.9,2.9789,3.0859,3.1789,3.2387,0.0,0.0,3.1738,3.1692,3.1687,3.0956,3.1248,3.1442,3.0895,3.0556,3.0324,0.0,0.0,0.0,0.0,0.0,0.0,0.0,0.0,2.28,2.2735,0.0,2.1671,0.0,0.0,0.0,0.0,0.0,0.0,0.0,0.0,2.3908,2.4805,2.491,2.5697,2.5749,2.499,2.4903,2.4104,2.262,2.1593,0.0,0.0,0.0,0.0,0.0,0.0,2.0581,2.1194,2.1545,2.1524,2.1118,2.0747,2.0244,1.963,1.8864,1.8322,1.804,1.7427,1.7117,1.7204,1.6333,0.0,0.0,0.0,0.0,0.0,0.0,0.0,0.0,0.0,0.0,0.0,0.0,0.0,0.0,0.0,0.0,0.0,0.0,0.0,0.0,2.069,0.0,0.0,0.0,0.0,0.0,0.0,0.0,0.0,0.0,0.0,2.9495,3.086,3.2101,3.2736,0.0,0.0,0.0,0.0,3.2315,3.1719,3.1172,3.0707,3.0327,2.9712,2.9407,2.9736,0.0,0.0,3.0651,3.1824,3.2773,3.3179,3.4178,3.4595,3.3299,3.3577,3.3821,3.337,3.3301,3.337,3.33,3.2547,3.2015,2.6482,0.0,0.0,0.0,0.0,2.3981,2.4502,2.5155,2.4712,2.4629,2.4755,2.4041,0.0,0.0,0.0,0.0,0.0,0.0,2.3393,2.4019,2.4125,2.4236,2.433,2.4657,2.463,2.4371,2.4361,2.4065,2.3539,2.3213,2.2286,2.08,0.0,0.0,0.0,0.0,2.1492,2.1628,2.2053,2.2127,2.182,2.1414,2.0894,2.0277,1.9743,1.938,1.914,1.8817,1.8517,1.8294,1.8083,0.0,0.0,0.0,0.0,0.0,0.0,0.0,0.0,0.0,0.0,0.0,0.0,0.0,0.0,0.0,0.0,0.0,0.0,0.0,2.0698,2.157,2.1926,0.0,0.0,0.0,0.0,0.0,0.0,0.0,0.0,0.0,3.189,3.2404,3.2875,0.0,0.0,3.3762,3.3437,3.3083,3.2472,3.1427,0.0,0.0,0.0,3.059,3.0946,3.1296,3.1654,3.2103,3.2669,3.3186,3.3666,3.4109,3.4613,3.485,3.4743,3.4952,3.4927,3.4384,3.4684,3.4702,3.3663,3.3183,3.2842,2.9106,2.7047,2.6224,2.5898,2.5993,2.6157,2.6548,2.7092,2.6959,2.6775,2.6601,2.6117,2.584,2.5715,2.5555,0.0,0.0,0.0,2.4694,2.4924,2.4925,2.4793,2.4598,2.4977,2.4959,2.4627,2.4609,2.4424,2.4027,2.4027,2.3466,2.2419,0.0,0.0,2.1642,2.1956,2.2228,2.2453,2.2618,2.2586,2.2381,2.1922,2.1445,2.0959,2.055,2.0246,2.0056,1.9882,1.97,1.9524,1.9365,1.9061,0.0,0.0,0.0,0.0,0.0,0.0,0.0,0.0,0.0,0.0,0.0,1.8426,0.0,0.0,0.0,0.0,2.0463,2.1136,2.206,2.2937,0.0,0.0,0.0,0.0,0.0,0.0,0.0,2.942,3.059,3.1757,3.297,3.3396,3.3675,3.3955,3.3972,3.3881,3.3629,0.0,3.2964,3.2092,3.2134,3.2021,3.1411,3.1708,3.2143,3.2467,3.2939,3.3368,3.3712,3.3959,3.4127,3.4172,3.4377,3.4492,3.4376,3.453,3.4677,3.4523,3.4685,3.4499,3.3552,3.3142,3.2712,3.1222,3.0462,2.9233,2.8674,2.8661,2.8805,2.8913,2.9056,2.9313,2.9042,2.8335,2.7908,2.7411,2.6821,2.634,0.0,0.0,2.6263,2.5848,2.5245,2.6056,2.601,2.5277,2.6033,2.6035,2.5303,2.5321,2.4936,2.4238,2.422,2.4229,2.4192,2.3239,2.2745,2.2707,2.2594,2.2869,2.3513,2.3206,2.2979,2.2835,2.2327,2.1953,2.1702,2.1306,2.1007,2.0813,2.0698,2.0697,2.0877,2.0368,2.0168,2.0326,0.0,0.0,0.0,0.0,0.0,0.0,0.0,0.0,0.0,0.0,0.0,0.0,0.0,0.0,0.0,2.1905,0.0,2.3623,2.4617,0.0,0.0,0.0,2.6874,2.7083,2.7902,2.879,2.9717,0.0,0.0,0.0,0.0,3.4345,3.4166,3.4136,3.4074,3.3952,3.3788,3.3625,3.331,3.3247,3.3096,3.28,3.2901,3.3054,3.3317,3.3528,3.3673,3.3844,3.4032,3.4009,3.3544,3.3701,3.3734,3.3019,3.3084,3.3286,3.4076,3.3796,3.3339,3.3215,3.2691,3.2147,3.2022,3.183,3.1515,3.0851,3.003,3.0048,3.0445,3.1052,3.0751,3.0243,2.9623,2.9121,2.8629,2.8111,2.7555,2.7643,2.8183,2.7072,2.6484,2.63,2.5913,2.5298,2.4561,2.4754,2.4754,2.4579,2.4617,2.4552,2.4364,2.4399,2.4452,2.4478,2.4241,2.4025,2.3831,2.3734,2.3785,2.3951,2.3674,2.3421,2.32,2.2905,2.2656,2.2428,2.2144,2.1931,2.1861,2.17,2.1687,2.1776,2.1695,2.1463,2.1069,2.0251,0.0,0.0,0.0,0.0,0.0,0.0,0.0,0.0,0.0,1.9446,1.9722,0.0,2.1163,0.0,2.3396,2.4457,2.4737,2.5586,0.0,0.0,2.7216,2.7857,2.8042,2.8933,2.9849,3.0745,3.1206,3.1955,3.3336,3.3654,3.3934,3.4465,3.439,3.4209,3.4074,3.4023,3.3928,3.3765,3.3711,3.3675,3.3538,3.3657,3.3737,3.3967,3.3519,3.3231,3.3433,3.3031,3.276,3.2807,3.2963,3.3057,3.3018,3.26,3.231,3.2568,3.2959,3.3112,3.2557,3.2224,3.1911,3.2555,3.2555,3.2605,3.2223,3.16,3.1464,3.1672,3.2109,3.1877,3.1457,3.082,3.0028,2.9352,2.8857,2.8544,2.8647,2.9001,2.821,2.7483,2.677,2.6357,2.5542,2.442,2.4374,2.4374,2.4401,2.4462,2.4495,2.4534,2.4634,2.4696,2.4734,2.4734,2.4662,2.4559,2.44,2.4302,2.4284,2.4058,2.3827,2.362,2.3434,2.3254,2.3057,2.2822,2.2656,2.2552,2.2436,2.2368,2.2391,2.2472,2.2357,2.2022,2.1344,2.0788,0.0,0.0,0.0,0.0,0.0,0.0,0.0,0.0,0.0,0.0,0.0,2.2319,0.0,0.0,0.0,2.5724,2.6609,2.7203,2.7307,2.819,2.8849,2.9039,2.9626,3.0337,3.1186,3.1313,3.18,3.2971,3.3125,3.324,3.3667,3.3582,3.3703,3.4244,3.436,3.4213,3.3773,3.3675,3.3515,3.314,3.3106,3.3205,3.329,3.3018,3.2792,3.2912,3.2673,3.2384,3.2254,3.2289,3.2262,3.2067,3.1697,3.1391,3.1503,3.1826,3.1983,3.161,3.1503,3.1342,3.3051,3.2977,3.3055,3.3068,3.307,3.277,3.264,3.2589,3.2798,3.2522,3.1848,3.067,2.9888,2.9399,2.936,2.9339,2.9343,2.9334,2.8545,2.7131,2.7056,2.6197,2.4713,2.4601,2.4545,2.4526,2.4588,2.4689,2.4753,2.4877,2.4946,2.4942,2.4942,2.498,2.5019,2.4779,2.4618,2.4528,2.4329,2.4192,2.4057,2.3937,2.3795,2.361,2.3403,2.3265,2.3147,2.2996,2.2935,2.2935,2.2967,2.3014,2.3,2.2353,2.196,0.0,2.1204,0.0,0.0,0.0,0.0,0.0,0.0,0.0,0.0,2.2674,2.3456,2.5025,2.5296,2.5771,2.6722,2.7645,2.8229,2.8321,2.911,2.9719,2.9912,3.0049,3.0421,3.1166,3.1324,3.1642,3.2367,3.2485,3.2478,3.2649,3.2718,3.3111,3.415,3.4358,3.4044,3.3392,3.3316,3.3051,3.2467,3.226,3.2326,3.2372,3.2322,3.2305,3.2373,3.234,3.2197,3.1709,3.1592,3.1452,3.0826,3.0764,3.075,3.0848,3.0906,3.0914,3.0877,3.0878,3.0766,3.3984,3.3408,3.3444,3.3488,3.3488,3.3488,3.3324,3.3083,3.3283,3.3089,3.2506,3.1122,3.046,3.036,2.9808,2.9549,2.954,2.9607,2.912,2.8169,2.7495,2.6674,2.5789,2.5066,2.4746,2.4753,2.4818,2.4881,2.4942,2.5025,2.5091,2.5143,2.5143,2.5149,0.0,0.0,0.0,0.0,2.4567,2.4485,2.4391,2.4284,2.4182,2.4154,2.3949,0.0,2.3806,2.3682,2.3628,2.3617,2.361,0.0,0.0,0.0,0.0,0.0,0.0,0.0,0.0,0.0,0.0,0.0,2.2484,2.2492,2.2708,2.3442,2.4317,2.5335,2.6026,2.6816,2.7808,2.8686,2.9259,2.9382,2.966,2.992,3.0042,3.0166,3.035,3.0484,3.0578,3.0948,3.1712,3.1866,3.2122,3.2679,3.2897,3.3,3.323,3.3169,3.2967,3.2779,3.273,3.2684,3.2551,3.2488,3.2416,3.2562,3.2048,3.1748,3.1725,3.1306,3.0981,3.081,3.0885,3.0918,3.0798,3.0791,3.0783,3.0791,3.0799,3.0801,3.08,3.0788,3.0778,3.4664,0.0,3.3967,3.386,0.0,3.3947,3.3915,3.3792,3.3743,3.3466,3.2915,3.1745,3.1096,3.0816,3.0058,2.971,2.9737,2.9782,2.9362,2.8596,2.8187,2.7373,2.6241,2.5797,2.5367,2.5013,2.5012,2.508,2.5145,2.5206,2.5259,2.5293,2.5293,2.5293,2.5293,2.5312,2.517,2.4905,2.4832,2.4756,2.47,2.4634,2.4553,2.4505,0.0,0.0,0.0,0.0,0.0,0.0,0.0,0.0,0.0,0.0,0.0,2.3341,2.2985,2.2803,2.2831,2.2887,2.3124,2.3611,2.3745,2.3736,2.3621,2.4026,2.4681,2.5578,2.6432,2.7317,2.8259,2.9157,2.9727,2.9796,2.9907,3.0046,3.0152,3.026,3.0355,3.0394,3.046,3.0689,3.1095,3.1158,3.1337,3.1773,3.1859,3.1883,3.1927,3.243,3.2685,3.2282,3.1783,3.1578,3.1578,3.1571,3.1647,3.153,3.1276,3.1088,3.1139,3.0834,3.0614,3.0635,3.0719,3.0755,3.0776,3.0796,3.0791,3.08,3.0799,3.079,3.0795,3.0796,3.0767,3.547,3.5169,3.4612,3.4327,3.4209,3.4298,3.4409,3.4454,0.0,0.0,0.0,3.2564,3.183,3.1205,3.0419,3.0009,2.9937,2.9948,2.9597,2.8998,2.8874,2.8134,2.6884,2.6737,2.6315,2.5686,2.5545,2.5494,2.5524,2.5475,2.541,2.5432,2.5412,2.5412,2.5427,2.543,2.5337,2.5164,2.5093,2.5019,2.4961,2.4954,2.4898,2.4772,2.4708,2.4623,2.4499,2.4431,2.4398,2.4384,2.4402,2.4357,2.4293,2.4293,2.4257,2.4229,2.4229,2.4248,2.4302,2.4353,2.4422,2.4472,2.4615,2.4618,2.4491,2.4469,2.4864,2.577,2.6695,2.7589,2.846,2.9393,2.994,2.998,3.0064,3.0166,3.0248,3.0354,3.0472,3.051,3.0577,3.0602,3.0649,3.0669,3.0653,3.0707,3.0853,3.0713,3.0859,3.1755,3.2217,3.1656,3.1105,3.061,3.0557,3.0619,3.0554,3.066,3.0599,3.0568,3.0665,3.0704,3.0712,3.0711,3.0771,3.0792,3.0792,3.0799,3.0801,3.0795,3.0781,3.0794,3.0779,3.0759,3.071,3.6864,3.5598,3.5574,3.5199,3.4623,3.4634,3.467,3.4742,3.4575,3.4526,3.4521,3.3663,3.2892,3.2152,3.1423,3.0711,3.0099,3.0128,3.0115,0.0,2.9309,2.8892,2.87,2.8016,2.7628,2.7464,2.6814,2.6502,2.6423,2.584,2.5476,2.5498,2.5478,2.5487,2.5488,2.5484,2.5464,2.5427,2.5322,2.5225,2.5154,2.5145,2.5136,2.5056,2.4968,2.4922,2.4847,2.4804,2.4791,2.4745,2.4745,2.4703,2.4626,2.4618,2.4653,2.4703,2.4703,2.4707,2.4716,2.4738,2.4756,2.484,2.49,2.4903,2.4749,2.4734,2.5118,2.5997,2.684,2.7752,2.8666,2.9527,3.0114,3.0221,3.0305,3.0392,3.0447,3.0506,3.0563,3.0585,3.0665,3.0688,3.0685,3.0673,3.0714,3.0769,3.078,3.0794,3.0799,3.0911,3.0973,3.0873,3.0759,3.0682,3.0665,3.0678,3.0667,3.0667,3.065,3.0682,3.0713,3.0751,3.0768,3.0776,3.0793,3.08,3.08,3.0795,3.0784,3.0788,3.0763,3.0725,3.0714,3.0614,3.0537,3.7954,3.7197,3.6384,3.5821,3.5493,3.5097,3.4945,3.5009,3.4992,3.4974,3.487,3.4073,3.3538,3.3168,3.1958,3.1193,3.0837,3.0477,3.0336,3.0377,2.9998,2.9599,2.9217,2.883,2.8427,2.8008,2.766,2.7466,2.7383,2.6611,2.6214,2.6162,2.5793,2.5557,2.5564,2.5564,2.5541,2.555,2.5468,2.5384,2.5298,2.5317,2.5288,2.5222,2.5174,2.5097,2.5,2.5006,2.498,2.4907,2.49,2.4886,2.4872,2.4879,2.4879,2.4912,2.4919,2.4907,2.4915,2.4936,2.4987,2.5043,2.508,2.5099,2.5069,2.5006,2.5132,2.5558,2.6778,2.7791,2.8249,2.9474,3.0297,3.0389,3.0439,3.0486,3.054,3.061,3.0653,3.0655,3.0709,3.076,3.0747,3.0755,3.0771,3.0799,3.0789,3.0797,3.0799,3.0774,3.0761,3.0768,3.0764,3.0764,3.0744,3.0747,3.075,3.077,3.0756,3.0762,3.0767,3.0795,3.0798,3.0801,3.0799,3.0793,3.0786,3.0767,3.0761,3.0733,3.0694,3.0641,3.0593,3.0456,3.0346,3.8833,3.8559,3.7356,3.6634,3.6232,3.549,3.5195,3.5246,3.532,3.5289,3.5114,3.4522,3.4163,3.3903,3.2498,3.1744,3.1463,3.0762,3.0458,3.053,3.0535,3.0187,2.9683,2.9617,2.9291,2.8702,2.8515,2.843,2.8304,2.7548,2.7004,2.679,2.6187,2.5799,2.5599,2.5601,2.5601,2.5599,2.5551,2.5506,2.5457,2.5437,2.5389,2.5345,2.5337,2.5274,2.5182,2.5152,2.5138,2.5074,2.5081,2.5075,2.5043,2.5043,2.505,2.5075,2.5062,2.5074,2.5091,2.5138,2.5187,2.5234,2.5244,2.5284,2.5356,2.5452,2.5458,2.5609,2.693,2.792,2.8336,2.9524,3.0462,3.053,3.0528,3.0582,3.0634,3.0688,3.0709,3.0728,3.0769,3.0791,3.0795,3.0789,3.0798,3.0801,3.08,3.0796,3.0794,3.0791,3.0795,3.08,3.0801,3.0799,3.08,3.08,3.08,3.08,3.0801,3.0801,3.0799,3.0798,3.0776,3.0766,3.0774,3.0758,3.0761,3.0708,3.0671,3.0651,3.0595,3.052,3.0428,3.0254,3.015,3.9576,3.9002,3.877,3.7871,3.6523,3.5722,3.5409,3.5385,3.5445,3.547,3.5425,3.5318,3.4836,3.4128,3.3262,3.2444,3.1689,3.0868,3.0559,3.0591,3.0604,3.0571,3.0525,3.0554,3.0529,3.0306,2.9694,2.9377,2.9323,2.8498,2.7684,2.6965,2.6809,2.6396,2.5712,2.5632,2.5615,2.5615,2.5609,2.5586,2.5592,2.5515,2.5479,2.5482,2.5491,2.5464,2.5357,2.5359,2.5346,2.5288,2.5262,2.5241,2.5201,2.5176,2.5206,2.5271,2.5273,2.5308,2.5355,2.5369,2.5382,2.5385,2.5382,2.5422,2.5542,2.6195,2.6583,2.6725,2.7426,2.8323,2.9089,3.001,3.0563,3.0591,3.0639,3.0691,3.07,3.0745,3.0792,3.0792,3.0782,3.0795,3.0796,3.0801,3.0795,3.0784,3.0778,3.0791,3.0776,3.079,3.0786,3.0794,3.0799,3.0796,3.0797,3.0792,3.0787,3.0785,3.0796,3.0791,3.0786,3.078,3.0788,3.072,3.0714,3.0706,3.0695,3.0653,3.0571,3.0519,3.0447,3.0364,3.0181,3.0023,2.9929,4.0164,3.9824,3.9384,3.8253,3.682,3.6414,3.5982,3.5538,3.5599,3.5626,3.5623,3.564,3.5419,3.4959,3.4188,3.3363,3.2551,3.1713,3.1068,3.0692,3.0671,3.0688,3.0749,3.0748,3.0762,3.075,3.0412,3.025,3.0108,2.9396,2.8543,2.7822,2.7725,2.7294,2.6493,2.6434,2.6181,2.5672,2.5651,2.5644,2.5662,2.5586,2.5554,2.5556,2.556,2.5518,2.5475,2.5467,2.543,2.5422,2.5432,2.5415,2.5387,2.5387,2.5391,2.54,2.5406,2.5434,2.5441,2.5464,2.5478,2.5522,2.5528,2.5719,2.6273,2.6657,2.7223,2.819,2.8621,2.9011,2.9444,3.0179,3.0665,3.0712,3.0738,3.0754,3.0763,3.0792,3.0786,3.0787,3.0799,3.0801,3.08,3.0793,3.0791,3.0765,3.0733,3.074,3.0737,3.0728,3.0736,3.0688,3.0695,3.0689,3.0732,3.0745,3.0735,3.073,3.0726,3.0738,3.0723,3.0734,3.0719,3.0646,3.0621,3.0587,3.0567,3.0525,3.0462,3.0378,3.0286,3.0166,2.9977,2.982,2.9707,4.0564,4.0436,3.9688,3.8704,3.7602,3.714,3.6609,3.6028,3.582,3.5747,3.573,3.5791,3.5778,3.5567,3.4826,3.4117,3.3498,3.2435,3.1624,3.1086,3.0851,3.0767,3.0801,3.0793,3.0784,3.0794,3.0776,3.0807,3.0744,3.0221,2.9462,2.8762,2.8664,2.8235,2.7415,2.7141,2.6691,2.6104,2.585,2.569,2.5702,2.5658,2.563,2.5627,2.5612,2.5582,2.5535,2.551,2.5523,2.5531,2.5531,2.5522,2.5518,2.5538,2.5522,2.5525,2.5522,2.5537,2.5513,2.5532,2.5563,2.562,2.5805,2.6247,2.6848,2.7342,2.8152,2.9198,2.9667,2.9808,2.99,3.0375,3.072,3.0796,3.0788,3.0796,3.0783,3.0796,3.08,3.08,3.0798,3.0787,3.078,3.076,3.0747,3.0684,3.0662,3.0665,3.0641,3.0626,3.0614,3.0567,3.0582,3.0618,3.0678,3.0682,3.0669,3.0665,3.0665,3.0632,3.0633,3.0638,3.0618,3.0527,3.0492,3.0467,3.0422,3.0381,3.0273,3.0163,3.0075,2.9948,2.9751,2.9598,2.9465,4.0687,4.0565,3.983,3.9495,3.9329,3.7815,3.7096,3.6882,3.6188,3.5818,3.5817,3.5872,3.5888,3.5816,3.5035,3.4577,3.428,3.2855,3.2074,3.1895,3.1205,3.0806,3.0798,3.0788,3.0794,3.0799,3.0785,3.0832,3.0877,3.0818,3.0409,2.9609,2.9551,2.9101,2.8281,2.7539,2.7012,2.6894,2.6171,2.5739,2.5715,2.5711,2.5701,2.5676,2.5623,2.5598,2.5595,2.5587,2.5602,2.5602,2.561,2.5583,2.5603,2.5603,2.5588,2.56,2.5602,2.5587,2.5595,2.5598,2.5621,2.5749,2.6406,2.6961,2.7281,2.8397,2.9262,2.9522,3.0246,3.0632,3.064,3.0696,3.0778,3.0788,3.0793,3.0797,3.0799,3.08,3.0798,3.0795,3.08,3.0769,3.0703,3.0709,3.0675,3.0622,3.0595,3.0578,3.0543,3.051,3.0496,3.0492,3.0515,3.053,3.0589,3.0597,3.0589,3.0585,3.0548,3.0506,3.0501,3.0482,3.0456,3.0444,3.0394,3.0342,3.0292,3.0188,3.0037,2.9931,2.9853,2.9717,2.9532,2.9405,2.927,4.0844,4.0825,4.0567,4.017,3.9614,3.9045,3.8212,3.718,3.6836,3.6362,3.5928,3.5902,3.5934,3.5945,3.5648,3.5169,3.4586,3.3955,3.3148,3.2182,3.1768,3.1346,3.0821,3.0849,3.0872,3.0854,3.0818,3.0839,3.0898,3.0917,3.0741,3.0506,3.0428,2.9998,2.9236,2.8807,2.8397,2.7792,2.6991,2.6543,2.6445,2.5996,2.5702,2.5696,2.5665,2.5673,2.5673,2.5672,2.5671,2.5671,2.5663,2.566,2.5658,2.566,2.5663,2.5669,2.5671,2.5672,2.5675,2.5658,2.5917,2.647,2.6788,2.7534,2.8493,2.9236,2.9765,3.0254,3.0566,3.0801,3.08,3.0801,3.08,3.0801,3.08,3.0798,3.0793,3.0784,3.0795,3.0786,3.0759,3.0712,3.0658,3.0633,3.0603,3.0534,3.0545,3.0501,3.0451,3.0444,3.0422,3.0375,3.0365,3.0373,3.034,3.0428,3.0469,3.0469,3.0439,3.0403,3.04,3.0371,3.0342,3.026,3.0247,3.0192,3.0109,2.9992,2.9845,2.9735,2.9655,2.9531,2.9341,2.9206,2.9052,4.0949,4.0968,4.1022,4.0688,4.0165,3.9906,3.9151,3.8003,3.7476,3.6896,3.6362,3.6077,3.5946,3.5994,3.6019,3.5684,3.5046,3.4812,3.4056,3.2952,3.2373,3.1791,3.1267,3.0995,3.0879,3.0879,3.0839,3.0817,3.0873,3.0871,3.0888,3.0848,3.0866,3.0593,3.0027,2.9715,2.9226,2.8622,2.7841,2.7316,2.6987,2.6441,2.5954,2.5741,2.5703,2.57,2.5696,2.5696,2.5696,2.5696,2.5694,2.5692,2.5692,2.5692,2.5694,2.5715,2.5989,2.6106,2.6184,2.6362,2.6814,2.7383,2.7715,2.8418,2.9471,2.9822,3.0249,3.0674,3.0788,3.0783,3.0794,3.0798,3.0786,3.0787,3.0783,3.0794,3.0758,3.0767,3.0767,3.072,3.0691,3.0637,3.057,3.0586,3.0525,3.0455,3.0442,3.0414,3.0359,3.0323,3.0311,3.0248,3.0241,3.02,3.0168,3.0227,3.0305,3.0292,3.0311,3.0292,3.026,3.0246,3.0206,3.0111,3.0045,2.9999,2.991,2.9789,2.9664,2.954,2.9451,2.933,2.9171,2.9014,2.8851,4.1042,4.1095,4.1098,4.1072,4.0877,4.0235,3.9813,3.9372,3.8102,3.7442,3.7058,3.6415,3.6085,3.6011,3.6013,3.5975,3.576,3.515,3.4701,3.4314,3.2987,3.2226,3.1952,3.1327,3.0933,3.081,3.0784,3.0798,3.0794,3.0812,3.0807,3.0801,3.0801,3.0762,3.076,3.0019,2.9572,2.9344,2.87,2.7942,2.7148,2.707,2.666,2.5979,2.5903,2.591,2.584,2.5742,2.5742,2.5781,2.5781,2.5742,2.5918,2.5937,2.584,2.6055,2.6582,2.6953,2.707,2.7695,2.8045,2.8373,2.9036,2.9384,2.9708,3.0293,3.0717,3.0764,3.0778,3.0788,3.0786,3.0777,3.0786,3.079,3.0788,3.0772,3.0711,3.0692,3.0675,3.0614,3.0606,3.0548,3.0515,3.0499,3.0447,3.0354,3.0305,3.0286,3.0227,3.0213,3.0159,3.0123,3.0121,3.0091,3.0046,3.0022,3.0091,3.0142,3.0171,3.0152,3.0109,3.0083,3.0026,2.9945,2.9855,2.9799,2.9654,2.9541,2.9454,2.9341,2.9265,2.9145,2.8975,2.881,2.865,4.1085,4.1115,4.1101,4.1108,4.1073,4.0805,4.042,3.9858,3.9253,3.8415,3.7421,3.7012,3.6562,3.6094,3.6015,3.6013,3.5973,3.5681,3.5272,3.4687,3.412,3.32,3.2239,3.1844,3.1387,3.0882,3.0798,3.079,3.0802,3.08,3.0798,3.0795,3.0793,3.0793,3.0774,3.052,3.0386,3.0291,2.955,2.8987,2.8677,2.8129,2.7679,2.7464,2.7425,2.7436,2.7374,2.6314,2.6027,2.6554,2.6593,2.6866,2.7334,2.749,2.7509,2.7529,2.7724,2.788,2.7919,2.817,2.8614,2.9036,2.9421,2.9822,3.0316,3.0609,3.0774,3.0735,3.073,3.0737,3.073,3.0727,3.072,3.0725,3.0734,3.0733,3.0681,3.0653,3.0597,3.055,3.053,3.0471,3.04,3.0373,3.033,3.0254,3.0174,3.0145,3.0128,3.0091,3.0026,2.9961,2.9964,2.9959,2.9918,2.9849,2.9855,2.9932,2.9964,2.9988,2.9959,2.9918,2.9849,2.9753,2.9673,2.956,2.9424,2.9322,2.9257,2.9127,2.9033,2.8881,2.8743,2.8605,2.8432,4.1114,4.1101,4.1103,4.1107,4.111,4.1112,4.082,4.0332,4.0,3.9237,3.8317,3.7885,3.7278,3.6614,3.6473,3.6273,3.6035,3.6013,3.5703,3.5142,3.4793,3.4047,3.3005,3.2331,3.1849,3.1278,3.0921,3.0755,3.0759,3.0778,3.0756,3.0753,3.0773,3.0773,3.0773,3.0753,3.0773,3.0673,3.0228,2.9777,2.9408,2.8921,2.8495,2.8223,2.8189,2.8196,2.813,2.7135,2.6877,2.7355,2.7454,2.7726,2.821,2.8229,2.8247,2.8303,2.8556,2.8732,2.879,2.9097,2.9404,2.9901,2.9968,3.0171,3.0664,3.0756,3.0742,3.0701,3.0688,3.0671,3.0665,3.0622,3.0622,3.0618,3.0633,3.0653,3.0632,3.0568,3.0496,3.0433,3.0406,3.0379,3.0292,3.0246,3.0199,3.0138,3.0072,3.0038,2.9999,2.9951,2.9883,2.9822,2.9834,2.9808,2.9773,2.9728,2.9645,2.969,2.9763,2.9771,2.9782,2.9746,2.9691,2.9561,2.9472,2.9382,2.9257,2.9171,2.91,2.8952,2.8828,2.8675,2.8549,2.8419,2.8259,4.111,4.1112,4.1112,4.1113,4.1112,4.1111,4.107,4.093,4.028,3.9828,3.9532,3.8882,3.8117,3.7492,3.7308,3.6891,3.621,3.6181,3.6055,3.5685,3.5184,3.4642,3.4246,3.2959,3.2255,3.1982,3.1248,3.0863,3.0905,3.0766,3.0704,3.0694,3.0694,3.069,3.0694,3.069,3.0694,3.0674,3.0635,3.0224,2.9602,2.9496,2.9149,2.8447,2.8481,2.8532,2.8554,2.8427,2.8294,2.8291,2.8372,2.8503,2.8418,2.8338,2.8509,2.8612,2.918,2.9472,2.9727,3.0112,3.0575,3.0603,3.0589,3.0691,3.0672,3.0697,3.068,3.0653,3.0633,3.0593,3.0572,3.0549,3.0496,3.0495,3.0545,3.055,3.049,3.0428,3.0383,3.0304,3.028,3.0279,3.0185,3.014,3.0061,3.0007,2.9934,2.9893,2.9851,2.9799,2.9736,2.97,2.9692,2.9673,2.9655,2.9579,2.9513,2.9513,2.9551,2.957,2.9598,2.9579,2.9531,2.9392,2.9289,2.92,2.9112,2.9021,2.8929,2.8828,2.8662,2.851,2.8349,2.8246,2.8095,4.1113,4.1111,4.1108,4.1105,4.1102,4.1099,4.1114,4.1087,4.0869,4.0354,3.9878,3.9572,3.8982,3.8241,3.8168,3.7687,3.7058,3.6893,3.6478,3.594,3.5658,3.5148,3.455,3.3553,3.296,3.2768,3.2034,3.1585,3.1526,3.0983,3.0688,3.0626,3.0661,3.0626,3.0626,3.0622,3.0626,3.0626,3.0645,3.0544,3.0331,3.0257,3.0199,3.0005,2.9916,2.9931,3.0023,3.0037,2.9732,2.926,2.9769,3.0041,2.9958,2.9939,2.9891,2.9955,3.0166,3.0377,3.0409,3.0584,3.0711,3.0713,3.0706,3.0668,3.0637,3.0629,3.0604,3.0573,3.053,3.0511,3.0476,3.0436,3.0392,3.0373,3.0408,3.0419,3.0367,3.033,3.0292,3.0187,3.0138,3.0113,3.0061,2.9972,2.9918,2.9849,2.9798,2.9717,2.971,2.9655,2.9598,2.9551,2.9551,2.9541,2.9512,2.9424,2.9355,2.9345,2.9353,2.937,2.939,2.9419,2.9357,2.9254,2.9163,2.9062,2.897,2.887,2.8779,2.8668,2.8502,2.83,2.8191,2.8067,2.7893,4.1103,4.1116,4.1112,4.1106,4.1103,4.1113,4.1105,4.1098,4.1047,4.0805,4.0385,4.0312,3.9835,3.9052,3.8994,3.8512,3.7782,3.7677,3.7176,3.6402,3.5935,3.5516,3.4991,3.4233,3.3786,3.3649,3.288,3.2475,3.2264,3.1534,3.1157,3.1046,3.0728,3.0549,3.0568,3.0549,3.0568,3.0568,3.0568,3.0549,3.0549,3.0586,3.06,3.0604,3.0613,3.0633,3.0645,3.0642,3.0411,3.017,3.0448,3.0698,3.0711,3.0711,3.0701,3.066,3.066,3.0637,3.0668,3.0661,3.0649,3.0653,3.0621,3.0595,3.0568,3.053,3.0496,3.0451,3.0425,3.0392,3.0364,3.0348,3.0305,3.024,3.0233,3.0233,3.0219,3.0232,3.019,3.0091,3.003,2.9983,2.9926,2.9851,2.98,2.9738,2.9636,2.9608,2.956,2.9521,2.9481,2.9443,2.9402,2.9382,2.9372,2.931,2.9259,2.9238,2.9214,2.92,2.9211,2.9251,2.9197,2.9108,2.9023,2.8918,2.8816,2.8712,2.8605,2.8463,2.8291,2.814,2.8011,2.7896,2.7719,4.1106,4.1109,4.1087,4.1081,4.1086,4.1075,4.1067,4.1061,4.102,4.0983,4.0917,4.0957,4.0478,3.9836,3.9792,3.9332,3.8531,3.8475,3.7909,3.7114,3.6392,3.5907,3.5819,3.5018,3.4656,3.4478,3.3737,3.335,3.303,3.2333,3.1951,3.1742,3.1118,3.0721,3.0732,3.0611,3.0485,3.0495,3.0505,3.0505,3.051,3.0554,3.0569,3.0578,3.0582,3.0576,3.0604,3.0589,3.0567,3.0653,3.0699,3.0695,3.068,3.0696,3.0661,3.0621,3.0574,3.0593,3.0589,3.0576,3.0586,3.0577,3.0521,3.0486,3.0495,3.0444,3.0392,3.0364,3.0303,3.0298,3.0267,3.0233,3.0164,3.0087,3.0046,3.0019,3.0049,3.0068,3.0057,2.9972,2.991,2.9851,2.9782,2.9729,2.9673,2.9598,2.9531,2.9482,2.9433,2.9382,2.9351,2.933,2.9267,2.9222,2.9211,2.92,2.9178,2.9127,2.9112,2.9078,2.9067,2.9067,2.901,2.8947,2.8882,2.8798,2.8675,2.8562,2.8437,2.8304,2.8154,2.7982,2.7806,2.7721,2.7587,4.1111,4.1103,4.1042,4.1029,4.1023,4.1022,4.0988,4.0957,4.0925,4.0928,4.093,4.0922,4.0796,4.0602,4.048,4.0116,3.9374,3.9228,3.8824,3.7926,3.7047,3.6676,3.6508,3.5857,3.5456,3.5159,3.448,3.4086,3.3826,3.3241,3.2742,3.2626,3.1921,3.1433,3.1394,3.086,3.0485,3.0485,3.0504,3.0479,3.0479,3.0495,3.0525,3.051,3.052,3.052,3.0535,3.0515,3.0545,3.055,3.058,3.0625,3.0632,3.0632,3.0591,3.054,3.0525,3.0521,3.052,3.0515,3.051,3.0505,3.0455,3.0422,3.0414,3.0365,3.0298,3.0254,3.0221,3.0188,3.0133,3.0079,3.0019,2.9945,2.9916,2.9904,2.9841,2.9874,2.9893,2.9806,2.9745,2.9719,2.9645,2.957,2.9521,2.9453,2.9458,2.938,2.9402,2.9424,2.9476,2.9576,2.944,2.9403,2.9134,2.9149,2.9195,2.9272,2.9262,2.9386,2.9356,2.9063,2.9082,2.8956,2.8791,2.8674,2.8554,2.8375,2.8242,2.8136,2.8011,2.7836,2.7689,2.7572,2.745,4.1672,4.1623,4.1147,4.0941,4.0957,4.0963,4.0941,4.0907,4.0878,4.0869,4.0854,4.0853,4.0867,4.0867,4.0796,4.0508,4.0097,3.9661,3.927,3.8633,3.7899,3.7481,3.7437,3.6972,3.6501,3.5722,3.517,3.4934,3.4685,3.4069,3.3581,3.3498,3.2696,3.2318,3.2164,3.1457,3.113,3.0975,3.0634,3.0461,3.0461,3.0458,3.0474,3.0485,3.0485,3.0485,3.049,3.0485,3.0485,3.0514,3.053,3.054,3.0569,3.0545,3.053,3.051,3.0481,3.0471,3.0469,3.0447,3.0431,3.0425,3.0371,3.0336,3.0299,3.0267,3.0227,3.0154,3.013,3.0079,3.0022,2.9983,2.9918,2.9813,2.9835,2.9924,3.0095,3.0,2.9774,2.9664,2.9636,2.9569,2.9502,2.9658,2.9533,2.9527,2.9983,2.9976,3.015,3.015,3.009,3.0067,2.983,2.9593,2.9195,2.9125,2.9239,2.9423,2.9643,2.9922,3.015,2.9695,2.9204,2.9014,2.8775,2.8557,2.8402,2.8219,2.8059,2.7936,2.7806,2.7689,2.7554,2.7434,2.7326,4.2474,4.2419,4.16,4.1222,4.1077,4.1116,4.1013,4.0867,4.0826,4.079,4.0784,4.0765,4.0767,4.0773,4.0769,4.0725,4.0481,4.005,3.9617,3.9482,3.8691,3.8337,3.8221,3.7906,3.7308,3.6042,3.5836,3.5759,3.5335,3.486,3.443,3.4257,3.3526,3.3154,3.2936,3.2333,3.1878,3.1807,3.1345,3.105,3.0935,3.0843,3.0673,3.0458,3.0483,3.0477,3.0477,3.0458,3.0458,3.0463,3.0477,3.0477,3.0458,3.0488,3.0463,3.0463,3.0453,3.0411,3.0383,3.0359,3.0349,3.0286,3.0267,3.0234,3.02,3.0166,3.0135,3.0141,3.0144,3.0235,3.0084,3.0409,3.0327,3.0198,3.0124,3.0348,3.0673,3.0394,3.0215,3.014,3.0314,3.0327,3.0145,3.0121,2.9845,2.9735,3.0235,3.0602,3.0775,3.0874,3.0783,3.0698,3.0508,3.0399,3.0044,2.9838,2.9868,2.9922,3.017,3.0394,3.0717,3.0234,2.9656,2.9055,2.876,2.8537,2.829,2.8059,2.7886,2.7745,2.763,2.7524,2.7402,2.7279,2.7166,4.3277,4.3213,4.3045,4.2588,4.1967,4.1898,4.1468,4.0889,4.0782,4.0732,4.0707,4.0642,4.0636,4.0648,4.0622,4.0635,4.0551,4.0337,4.0291,4.0149,3.9492,3.9112,3.9008,3.859,3.7959,3.7516,3.703,3.6401,3.5784,3.5341,3.527,3.509,3.4417,3.3987,3.3757,3.3179,3.2718,3.2679,3.2372,3.2237,3.2122,3.1743,3.1185,3.0748,3.0729,3.0671,3.055,3.0442,3.0328,3.0348,3.0343,3.0388,3.0515,3.0571,3.0519,3.0359,3.0336,3.0336,3.0299,3.026,3.0241,3.0195,3.0154,3.0138,3.0109,3.0133,3.0231,3.0292,3.0574,3.0836,3.0819,3.1186,3.1588,3.1584,3.1439,3.1499,3.1613,3.1525,3.1413,3.1469,3.1436,3.1188,3.0921,3.0746,3.0683,3.0674,3.1033,3.1292,3.1409,3.1446,3.1421,3.1336,3.1244,3.1157,3.1034,3.0885,3.0821,3.0784,3.0894,3.0885,3.0976,3.0636,3.0145,2.9743,2.907,2.8584,2.828,2.8131,2.7965,2.7992,2.7733,2.7456,2.7294,2.7166,2.7071,4.4092,4.4042,4.3561,4.3111,4.2672,4.2228,4.1796,4.1338,4.0861,4.0655,4.0635,4.0602,4.0588,4.0588,4.0588,4.0581,4.0598,4.0576,4.0557,4.0388,4.0111,3.9903,3.9903,3.9427,3.9053,3.8688,3.8214,3.7606,3.6796,3.6334,3.6154,3.5923,3.5276,3.4891,3.468,3.4007,3.3641,3.3526,3.3199,3.2929,3.2923,3.2474,3.2026,3.1757,3.1604,3.1655,3.1636,3.161,3.1597,3.1635,3.1622,3.1589,3.1551,3.1468,3.1168,3.0548,3.0337,3.0285,3.0252,3.018,3.0152,3.013,3.0117,3.0034,3.0136,3.0327,3.066,3.1025,3.1177,3.1523,3.1529,3.1892,3.1942,3.1923,3.1935,3.2113,3.2286,3.2332,3.2518,3.2634,3.2061,3.1668,3.1508,3.1443,3.1506,3.1679,3.19,3.1998,3.2065,3.218,3.2228,3.1983,3.186,3.1605,3.1589,3.1546,3.1556,3.1596,3.157,3.1575,3.1544,3.1324,3.1072,3.0754,2.9965,2.9151,2.9162,2.9303,2.8811,2.8287,2.8146,2.7899,2.7389,2.707,2.7145,4.4905,4.4834,4.4112,4.3692,4.3413,4.2806,4.2249,4.1796,4.1198,4.0793,4.06,4.0593,4.0586,4.0586,4.0566,4.0564,4.0573,4.0531,4.0504,4.0485,4.0446,4.0458,4.0477,4.0439,4.0092,3.9592,3.9457,3.8996,3.7853,3.7257,3.7026,3.6738,3.6154,3.575,3.5558,3.4872,3.4584,3.4224,3.382,3.3378,3.3192,3.3134,3.2992,3.2823,3.2797,3.2727,3.2619,3.2572,3.2584,3.2577,3.262,3.267,3.2721,3.2707,3.2069,3.0997,3.0722,3.0701,3.071,3.0696,3.083,3.0852,3.056,3.0473,3.0547,3.1052,3.1459,3.1962,3.2256,3.2222,3.2235,3.24,3.2437,3.2384,3.2412,3.2462,3.2884,3.3093,3.3247,3.3081,3.2465,3.2318,3.2336,3.2391,3.2525,3.2562,3.2763,3.2805,3.2902,3.3178,3.3151,3.275,3.2441,3.206,3.196,3.2009,3.2119,3.2282,3.2232,3.2214,3.2232,3.2179,3.1852,3.1475,3.1045,3.0385,3.0441,3.0129,2.9407,2.8894,2.8711,2.844,2.81,2.7879,2.7862,4.5643,4.5576,4.5441,4.4982,4.4299,4.4099,4.3223,4.202,4.1836,4.1289,4.0807,4.0642,4.0673,4.0712,4.0673,4.0608,4.06,4.0612,4.0669,4.0669,4.0554,4.0496,4.0496,4.0496,4.0439,4.0189,4.0246,3.9419,3.8507,3.8027,3.7853,3.7661,3.7046,3.6558,3.6474,3.5878,3.5332,3.5247,3.5086,3.4649,3.4072,3.3949,3.3571,3.3135,3.2955,3.3025,3.3087,3.3069,3.2982,3.2898,3.2751,3.2662,3.2608,3.2608,3.2537,3.2327,3.2289,3.2314,3.2126,3.1925,3.1836,3.1791,3.1824,3.1958,3.1864,3.1785,3.1986,3.1989,3.2601,3.2956,3.3025,3.3466,3.3703,3.3623,3.3395,3.3487,3.3727,3.346,3.3668,3.3674,3.3127,3.3305,3.3434,3.3493,3.355,3.3568,3.3568,3.3568,3.3573,3.3702,3.3721,3.3232,3.2985,3.2651,3.2429,3.2455,3.2475,3.2775,3.2722,3.2666,3.2522,3.241,3.2348,3.1984,3.1602,3.1167,3.0765,3.0314,2.9798,2.9523,2.9334,2.9178,2.8985,2.8796,2.8506,4.5715,4.5688,4.5688,4.5499,4.5081,4.4619,4.3986,4.3288,4.2752,4.2379,4.2051,4.1997,4.1978,4.1873,4.197,4.1989,4.1854,4.145,4.1239,4.1066,4.0835,4.0554,4.0496,4.0496,4.0496,4.0554,4.0477,4.0265,3.9392,3.8931,3.8746,3.8584,3.7904,3.7428,3.7355,3.7021,3.6557,3.6113,3.5599,3.5162,3.4864,3.4718,3.455,3.4174,3.4113,3.4066,3.405,3.4072,3.4058,3.405,3.3991,3.3964,3.3947,3.3911,3.3847,3.3809,3.3819,3.3373,3.2587,3.2457,3.2449,3.2317,3.2306,3.2294,3.2577,3.2689,3.2855,3.3257,3.352,3.3634,3.3562,3.3883,3.3962,3.3991,3.4007,3.4013,3.3987,3.3868,3.3792,3.3815,3.3889,3.4086,3.4209,3.4109,3.3954,3.3697,3.3678,3.3678,3.367,3.3698,3.3671,3.3504,3.3346,3.3223,3.3033,3.2928,3.2714,3.2852,3.2757,3.2682,3.2555,3.2456,3.2336,3.2214,3.1864,3.1411,3.0994,3.0838,3.0663,3.0314,2.9949,2.9755,2.9526,2.9132,2.8894,4.5662,4.5676,4.5657,4.5671,4.5627,4.4972,4.4542,4.4201,4.3643,4.3278,4.3124,4.3028,4.3028,4.3085,4.2989,4.2893,4.2989,4.2404,4.2173,4.1873,4.1546,4.1285,4.1266,4.1131,4.0873,4.0804,4.0573,4.0412,4.0269,3.9935,3.9588,3.9538,3.8716,3.8328,3.8162,3.784,3.741,3.691,3.6353,3.6061,3.5952,3.588,3.5846,3.5717,3.5558,3.536,3.536,3.5001,3.4935,3.4897,3.4813,3.468,3.4728,3.4594,3.4535,3.4497,3.4485,3.4078,3.3372,3.3051,3.2842,3.2763,3.271,3.3047,3.3325,3.3394,3.3447,3.3938,3.3975,3.3975,3.3998,3.3972,3.3947,3.4005,3.4094,3.4104,3.4187,3.4444,3.4683,3.4904,3.494,3.4743,3.4793,3.4646,3.4357,3.3917,3.3807,3.383,3.3826,3.3826,3.3674,3.3578,3.3422,3.3334,3.3211,3.3088,3.2979,3.2852,3.2789,3.2658,3.2508,3.2336,3.2144,3.2037,3.193,3.1682,3.123,3.1417,3.1535,3.1011,3.0539,3.0279,2.9982,2.9587,2.9517,4.5622,4.5603,4.5603,4.5622,4.5603,4.5537,4.5056,4.4432,4.4278,4.3855,4.3393,4.3181,4.3316,4.3239,4.3393,4.3355,4.3181,4.3066,4.3028,4.2989,4.2912,4.2643,4.2412,4.2008,4.1692,4.1577,4.1231,4.083,4.0556,4.0644,4.0452,4.0298,3.9522,3.9191,3.8832,3.8405,3.8027,3.764,3.7321,3.7239,3.7231,3.7223,3.7186,3.7053,3.6568,3.6103,3.6055,3.5486,3.5172,3.5172,3.5179,3.5167,3.526,3.5151,3.508,3.5066,3.5004,3.4734,3.4412,3.4138,3.4261,3.427,3.4106,3.3827,3.3875,3.4018,3.4086,3.4202,3.4399,3.4323,3.4155,3.395,3.4273,3.4448,3.4752,3.4904,3.5128,3.5532,3.5789,3.6028,3.5917,3.5587,3.5514,3.5385,3.511,3.4706,3.4481,3.4504,3.4164,3.4089,3.3803,3.3611,3.3421,3.3262,3.3101,3.2993,3.2884,3.2756,3.2625,3.2524,3.2405,3.2214,3.2019,3.1874,3.1783,3.1634,3.154,3.1507,3.1452,3.1355,3.1089,3.0762,3.0656,3.0482,3.0548,4.5594,4.5594,4.5594,4.5594,4.5594,4.5594,4.5421,4.5143,4.5094,4.496,4.4594,4.4652,4.4624,4.4605,4.4652,4.4652,4.4556,4.4008,4.3912,4.3643,4.3431,4.3162,4.2912,4.2865,4.2569,4.2467,4.214,4.1999,4.2014,4.1468,4.1221,4.0924,4.0349,4.0004,3.9587,3.8979,3.8563,3.8288,3.7956,3.7652,3.7566,3.7527,3.7469,3.7334,3.7207,3.6883,3.6806,3.6467,3.6284,3.6177,3.6103,3.6043,3.5983,3.5938,3.5892,3.5857,3.5804,3.5775,3.5527,3.507,3.4439,3.4316,3.4215,3.4235,3.4321,3.453,3.4755,3.49,3.5132,3.5202,3.5349,3.539,3.5487,3.5454,3.5532,3.5701,3.5977,3.6395,3.6578,3.6707,3.645,3.6101,3.6138,3.6174,3.5862,3.555,3.5343,3.5121,3.4797,3.4495,3.428,3.4027,3.3867,3.3512,3.3349,3.3096,3.2842,3.2765,3.2649,3.2634,3.2634,3.2108,3.1929,3.1764,3.1754,3.1779,3.1703,3.1496,3.137,3.1329,3.1271,3.1145,3.1159,3.119,3.119,4.5594,4.5594,4.5594,4.5594,4.5594,4.5594,4.5594,4.5594,4.5575,4.5594,4.5594,4.5594,4.5594,4.5594,4.5556,4.5537,4.5325,4.496,4.4739,4.4509,4.422,4.3865,4.3742,4.359,4.3419,4.3326,4.3029,4.2849,4.2669,4.2258,4.2049,4.1762,4.1342,4.0921,4.008,3.9671,3.9213,3.8993,3.8649,3.8258,3.8245,3.8201,3.8148,3.8018,3.7822,3.7589,3.7416,3.7103,3.6862,3.6839,3.6848,3.6906,3.6907,3.6907,3.6889,3.6864,3.6839,3.6801,3.6422,3.5864,3.5008,3.5113,3.5038,3.4924,3.4908,3.5288,3.5556,3.5561,3.6025,3.6379,3.634,3.6115,3.6042,3.5936,3.6409,3.6633,3.6817,3.711,3.7221,3.7312,3.7129,3.7184,3.7221,3.7257,3.667,3.6237,3.5762,3.5612,3.5531,3.5248,3.5002,3.4728,3.4456,3.4062,3.3682,3.3747,3.379,3.3635,3.3494,3.321,3.3012,3.2536,3.2388,3.2612,3.253,3.2161,3.2154,3.2278,3.1851,3.1342,3.1317,3.1295,3.121,3.119,3.119,4.5594,4.5594,4.5594,4.5594,4.5594,4.5594,4.5594,4.5594,4.5594,4.5594,4.5594,4.5594,4.5594,4.5594,4.5594,4.5594,4.5594,4.5498,4.5421,4.5287,4.5135,4.5271,4.5033,4.463,4.4219,4.3991,4.3675,4.3321,4.3034,4.2852,4.2745,4.2598,4.2243,4.1594,4.0339,4.0118,4.0029,3.9939,3.9713,3.9556,3.9414,3.9309,3.9225,3.8992,3.8587,3.8288,3.8146,3.7692,3.7449,3.7393,3.7324,3.7287,3.7237,3.7161,3.7091,3.7007,3.688,3.6758,3.6579,3.6541,3.6448,3.613,3.5882,3.5952,3.6155,3.6343,3.6366,3.6332,3.6574,3.6556,3.6431,3.6431,3.656,3.678,3.7272,3.7511,3.7643,3.7753,3.7863,3.79,3.8303,3.8597,3.8579,3.8377,3.7609,3.6978,3.6303,3.6115,3.6252,3.5999,3.5768,3.5439,3.5128,3.4713,3.4455,3.4693,3.473,3.4549,3.4225,3.385,3.3682,3.3479,3.3424,3.3522,3.3233,3.2849,3.3036,3.3271,3.2669,3.2029,3.1534,3.1396,3.1275,3.119,3.119,4.5594,4.5594,4.5594,4.5594,4.5594,4.5594,4.5594,4.5594,4.5594,4.5594,4.5594,4.5594,4.5594,4.5594,4.5594,4.5594,4.5594,4.5594,4.5594,4.5586,4.5559,4.5503,4.536,4.5189,4.4959,4.4911,4.4575,4.4315,4.4444,4.3819,4.3482,4.3344,4.2799,4.1892,4.0954,4.039,3.9922,3.9834,3.9739,3.9693,3.963,3.9613,3.957,3.9483,3.9108,3.8933,3.8876,3.835,3.8191,3.8165,3.812,3.8103,3.8094,3.8053,3.81,3.8095,3.8071,3.8098,3.804,3.7962,3.7483,3.6938,3.6574,3.6583,3.6379,3.6897,3.703,3.7217,3.7477,3.7624,3.7936,3.7918,3.7991,3.801,3.8285,3.8285,3.8377,3.8432,3.8505,3.8469,3.8689,3.8872,3.8927,3.9169,3.864,3.8285,3.7752,3.7403,3.7446,3.693,3.6548,3.6164,3.5816,3.5397,3.5207,3.5421,3.5275,3.4929,3.4587,3.4213,3.4127,3.4278,3.4071,3.3963,3.3758,3.3569,3.3723,3.3761,3.3322,3.2797,3.2412,3.187,3.1596,3.141,3.1207,4.5594,4.5594,4.5594,4.5594,4.5594,4.5594,4.5594,4.5594,4.5594,4.5594,4.5594,4.5594,4.5594,4.5594,4.5594,4.5594,4.5594,4.5577,4.5549,4.554,4.5504,4.5467,4.5438,4.5429,4.5274,4.5338,4.5297,4.5167,4.4979,4.4471,4.4193,4.3895,4.3223,4.264,4.1872,4.13,4.0778,4.0733,4.071,4.0434,4.0152,3.9901,3.9726,3.9447,3.9264,3.9256,3.9215,3.918,3.911,3.9073,3.9048,3.8991,3.8943,3.8929,3.8896,3.8862,3.8818,3.877,3.867,3.8651,3.8081,3.7496,3.722,3.7173,3.718,3.7694,3.786,3.8098,3.8524,3.8634,3.8762,3.8799,3.8909,3.8909,3.9111,3.9111,3.946,3.9536,3.9536,3.9444,3.9389,3.9426,3.9407,3.9593,3.9651,3.9461,3.9254,3.8899,3.8507,3.7935,3.7383,3.7014,3.6716,3.6416,3.6185,3.6112,3.5854,3.536,3.5122,3.4923,3.4985,3.5163,3.4785,3.4472,3.4512,3.4507,3.4341,3.4184,3.4049,3.3795,3.344,3.2831,3.2087,3.185,3.1749,4.5594,4.5594,4.5594,4.5594,4.5594,4.5594,4.5594,4.5594,4.5594,4.5594,4.5594,4.5594,4.5586,4.5586,4.5586,4.5577,4.5568,4.5513,4.5504,4.5466,4.5429,4.54,4.5399,4.5379,4.5317,4.5243,4.5181,4.5136,4.5072,4.4773,4.4632,4.4492,4.3844,4.3408,4.2974,4.2603,4.202,4.1661,4.1466,4.1138,4.0758,4.0606,4.029,3.9928,3.9668,3.9593,3.9536,3.9427,3.9309,3.9239,3.9169,3.9062,3.8988,3.8951,3.8888,3.8865,3.8863,3.905,3.9108,3.9182,3.909,3.8814,3.8781,3.8781,3.867,3.867,3.8817,3.8964,3.9258,3.9093,3.9001,3.9203,3.9368,3.9588,3.99,4.0212,4.0691,4.082,4.0802,4.0765,4.071,4.0691,4.0581,4.0657,4.0478,4.0253,3.9987,3.9665,3.9254,3.8828,3.8326,3.7969,3.7703,3.7506,3.7252,3.6837,3.6504,3.6003,3.615,3.6032,3.6105,3.5916,3.5497,3.5301,3.5484,3.5407,3.5047,3.4974,3.5042,3.4776,3.4353,3.3694,3.2933,3.2882,3.2777,4.5594,4.5594,4.5594,4.5594,4.5594,4.5594,4.5594,4.5594,4.5594,4.5594,4.5594,4.5594,4.5568,4.5541,4.5541,4.5504,4.5476,4.5438,4.5429,4.541,4.539,4.536,4.5328,4.5286,4.5203,4.5136,4.5091,4.5033,4.4931,4.4821,4.4667,4.4452,4.4231,4.4074,4.3924,4.3765,4.2932,4.23,4.2099,4.1801,4.1511,4.1343,4.0992,4.0729,4.0493,4.0433,4.0421,4.0409,4.0397,4.0425,4.0498,4.0335,3.9629,3.9611,3.9598,3.9653,4.0008,4.0432,4.0416,4.038,4.0288,4.0215,4.0251,4.001,3.979,3.9643,3.9808,3.9918,4.0049,3.9976,3.9958,4.0086,4.0267,4.0524,4.0763,4.102,4.1425,4.1535,4.1535,4.1554,4.1535,4.1535,4.148,4.137,4.1156,4.0949,4.0719,4.0468,4.0037,3.9642,3.9175,3.8834,3.8582,3.8363,3.7731,3.7279,3.7011,3.6736,3.6934,3.6936,3.6585,3.6346,3.6131,3.6081,3.6158,3.5915,3.5532,3.5566,3.5673,3.5515,3.5131,3.4433,3.3892,3.3829,3.3711,4.5594,4.5594,4.5594,4.5596,4.5568,4.5568,4.555,4.5522,4.555,4.5568,4.5559,4.5522,4.5504,4.5476,4.5448,4.5438,4.5429,4.54,4.538,4.5341,4.5329,4.5267,4.5213,4.5181,4.5114,4.5045,4.4986,4.4926,4.4808,4.468,4.4551,4.443,4.4411,4.4358,4.4229,4.4002,4.3621,4.3048,4.2679,4.2426,4.2199,4.1994,4.1789,4.1539,4.1391,4.1375,4.1341,4.1309,4.1243,4.1192,4.1158,4.0958,4.0396,4.0359,4.0359,4.0432,4.0671,4.0912,4.093,4.0985,4.1077,4.1132,4.1168,4.104,4.0855,4.0689,4.0744,4.0783,4.093,4.104,4.1058,4.1113,4.1315,4.1517,4.1609,4.1735,4.1919,4.2084,4.2121,4.2139,4.2158,4.2194,4.2139,4.2029,4.1999,4.2044,4.2012,4.1868,4.1234,4.0528,4.0022,3.9571,3.937,3.9168,3.8497,3.7966,3.7908,3.7845,3.7931,3.7783,3.7241,3.7041,3.7035,3.6899,3.6763,3.6491,3.6248,3.6129,3.6129,3.5977,3.5785,3.5245,3.4805,3.4687,3.4551,4.5586,4.5586,4.5605,4.5531,4.5514,4.5475,4.5476,4.541,4.5467,4.5514,4.5485,4.5429,4.541,4.5419,4.5419,4.54,4.537,4.536,4.5309,4.5267,4.5224,4.517,4.5095,4.5061,4.501,4.4919,4.4858,4.4796,4.4685,4.4551,4.443,4.4318,4.427,4.4226,4.4153,4.4039,4.3772,4.3611,4.3444,4.3299,4.2881,4.258,4.2258,4.1725,4.1585,4.1537,4.1484,4.1381,4.1279,4.1332,4.1368,4.1423,4.1222,4.1187,4.1187,4.1315,4.1497,4.1644,4.1717,4.1735,4.1609,4.1517,4.1315,4.1772,4.1882,4.1515,4.1425,4.1754,4.1937,4.1956,4.1974,4.1992,4.2139,4.2304,4.2433,4.2561,4.2727,4.2837,4.2837,4.2855,4.2855,4.2873,4.2873,4.2782,4.264,4.2939,4.2941,4.2814,4.2359,4.1487,4.0924,4.0399,4.0214,3.9973,3.9365,3.8972,3.9018,3.9028,3.8897,3.8604,3.8066,3.799,3.8052,3.7721,3.7322,3.7242,3.706,3.6924,3.6721,3.6468,3.6259,3.5971,3.5769,3.5701,3.5346,4.5568,4.5532,4.5476,4.5438,4.5438,4.5429,4.5438,4.5419,4.5409,4.5429,4.541,4.541,4.54,4.5399,4.5389,4.5339,4.5277,4.5267,4.5203,4.517,4.5125,4.5045,4.4955,4.4931,4.4877,4.4802,4.4738,4.4653,4.4537,4.4416,4.43,4.4211,4.415,4.4073,4.3995,4.3881,4.3816,4.3802,4.3714,4.3691,4.3435,4.3369,4.319,4.2954,4.2884,4.2759,4.276,4.2817,4.2855,4.2928,4.2928,4.2635,4.2084,4.2047,4.2011,4.2103,4.247,4.2616,4.2671,4.2635,4.2635,4.2763,4.2818,4.2983,4.2892,4.2341,4.2231,4.2616,4.2837,4.28,4.28,4.2818,4.2855,4.3002,4.3149,4.3314,4.3479,4.3479,4.3479,4.3479,4.3479,4.3479,4.3479,4.3444,4.3375,4.3268,4.3178,4.3069,4.2885,4.2301,4.1791,4.1335,4.1076,4.076,4.0199,3.9908,3.994,3.9627,3.9368,3.9112,3.8866,3.8769,3.8672,3.8214,3.7848,3.7885,3.7855,3.7702,3.7466,3.711,3.6969,3.6817,3.6969,3.6986,3.6394,4.5495,4.5448,4.5419,4.541,4.5409,4.5409,4.537,4.532,4.5309,4.5298,4.527,4.53,4.5319,4.5307,4.5286,4.5254,4.5159,4.514,4.5103,4.5045,4.501,4.4907,4.4858,4.4815,4.4725,4.4646,4.4537,4.4454,4.4373,4.43,4.4195,4.4073,4.3976,4.3913,4.3832,4.3769,4.3701,4.3719,4.3617,4.3617,4.3686,4.36,4.3566,4.3531,4.3513,4.3479,4.3479,4.3479,4.3479,4.3478,4.3387,4.3277,4.2892,4.2818,4.2818,4.291,4.3167,4.3479,4.3479,4.3479,4.3479,4.3479,4.3479,4.3332,4.3351,4.2873,4.2855,4.3203,4.3204,4.3185,4.3185,4.3204,4.3204,4.3314,4.3332,4.3424,4.3479,4.3479,4.3479,4.3479,4.3479,4.3479,4.3479,4.3479,4.3392,4.3269,4.3214,4.3142,4.2994,4.29,4.2479,4.2147,4.1815,4.1638,4.125,4.0961,4.0853,4.0428,3.9931,3.9914,3.9848,3.953,3.9232,3.8993,3.8805,3.8766,3.8684,3.8464,3.8075,3.7652,3.7686,3.7729,3.7956,3.8091,3.7533,4.54,4.5419,4.539,4.537,4.5369,4.5369,4.5307,4.5203,4.52,4.5159,4.5125,4.5159,4.5159,4.5159,4.5125,4.5103,4.5068,4.5045,4.4974,4.4914,4.4889,4.4783,4.4706,4.4672,4.4578,4.4487,4.4373,4.4285,4.418,4.4119,4.4058,4.3913,4.3849,4.3816,4.3753,4.3667,4.36,4.36,4.3549,4.3496,4.3496,4.3479,4.3515,4.3515,4.3479,4.3479,4.3479,4.3479,4.3479,4.3479,4.3479,4.3424,4.3387,4.3296,4.3332,4.3369,4.3369,4.3479,4.3479,4.3479,4.3479,4.3479,4.3479,4.3479,4.3479,4.3479,4.3478,4.3478,4.3479,4.3479,4.3479,4.3479,4.3479,4.3479,4.3479,4.3479,4.3479,4.3479,4.3479,4.3479,4.3479,4.3479,4.3479,4.3479,4.3428,4.3286,4.3178,4.3068,4.2994,4.2919,4.268,4.2492,4.2323,4.2159,4.1964,4.1711,4.1425,4.1253,4.0801,4.0868,4.0761,4.0291,4.0021,4.0056,3.9906,3.9553,3.9368,3.9174,3.8734,3.8345,3.8565,3.8751,3.8684,3.8734,3.8497,4.5419,4.5399,4.5348,4.5288,4.5235,4.5254,4.5192,4.5125,4.5125,4.5114,4.5049,4.4991,4.5003,4.5095,4.5057,4.4998,4.4919,4.4902,4.4827,4.4764,4.4738,4.4627,4.4565,4.451,4.4458,4.4344,4.4226,4.415,4.4058,4.3995,4.3934,4.3837,4.3701,4.3667,4.3651,4.3583,4.3532,4.3532,4.3532,4.3479,4.3479,4.3479,4.3479,4.3479,4.3479,4.3479,4.3479,4.3479,4.3479,4.3479,4.3479,4.3479,4.3479,4.3479,4.3479,4.3479,4.3479,4.3479,4.3479,4.3479,4.3479,4.3479,4.3479,4.3479,4.3479,4.3479,4.3479,4.3479,4.3479,4.3479,4.3479,4.3479,4.3479,4.3479,4.3479,4.3479,4.3479,4.3479,4.3479,4.3479,4.3479,4.3479,4.3479,4.3479,4.3463,4.334,4.3233,4.3142,4.3086,4.2956,4.2935,4.2802,4.274,4.2412,4.213,4.2005,4.1768,4.1701,4.1515,4.1221,4.0982,4.0817,4.0648,4.0461,4.0313,4.0043,3.9892,3.9648,3.9673,3.9402,3.9631,3.9749,3.958,3.9411,3.9191]}]]